<?xml version="1.0" encoding="UTF-8"?>
<gpx version="1.1" creator="Garmin Connect"
  xsi:schemaLocation="http://www.topografix.com/GPX/1/1 http://www.topografix.com/GPX/1/1/gpx.xsd http://www.garmin.com/xmlschemas/GpxExtensions/v3 http://www.garmin.com/xmlschemas/GpxExtensionsv3.xsd http://www.garmin.com/xmlschemas/TrackPointExtension/v1 http://www.garmin.com/xmlschemas/TrackPointExtensionv1.xsd"
  xmlns="http://www.topografix.com/GPX/1/1"
  xmlns:gpxtpx="http://www.garmin.com/xmlschemas/TrackPointExtension/v1"
  xmlns:gpxx="http://www.garmin.com/xmlschemas/GpxExtensions/v3" xmlns:xsi="http://www.w3.org/2001/XMLSchema-instance">
  <metadata>
    <link href="connect.garmin.com">
      <text>Garmin Connect</text>
    </link>
    <time>2016-05-14T04:55:26.000Z</time>
  </metadata>
  <trk>
    <name>Haruvit singles</name>
    <trkseg>
      <trkpt lon="34.85631893388927" lat="31.737580988556147">
        <ele>159.0</ele>
        <time>2016-05-14T04:55:27.000Z</time>
      </trkpt>
      <trkpt lon="34.85648699104786" lat="31.737596997991204">
        <ele>159.0</ele>
        <time>2016-05-14T04:55:34.000Z</time>
      </trkpt>
      <trkpt lon="34.856671979650855" lat="31.73760697245598">
        <ele>159.60000610351562</ele>
        <time>2016-05-14T04:55:40.000Z</time>
      </trkpt>
      <trkpt lon="34.856931986287236" lat="31.73763195052743">
        <ele>160.0</ele>
        <time>2016-05-14T04:55:48.000Z</time>
      </trkpt>
      <trkpt lon="34.85709199681878" lat="31.737562967464328">
        <ele>160.1999969482422</ele>
        <time>2016-05-14T04:55:53.000Z</time>
      </trkpt>
      <trkpt lon="34.857143964618444" lat="31.737404968589544">
        <ele>160.39999389648438</ele>
        <time>2016-05-14T04:55:58.000Z</time>
      </trkpt>
      <trkpt lon="34.857101971283555" lat="31.737231966108084">
        <ele>160.60000610351562</ele>
        <time>2016-05-14T04:56:04.000Z</time>
      </trkpt>
      <trkpt lon="34.85709199681878" lat="31.737170945852995">
        <ele>160.8000030517578</ele>
        <time>2016-05-14T04:56:06.000Z</time>
      </trkpt>
      <trkpt lon="34.857211941853166" lat="31.73709894530475">
        <ele>160.8000030517578</ele>
        <time>2016-05-14T04:56:11.000Z</time>
      </trkpt>
      <trkpt lon="34.8572619818151" lat="31.73711897805333">
        <ele>160.39999389648438</ele>
        <time>2016-05-14T04:56:15.000Z</time>
      </trkpt>
      <trkpt lon="34.85728997737169" lat="31.73724696971476">
        <ele>159.8000030517578</ele>
        <time>2016-05-14T04:56:21.000Z</time>
      </trkpt>
      <trkpt lon="34.8573259357363" lat="31.73722492530942">
        <ele>159.0</ele>
        <time>2016-05-14T04:56:26.000Z</time>
      </trkpt>
      <trkpt lon="34.85731294378638" lat="31.73720397055149">
        <ele>159.0</ele>
        <time>2016-05-14T04:56:27.000Z</time>
      </trkpt>
      <trkpt lon="34.85727095045149" lat="31.7371379211545">
        <ele>159.60000610351562</ele>
        <time>2016-05-14T04:56:30.000Z</time>
      </trkpt>
      <trkpt lon="34.8573449626565" lat="31.737112943083048">
        <ele>160.0</ele>
        <time>2016-05-14T04:56:34.000Z</time>
      </trkpt>
      <trkpt lon="34.85754193738103" lat="31.737186955288053">
        <ele>159.60000610351562</ele>
        <time>2016-05-14T04:56:39.000Z</time>
      </trkpt>
      <trkpt lon="34.85769599676132" lat="31.73715996555984">
        <ele>159.8000030517578</ele>
        <time>2016-05-14T04:56:43.000Z</time>
      </trkpt>
      <trkpt lon="34.85780194401741" lat="31.737066926434636">
        <ele>161.0</ele>
        <time>2016-05-14T04:56:47.000Z</time>
      </trkpt>
      <trkpt lon="34.8578629642725" lat="31.736853942275047">
        <ele>163.60000610351562</ele>
        <time>2016-05-14T04:56:54.000Z</time>
      </trkpt>
      <trkpt lon="34.857899928465486" lat="31.73677498474717">
        <ele>164.1999969482422</ele>
        <time>2016-05-14T04:56:58.000Z</time>
      </trkpt>
      <trkpt lon="34.85796698369086" lat="31.736611956730485">
        <ele>164.8000030517578</ele>
        <time>2016-05-14T04:57:03.000Z</time>
      </trkpt>
      <trkpt lon="34.858071925118566" lat="31.73647692427039">
        <ele>166.39999389648438</ele>
        <time>2016-05-14T04:57:08.000Z</time>
      </trkpt>
      <trkpt lon="34.85817099921405" lat="31.736361924558878">
        <ele>167.1999969482422</ele>
        <time>2016-05-14T04:57:13.000Z</time>
      </trkpt>
      <trkpt lon="34.858194971457124" lat="31.73623594455421">
        <ele>167.8000030517578</ele>
        <time>2016-05-14T04:57:17.000Z</time>
      </trkpt>
      <trkpt lon="34.85827594064176" lat="31.736074928194284">
        <ele>169.0</ele>
        <time>2016-05-14T04:57:23.000Z</time>
      </trkpt>
      <trkpt lon="34.858303936198354" lat="31.736007956787944">
        <ele>169.39999389648438</ele>
        <time>2016-05-14T04:57:26.000Z</time>
      </trkpt>
      <trkpt lon="34.8583859950304" lat="31.73596093431115">
        <ele>170.1999969482422</ele>
        <time>2016-05-14T04:57:32.000Z</time>
      </trkpt>
      <trkpt lon="34.85840493813157" lat="31.73591298982501">
        <ele>170.39999389648438</ele>
        <time>2016-05-14T04:57:35.000Z</time>
      </trkpt>
      <trkpt lon="34.858475932851434" lat="31.735797990113497">
        <ele>171.0</ele>
        <time>2016-05-14T04:57:42.000Z</time>
      </trkpt>
      <trkpt lon="34.8585569858551" lat="31.735707968473434">
        <ele>171.39999389648438</ele>
        <time>2016-05-14T04:57:47.000Z</time>
      </trkpt>
      <trkpt lon="34.85857592895627" lat="31.735600931569934">
        <ele>172.0</ele>
        <time>2016-05-14T04:57:52.000Z</time>
      </trkpt>
      <trkpt lon="34.85858699306846" lat="31.735557932406664">
        <ele>172.39999389648438</ele>
        <time>2016-05-14T04:57:54.000Z</time>
      </trkpt>
      <trkpt lon="34.858714984729886" lat="31.735495990142226">
        <ele>172.8000030517578</ele>
        <time>2016-05-14T04:58:00.000Z</time>
      </trkpt>
      <trkpt lon="34.858780950307846" lat="31.735409991815686">
        <ele>172.60000610351562</ele>
        <time>2016-05-14T04:58:04.000Z</time>
      </trkpt>
      <trkpt lon="34.85878396779299" lat="31.735323993489146">
        <ele>173.39999389648438</ele>
        <time>2016-05-14T04:58:08.000Z</time>
      </trkpt>
      <trkpt lon="34.858866948634386" lat="31.735170939937234">
        <ele>174.8000030517578</ele>
        <time>2016-05-14T04:58:16.000Z</time>
      </trkpt>
      <trkpt lon="34.85898597165942" lat="31.735107991844416">
        <ele>175.1999969482422</ele>
        <time>2016-05-14T04:58:21.000Z</time>
      </trkpt>
      <trkpt lon="34.85907297581434" lat="31.73505493439734">
        <ele>175.0</ele>
        <time>2016-05-14T04:58:27.000Z</time>
      </trkpt>
      <trkpt lon="34.85911698080599" lat="31.735024927183986">
        <ele>175.1999969482422</ele>
        <time>2016-05-14T04:58:37.000Z</time>
      </trkpt>
      <trkpt lon="34.85923893749714" lat="31.73496994189918">
        <ele>175.8000030517578</ele>
        <time>2016-05-14T04:58:43.000Z</time>
      </trkpt>
      <trkpt lon="34.85931898467243" lat="31.73494697548449">
        <ele>175.8000030517578</ele>
        <time>2016-05-14T04:58:46.000Z</time>
      </trkpt>
      <trkpt lon="34.859504979103804" lat="31.73492493107915">
        <ele>176.39999389648438</ele>
        <time>2016-05-14T04:58:52.000Z</time>
      </trkpt>
      <trkpt lon="34.85957798548043" lat="31.734894923865795">
        <ele>177.1999969482422</ele>
        <time>2016-05-14T04:58:55.000Z</time>
      </trkpt>
      <trkpt lon="34.859656943008304" lat="31.734804986044765">
        <ele>178.60000610351562</ele>
        <time>2016-05-14T04:59:00.000Z</time>
      </trkpt>
      <trkpt lon="34.859769931063056" lat="31.734759975224733">
        <ele>180.0</ele>
        <time>2016-05-14T04:59:05.000Z</time>
      </trkpt>
      <trkpt lon="34.859872944653034" lat="31.734702978283167">
        <ele>180.60000610351562</ele>
        <time>2016-05-14T04:59:10.000Z</time>
      </trkpt>
      <trkpt lon="34.85997595824301" lat="31.73460398800671">
        <ele>182.0</ele>
        <time>2016-05-14T04:59:15.000Z</time>
      </trkpt>
      <trkpt lon="34.85999297350645" lat="31.734585966914892">
        <ele>182.39999389648438</ele>
        <time>2016-05-14T04:59:16.000Z</time>
      </trkpt>
      <trkpt lon="34.86012096516788" lat="31.734465938061476">
        <ele>183.60000610351562</ele>
        <time>2016-05-14T04:59:23.000Z</time>
      </trkpt>
      <trkpt lon="34.86020696349442" lat="31.734376922249794">
        <ele>184.0</ele>
        <time>2016-05-14T04:59:29.000Z</time>
      </trkpt>
      <trkpt lon="34.860216937959194" lat="31.734315985813737">
        <ele>185.1999969482422</ele>
        <time>2016-05-14T04:59:32.000Z</time>
      </trkpt>
      <trkpt lon="34.86029497347772" lat="31.73421992920339">
        <ele>186.60000610351562</ele>
        <time>2016-05-14T04:59:37.000Z</time>
      </trkpt>
      <trkpt lon="34.86039999872446" lat="31.73412697389722">
        <ele>187.0</ele>
        <time>2016-05-14T04:59:42.000Z</time>
      </trkpt>
      <trkpt lon="34.860560931265354" lat="31.734018931165338">
        <ele>187.60000610351562</ele>
        <time>2016-05-14T04:59:48.000Z</time>
      </trkpt>
      <trkpt lon="34.860753966495395" lat="31.733952965587378">
        <ele>187.39999389648438</ele>
        <time>2016-05-14T04:59:53.000Z</time>
      </trkpt>
      <trkpt lon="34.860858991742134" lat="31.733843917027116">
        <ele>187.0</ele>
        <time>2016-05-14T04:59:57.000Z</time>
      </trkpt>
      <trkpt lon="34.860924957320094" lat="31.733673932030797">
        <ele>187.1999969482422</ele>
        <time>2016-05-14T05:00:02.000Z</time>
      </trkpt>
      <trkpt lon="34.86095395870507" lat="31.733643924817443">
        <ele>187.1999969482422</ele>
        <time>2016-05-14T05:00:03.000Z</time>
      </trkpt>
      <trkpt lon="34.86100693233311" lat="31.73357393592596">
        <ele>187.0</ele>
        <time>2016-05-14T05:00:05.000Z</time>
      </trkpt>
      <trkpt lon="34.86094197258353" lat="31.733453990891576">
        <ele>186.8000030517578</ele>
        <time>2016-05-14T05:00:09.000Z</time>
      </trkpt>
      <trkpt lon="34.8607589956373" lat="31.733319964259863">
        <ele>188.1999969482422</ele>
        <time>2016-05-14T05:00:15.000Z</time>
      </trkpt>
      <trkpt lon="34.86052899621427" lat="31.733135981485248">
        <ele>190.0</ele>
        <time>2016-05-14T05:00:23.000Z</time>
      </trkpt>
      <trkpt lon="34.86030796542764" lat="31.733132964000106">
        <ele>191.8000030517578</ele>
        <time>2016-05-14T05:00:29.000Z</time>
      </trkpt>
      <trkpt lon="34.860238982364535" lat="31.73311896622181">
        <ele>192.60000610351562</ele>
        <time>2016-05-14T05:00:31.000Z</time>
      </trkpt>
      <trkpt lon="34.860089952126145" lat="31.73292995430529">
        <ele>194.0</ele>
        <time>2016-05-14T05:00:38.000Z</time>
      </trkpt>
      <trkpt lon="34.86010394990444" lat="31.73285895958543">
        <ele>194.1999969482422</ele>
        <time>2016-05-14T05:00:40.000Z</time>
      </trkpt>
      <trkpt lon="34.86005793325603" lat="31.732716970145702">
        <ele>194.1999969482422</ele>
        <time>2016-05-14T05:00:44.000Z</time>
      </trkpt>
      <trkpt lon="34.859961960464716" lat="31.732447994872928">
        <ele>194.0</ele>
        <time>2016-05-14T05:00:51.000Z</time>
      </trkpt>
      <trkpt lon="34.85983799211681" lat="31.73234892077744">
        <ele>194.0</ele>
        <time>2016-05-14T05:00:55.000Z</time>
      </trkpt>
      <trkpt lon="34.85974998213351" lat="31.732254959642887">
        <ele>194.0</ele>
        <time>2016-05-14T05:00:58.000Z</time>
      </trkpt>
      <trkpt lon="34.859680999070406" lat="31.732190921902657">
        <ele>193.8000030517578</ele>
        <time>2016-05-14T05:01:00.000Z</time>
      </trkpt>
      <trkpt lon="34.8595139477402" lat="31.73202496021986">
        <ele>192.39999389648438</ele>
        <time>2016-05-14T05:01:05.000Z</time>
      </trkpt>
      <trkpt lon="34.859401965513825" lat="31.731942985206842">
        <ele>191.60000610351562</ele>
        <time>2016-05-14T05:01:08.000Z</time>
      </trkpt>
      <trkpt lon="34.8593619838357" lat="31.731907948851585">
        <ele>191.0</ele>
        <time>2016-05-14T05:01:10.000Z</time>
      </trkpt>
      <trkpt lon="34.85945695079863" lat="31.73187592998147">
        <ele>190.39999389648438</ele>
        <time>2016-05-14T05:01:13.000Z</time>
      </trkpt>
      <trkpt lon="34.85954697243869" lat="31.731812981888652">
        <ele>190.1999969482422</ele>
        <time>2016-05-14T05:01:17.000Z</time>
      </trkpt>
      <trkpt lon="34.85961193218827" lat="31.73174098134041">
        <ele>190.0</ele>
        <time>2016-05-14T05:01:21.000Z</time>
      </trkpt>
      <trkpt lon="34.85969793051481" lat="31.731675937771797">
        <ele>190.1999969482422</ele>
        <time>2016-05-14T05:01:26.000Z</time>
      </trkpt>
      <trkpt lon="34.859720980748534" lat="31.731675937771797">
        <ele>190.1999969482422</ele>
        <time>2016-05-14T05:01:33.000Z</time>
      </trkpt>
      <trkpt lon="34.85986799933016" lat="31.731674931943417">
        <ele>190.39999389648438</ele>
        <time>2016-05-14T05:01:37.000Z</time>
      </trkpt>
      <trkpt lon="34.860129933804274" lat="31.7316999938339">
        <ele>190.8000030517578</ele>
        <time>2016-05-14T05:01:42.000Z</time>
      </trkpt>
      <trkpt lon="34.86054299399257" lat="31.73165791667998">
        <ele>190.0</ele>
        <time>2016-05-14T05:01:49.000Z</time>
      </trkpt>
      <trkpt lon="34.860902996733785" lat="31.731590945273638">
        <ele>188.60000610351562</ele>
        <time>2016-05-14T05:01:54.000Z</time>
      </trkpt>
      <trkpt lon="34.861030988395214" lat="31.731411991640925">
        <ele>187.0</ele>
        <time>2016-05-14T05:01:57.000Z</time>
      </trkpt>
      <trkpt lon="34.86121396534145" lat="31.731297997757792">
        <ele>185.1999969482422</ele>
        <time>2016-05-14T05:02:00.000Z</time>
      </trkpt>
      <trkpt lon="34.86142996698618" lat="31.731287939473987">
        <ele>183.8000030517578</ele>
        <time>2016-05-14T05:02:03.000Z</time>
      </trkpt>
      <trkpt lon="34.86159894615412" lat="31.731282994151115">
        <ele>184.1999969482422</ele>
        <time>2016-05-14T05:02:06.000Z</time>
      </trkpt>
      <trkpt lon="34.861956937238574" lat="31.731215938925743">
        <ele>185.60000610351562</ele>
        <time>2016-05-14T05:02:13.000Z</time>
      </trkpt>
      <trkpt lon="34.86209196969867" lat="31.731202946975827">
        <ele>186.39999389648438</ele>
        <time>2016-05-14T05:02:16.000Z</time>
      </trkpt>
      <trkpt lon="34.86226497218013" lat="31.731157936155796">
        <ele>187.39999389648438</ele>
        <time>2016-05-14T05:02:20.000Z</time>
      </trkpt>
      <trkpt lon="34.86244895495474" lat="31.73116698861122">
        <ele>188.1999969482422</ele>
        <time>2016-05-14T05:02:24.000Z</time>
      </trkpt>
      <trkpt lon="34.862796971574426" lat="31.73124795779586">
        <ele>188.60000610351562</ele>
        <time>2016-05-14T05:02:31.000Z</time>
      </trkpt>
      <trkpt lon="34.86293996684253" lat="31.73129095695913">
        <ele>188.39999389648438</ele>
        <time>2016-05-14T05:02:34.000Z</time>
      </trkpt>
      <trkpt lon="34.86315295100212" lat="31.731323981657624">
        <ele>187.8000030517578</ele>
        <time>2016-05-14T05:02:38.000Z</time>
      </trkpt>
      <trkpt lon="34.86330399289727" lat="31.731305960565805">
        <ele>187.0</ele>
        <time>2016-05-14T05:02:41.000Z</time>
      </trkpt>
      <trkpt lon="34.86345092765987" lat="31.731269918382168">
        <ele>186.39999389648438</ele>
        <time>2016-05-14T05:02:44.000Z</time>
      </trkpt>
      <trkpt lon="34.86352996900678" lat="31.731198923662305">
        <ele>186.1999969482422</ele>
        <time>2016-05-14T05:02:46.000Z</time>
      </trkpt>
      <trkpt lon="34.86360398121178" lat="31.731071937829256">
        <ele>185.8000030517578</ele>
        <time>2016-05-14T05:02:49.000Z</time>
      </trkpt>
      <trkpt lon="34.863741947337985" lat="31.730937995016575">
        <ele>185.1999969482422</ele>
        <time>2016-05-14T05:02:53.000Z</time>
      </trkpt>
      <trkpt lon="34.863912938162684" lat="31.73091092146933">
        <ele>184.1999969482422</ele>
        <time>2016-05-14T05:02:56.000Z</time>
      </trkpt>
      <trkpt lon="34.86415794119239" lat="31.73082592897117">
        <ele>182.0</ele>
        <time>2016-05-14T05:03:00.000Z</time>
      </trkpt>
      <trkpt lon="34.864170933142304" lat="31.73077899031341">
        <ele>181.60000610351562</ele>
        <time>2016-05-14T05:03:01.000Z</time>
      </trkpt>
      <trkpt lon="34.86424595117569" lat="31.73054496757686">
        <ele>180.8000030517578</ele>
        <time>2016-05-14T05:03:06.000Z</time>
      </trkpt>
      <trkpt lon="34.86424595117569" lat="31.73041295260191">
        <ele>180.60000610351562</ele>
        <time>2016-05-14T05:03:09.000Z</time>
      </trkpt>
      <trkpt lon="34.86422893591225" lat="31.730375988408923">
        <ele>180.60000610351562</ele>
        <time>2016-05-14T05:03:10.000Z</time>
      </trkpt>
      <trkpt lon="34.86414293758571" lat="31.730150934308767">
        <ele>180.8000030517578</ele>
        <time>2016-05-14T05:03:16.000Z</time>
      </trkpt>
      <trkpt lon="34.864129945635796" lat="31.730019925162196">
        <ele>180.60000610351562</ele>
        <time>2016-05-14T05:03:19.000Z</time>
      </trkpt>
      <trkpt lon="34.86418794840574" lat="31.729780957102776">
        <ele>180.1999969482422</ele>
        <time>2016-05-14T05:03:24.000Z</time>
      </trkpt>
      <trkpt lon="34.8642089869827" lat="31.729732928797603">
        <ele>180.1999969482422</ele>
        <time>2016-05-14T05:03:25.000Z</time>
      </trkpt>
      <trkpt lon="34.864233965054154" lat="31.72964097931981">
        <ele>180.1999969482422</ele>
        <time>2016-05-14T05:03:27.000Z</time>
      </trkpt>
      <trkpt lon="34.86435893923044" lat="31.729502929374576">
        <ele>180.0</ele>
        <time>2016-05-14T05:03:31.000Z</time>
      </trkpt>
      <trkpt lon="34.86439892090857" lat="31.72946898266673">
        <ele>179.8000030517578</ele>
        <time>2016-05-14T05:03:32.000Z</time>
      </trkpt>
      <trkpt lon="34.86454099416733" lat="31.729304948821664">
        <ele>179.0</ele>
        <time>2016-05-14T05:03:36.000Z</time>
      </trkpt>
      <trkpt lon="34.86465197056532" lat="31.729176957160234">
        <ele>178.39999389648438</ele>
        <time>2016-05-14T05:03:39.000Z</time>
      </trkpt>
      <trkpt lon="34.864644929766655" lat="31.729021975770593">
        <ele>177.60000610351562</ele>
        <time>2016-05-14T05:03:42.000Z</time>
      </trkpt>
      <trkpt lon="34.8645459394902" lat="31.728918962180614">
        <ele>177.1999969482422</ele>
        <time>2016-05-14T05:03:45.000Z</time>
      </trkpt>
      <trkpt lon="34.86452599056065" lat="31.728744953870773">
        <ele>176.8000030517578</ele>
        <time>2016-05-14T05:03:49.000Z</time>
      </trkpt>
      <trkpt lon="34.86432398669422" lat="31.728624925017357">
        <ele>175.60000610351562</ele>
        <time>2016-05-14T05:03:54.000Z</time>
      </trkpt>
      <trkpt lon="34.86420596949756" lat="31.728579998016357">
        <ele>175.8000030517578</ele>
        <time>2016-05-14T05:03:57.000Z</time>
      </trkpt>
      <trkpt lon="34.86412592232227" lat="31.728357961401343">
        <ele>174.8000030517578</ele>
        <time>2016-05-14T05:04:02.000Z</time>
      </trkpt>
      <trkpt lon="34.86405995674431" lat="31.72824095003307">
        <ele>173.60000610351562</ele>
        <time>2016-05-14T05:04:05.000Z</time>
      </trkpt>
      <trkpt lon="34.86401293426752" lat="31.728173978626728">
        <ele>172.60000610351562</ele>
        <time>2016-05-14T05:04:09.000Z</time>
      </trkpt>
      <trkpt lon="34.864018969237804" lat="31.728171966969967">
        <ele>172.0</ele>
        <time>2016-05-14T05:06:13.000Z</time>
      </trkpt>
      <trkpt lon="34.86399298533797" lat="31.72811597585678">
        <ele>171.8000030517578</ele>
        <time>2016-05-14T05:06:20.000Z</time>
      </trkpt>
      <trkpt lon="34.863935988396406" lat="31.727997958660126">
        <ele>171.1999969482422</ele>
        <time>2016-05-14T05:06:25.000Z</time>
      </trkpt>
      <trkpt lon="34.863932970911264" lat="31.727977925911546">
        <ele>170.60000610351562</ele>
        <time>2016-05-14T05:06:29.000Z</time>
      </trkpt>
      <trkpt lon="34.86394193954766" lat="31.727972980588675">
        <ele>170.8000030517578</ele>
        <time>2016-05-14T05:06:41.000Z</time>
      </trkpt>
      <trkpt lon="34.86398393288255" lat="31.72794297337532">
        <ele>170.39999389648438</ele>
        <time>2016-05-14T05:06:48.000Z</time>
      </trkpt>
      <trkpt lon="34.86402399837971" lat="31.727918917313218">
        <ele>170.60000610351562</ele>
        <time>2016-05-14T05:06:57.000Z</time>
      </trkpt>
      <trkpt lon="34.86411997117102" lat="31.72781498171389">
        <ele>170.1999969482422</ele>
        <time>2016-05-14T05:07:03.000Z</time>
      </trkpt>
      <trkpt lon="34.86420496366918" lat="31.72773191705346">
        <ele>170.0</ele>
        <time>2016-05-14T05:07:06.000Z</time>
      </trkpt>
      <trkpt lon="34.86432692036033" lat="31.727607948705554">
        <ele>169.60000610351562</ele>
        <time>2016-05-14T05:07:10.000Z</time>
      </trkpt>
      <trkpt lon="34.864382995292544" lat="31.727461935952306">
        <ele>169.1999969482422</ele>
        <time>2016-05-14T05:07:14.000Z</time>
      </trkpt>
      <trkpt lon="34.86443898640573" lat="31.72738892957568">
        <ele>169.0</ele>
        <time>2016-05-14T05:07:16.000Z</time>
      </trkpt>
      <trkpt lon="34.86461894586682" lat="31.72721492126584">
        <ele>169.1999969482422</ele>
        <time>2016-05-14T05:07:21.000Z</time>
      </trkpt>
      <trkpt lon="34.864683989435434" lat="31.727137975394726">
        <ele>169.39999389648438</ele>
        <time>2016-05-14T05:07:23.000Z</time>
      </trkpt>
      <trkpt lon="34.86487098969519" lat="31.726972935721278">
        <ele>170.1999969482422</ele>
        <time>2016-05-14T05:07:29.000Z</time>
      </trkpt>
      <trkpt lon="34.864987917244434" lat="31.72686497680843">
        <ele>171.0</ele>
        <time>2016-05-14T05:07:34.000Z</time>
      </trkpt>
      <trkpt lon="34.86499294638634" lat="31.726842932403088">
        <ele>171.0</ele>
        <time>2016-05-14T05:07:35.000Z</time>
      </trkpt>
      <trkpt lon="34.86503996886313" lat="31.72673597931862">
        <ele>171.8000030517578</ele>
        <time>2016-05-14T05:07:41.000Z</time>
      </trkpt>
      <trkpt lon="34.86508891917765" lat="31.726622991263866">
        <ele>172.1999969482422</ele>
        <time>2016-05-14T05:07:45.000Z</time>
      </trkpt>
      <trkpt lon="34.86510291695595" lat="31.726597929373384">
        <ele>172.1999969482422</ele>
        <time>2016-05-14T05:07:46.000Z</time>
      </trkpt>
      <trkpt lon="34.86516494303942" lat="31.726428950205445">
        <ele>172.39999389648438</ele>
        <time>2016-05-14T05:07:52.000Z</time>
      </trkpt>
      <trkpt lon="34.86518899910152" lat="31.72631294466555">
        <ele>172.0</ele>
        <time>2016-05-14T05:07:56.000Z</time>
      </trkpt>
      <trkpt lon="34.865198973566294" lat="31.726276986300945">
        <ele>171.8000030517578</ele>
        <time>2016-05-14T05:07:57.000Z</time>
      </trkpt>
      <trkpt lon="34.865311961621046" lat="31.72613591887057">
        <ele>171.8000030517578</ele>
        <time>2016-05-14T05:08:03.000Z</time>
      </trkpt>
      <trkpt lon="34.8653229419142" lat="31.72605193220079">
        <ele>171.8000030517578</ele>
        <time>2016-05-14T05:08:06.000Z</time>
      </trkpt>
      <trkpt lon="34.865415981039405" lat="31.725896950811148">
        <ele>171.0</ele>
        <time>2016-05-14T05:08:11.000Z</time>
      </trkpt>
      <trkpt lon="34.86553793773055" lat="31.72579192556441">
        <ele>171.1999969482422</ele>
        <time>2016-05-14T05:08:16.000Z</time>
      </trkpt>
      <trkpt lon="34.86559996381402" lat="31.725701987743378">
        <ele>171.1999969482422</ele>
        <time>2016-05-14T05:08:19.000Z</time>
      </trkpt>
      <trkpt lon="34.86574497073889" lat="31.725595956668258">
        <ele>170.39999389648438</ele>
        <time>2016-05-14T05:08:23.000Z</time>
      </trkpt>
      <trkpt lon="34.8657859582454" lat="31.72558195888996">
        <ele>170.39999389648438</ele>
        <time>2016-05-14T05:08:24.000Z</time>
      </trkpt>
      <trkpt lon="34.86585192382336" lat="31.725498978048563">
        <ele>170.1999969482422</ele>
        <time>2016-05-14T05:08:27.000Z</time>
      </trkpt>
      <trkpt lon="34.86602492630482" lat="31.725481962785125">
        <ele>170.39999389648438</ele>
        <time>2016-05-14T05:08:32.000Z</time>
      </trkpt>
      <trkpt lon="34.866122994571924" lat="31.725417925044894">
        <ele>170.1999969482422</ele>
        <time>2016-05-14T05:08:36.000Z</time>
      </trkpt>
      <trkpt lon="34.8661189712584" lat="31.725315917283297">
        <ele>169.1999969482422</ele>
        <time>2016-05-14T05:08:39.000Z</time>
      </trkpt>
      <trkpt lon="34.866233970969915" lat="31.72529999166727">
        <ele>168.39999389648438</ele>
        <time>2016-05-14T05:08:42.000Z</time>
      </trkpt>
      <trkpt lon="34.86628292128444" lat="31.725307954475284">
        <ele>168.39999389648438</ele>
        <time>2016-05-14T05:08:43.000Z</time>
      </trkpt>
      <trkpt lon="34.866512920707464" lat="31.725285993888974">
        <ele>168.1999969482422</ele>
        <time>2016-05-14T05:08:48.000Z</time>
      </trkpt>
      <trkpt lon="34.86656396649778" lat="31.725284988060594">
        <ele>167.8000030517578</ele>
        <time>2016-05-14T05:08:49.000Z</time>
      </trkpt>
      <trkpt lon="34.86680695787072" lat="31.725333938375115">
        <ele>167.39999389648438</ele>
        <time>2016-05-14T05:08:54.000Z</time>
      </trkpt>
      <trkpt lon="34.867008961737156" lat="31.725445920601487">
        <ele>167.39999389648438</ele>
        <time>2016-05-14T05:08:59.000Z</time>
      </trkpt>
      <trkpt lon="34.86704098060727" lat="31.72547299414873">
        <ele>167.39999389648438</ele>
        <time>2016-05-14T05:09:00.000Z</time>
      </trkpt>
      <trkpt lon="34.86716595478356" lat="31.725636944174767">
        <ele>168.0</ele>
        <time>2016-05-14T05:09:05.000Z</time>
      </trkpt>
      <trkpt lon="34.86726092174649" lat="31.725655971094966">
        <ele>167.8000030517578</ele>
        <time>2016-05-14T05:09:07.000Z</time>
      </trkpt>
      <trkpt lon="34.86742696724832" lat="31.725774994120002">
        <ele>166.60000610351562</ele>
        <time>2016-05-14T05:09:11.000Z</time>
      </trkpt>
      <trkpt lon="34.86754892393947" lat="31.725916983559728">
        <ele>166.39999389648438</ele>
        <time>2016-05-14T05:09:15.000Z</time>
      </trkpt>
      <trkpt lon="34.867627965286374" lat="31.72607598826289">
        <ele>166.60000610351562</ele>
        <time>2016-05-14T05:09:19.000Z</time>
      </trkpt>
      <trkpt lon="34.86772796139121" lat="31.726277992129326">
        <ele>167.1999969482422</ele>
        <time>2016-05-14T05:09:25.000Z</time>
      </trkpt>
      <trkpt lon="34.867800967767835" lat="31.726385951042175">
        <ele>167.0</ele>
        <time>2016-05-14T05:09:29.000Z</time>
      </trkpt>
      <trkpt lon="34.86781295388937" lat="31.72641897574067">
        <ele>167.0</ele>
        <time>2016-05-14T05:09:30.000Z</time>
      </trkpt>
      <trkpt lon="34.867889983579516" lat="31.726517966017127">
        <ele>166.1999969482422</ele>
        <time>2016-05-14T05:09:35.000Z</time>
      </trkpt>
      <trkpt lon="34.867929965257645" lat="31.726623997092247">
        <ele>166.39999389648438</ele>
        <time>2016-05-14T05:09:39.000Z</time>
      </trkpt>
      <trkpt lon="34.86798595637083" lat="31.726713934913278">
        <ele>166.1999969482422</ele>
        <time>2016-05-14T05:09:42.000Z</time>
      </trkpt>
      <trkpt lon="34.868038929998875" lat="31.72682692296803">
        <ele>165.60000610351562</ele>
        <time>2016-05-14T05:09:45.000Z</time>
      </trkpt>
      <trkpt lon="34.868080923333764" lat="31.727046947926283">
        <ele>165.1999969482422</ele>
        <time>2016-05-14T05:09:51.000Z</time>
      </trkpt>
      <trkpt lon="34.86809098161757" lat="31.72707997262478">
        <ele>165.0</ele>
        <time>2016-05-14T05:09:52.000Z</time>
      </trkpt>
      <trkpt lon="34.86824294552207" lat="31.727139987051487">
        <ele>163.60000610351562</ele>
        <time>2016-05-14T05:09:56.000Z</time>
      </trkpt>
      <trkpt lon="34.868317963555455" lat="31.727164965122938">
        <ele>163.0</ele>
        <time>2016-05-14T05:09:58.000Z</time>
      </trkpt>
      <trkpt lon="34.86859096214175" lat="31.727200923487544">
        <ele>163.1999969482422</ele>
        <time>2016-05-14T05:10:05.000Z</time>
      </trkpt>
      <trkpt lon="34.86884694546461" lat="31.72716597095132">
        <ele>163.60000610351562</ele>
        <time>2016-05-14T05:10:11.000Z</time>
      </trkpt>
      <trkpt lon="34.86895297653973" lat="31.72714593820274">
        <ele>163.8000030517578</ele>
        <time>2016-05-14T05:10:14.000Z</time>
      </trkpt>
      <trkpt lon="34.869175935164094" lat="31.72716798260808">
        <ele>164.0</ele>
        <time>2016-05-14T05:10:19.000Z</time>
      </trkpt>
      <trkpt lon="34.86940995790064" lat="31.727239983156323">
        <ele>165.1999969482422</ele>
        <time>2016-05-14T05:10:25.000Z</time>
      </trkpt>
      <trkpt lon="34.86947198398411" lat="31.727272924035788">
        <ele>165.8000030517578</ele>
        <time>2016-05-14T05:10:27.000Z</time>
      </trkpt>
      <trkpt lon="34.86957198008895" lat="31.72723394818604">
        <ele>167.0</ele>
        <time>2016-05-14T05:10:31.000Z</time>
      </trkpt>
      <trkpt lon="34.86959494650364" lat="31.727134957909584">
        <ele>167.0</ele>
        <time>2016-05-14T05:10:34.000Z</time>
      </trkpt>
      <trkpt lon="34.869522945955396" lat="31.726986933499575">
        <ele>167.8000030517578</ele>
        <time>2016-05-14T05:10:39.000Z</time>
      </trkpt>
      <trkpt lon="34.86947298981249" lat="31.72686698846519">
        <ele>168.39999389648438</ele>
        <time>2016-05-14T05:10:43.000Z</time>
      </trkpt>
      <trkpt lon="34.86943292431533" lat="31.72665299847722">
        <ele>169.39999389648438</ele>
        <time>2016-05-14T05:10:49.000Z</time>
      </trkpt>
      <trkpt lon="34.869390930980444" lat="31.726497933268547">
        <ele>169.8000030517578</ele>
        <time>2016-05-14T05:10:53.000Z</time>
      </trkpt>
      <trkpt lon="34.86925397068262" lat="31.726319985464215">
        <ele>169.0</ele>
        <time>2016-05-14T05:10:58.000Z</time>
      </trkpt>
      <trkpt lon="34.86922496929765" lat="31.726282937452197">
        <ele>168.8000030517578</ele>
        <time>2016-05-14T05:10:59.000Z</time>
      </trkpt>
      <trkpt lon="34.86918297596276" lat="31.726130973547697">
        <ele>167.60000610351562</ele>
        <time>2016-05-14T05:11:04.000Z</time>
      </trkpt>
      <trkpt lon="34.86920895986259" lat="31.7260099388659">
        <ele>167.60000610351562</ele>
        <time>2016-05-14T05:11:09.000Z</time>
      </trkpt>
      <trkpt lon="34.86921591684222" lat="31.725962916389108">
        <ele>167.8000030517578</ele>
        <time>2016-05-14T05:11:11.000Z</time>
      </trkpt>
      <trkpt lon="34.86921499483287" lat="31.725843977183104">
        <ele>167.0</ele>
        <time>2016-05-14T05:11:16.000Z</time>
      </trkpt>
      <trkpt lon="34.86921591684222" lat="31.725756973028183">
        <ele>167.0</ele>
        <time>2016-05-14T05:11:21.000Z</time>
      </trkpt>
      <trkpt lon="34.869132936000824" lat="31.725698970258236">
        <ele>166.1999969482422</ele>
        <time>2016-05-14T05:11:25.000Z</time>
      </trkpt>
      <trkpt lon="34.869068982079625" lat="31.72561699524522">
        <ele>164.8000030517578</ele>
        <time>2016-05-14T05:11:29.000Z</time>
      </trkpt>
      <trkpt lon="34.86905791796744" lat="31.725587993860245">
        <ele>164.39999389648438</ele>
        <time>2016-05-14T05:11:30.000Z</time>
      </trkpt>
      <trkpt lon="34.869049955159426" lat="31.725560920313">
        <ele>163.60000610351562</ele>
        <time>2016-05-14T05:11:35.000Z</time>
      </trkpt>
      <trkpt lon="34.869047943502665" lat="31.725499983876944">
        <ele>163.60000610351562</ele>
        <time>2016-05-14T05:11:55.000Z</time>
      </trkpt>
      <trkpt lon="34.869006955996156" lat="31.725454973056912">
        <ele>164.1999969482422</ele>
        <time>2016-05-14T05:11:58.000Z</time>
      </trkpt>
      <trkpt lon="34.86899195238948" lat="31.72534693032503">
        <ele>165.60000610351562</ele>
        <time>2016-05-14T05:12:03.000Z</time>
      </trkpt>
      <trkpt lon="34.86894995905459" lat="31.72525296919048">
        <ele>167.0</ele>
        <time>2016-05-14T05:12:08.000Z</time>
      </trkpt>
      <trkpt lon="34.86888298764825" lat="31.725132940337062">
        <ele>167.39999389648438</ele>
        <time>2016-05-14T05:12:15.000Z</time>
      </trkpt>
      <trkpt lon="34.86885993741453" lat="31.725026993080974">
        <ele>167.8000030517578</ele>
        <time>2016-05-14T05:12:19.000Z</time>
      </trkpt>
      <trkpt lon="34.86875994130969" lat="31.724816942587495">
        <ele>168.39999389648438</ele>
        <time>2016-05-14T05:12:27.000Z</time>
      </trkpt>
      <trkpt lon="34.868663968518376" lat="31.72476296313107">
        <ele>168.39999389648438</ele>
        <time>2016-05-14T05:12:31.000Z</time>
      </trkpt>
      <trkpt lon="34.86859096214175" lat="31.724647963419557">
        <ele>168.8000030517578</ele>
        <time>2016-05-14T05:12:37.000Z</time>
      </trkpt>
      <trkpt lon="34.86854896880686" lat="31.724595995619893">
        <ele>169.0</ele>
        <time>2016-05-14T05:12:39.000Z</time>
      </trkpt>
      <trkpt lon="34.86849599517882" lat="31.724430955946445">
        <ele>169.39999389648438</ele>
        <time>2016-05-14T05:12:45.000Z</time>
      </trkpt>
      <trkpt lon="34.868444949388504" lat="31.72429097816348">
        <ele>169.60000610351562</ele>
        <time>2016-05-14T05:12:50.000Z</time>
      </trkpt>
      <trkpt lon="34.86839692108333" lat="31.724207997322083">
        <ele>169.60000610351562</ele>
        <time>2016-05-14T05:12:53.000Z</time>
      </trkpt>
      <trkpt lon="34.868316957727075" lat="31.724104983732104">
        <ele>169.39999389648438</ele>
        <time>2016-05-14T05:12:57.000Z</time>
      </trkpt>
      <trkpt lon="34.86826993525028" lat="31.72398998402059">
        <ele>169.8000030517578</ele>
        <time>2016-05-14T05:13:01.000Z</time>
      </trkpt>
      <trkpt lon="34.86815594136715" lat="31.72387992963195">
        <ele>168.8000030517578</ele>
        <time>2016-05-14T05:13:05.000Z</time>
      </trkpt>
      <trkpt lon="34.86811797134578" lat="31.723766941577196">
        <ele>168.60000610351562</ele>
        <time>2016-05-14T05:13:09.000Z</time>
      </trkpt>
      <trkpt lon="34.86794295720756" lat="31.723683960735798">
        <ele>167.60000610351562</ele>
        <time>2016-05-14T05:13:14.000Z</time>
      </trkpt>
      <trkpt lon="34.867912949994206" lat="31.72366694547236">
        <ele>167.39999389648438</ele>
        <time>2016-05-14T05:13:15.000Z</time>
      </trkpt>
      <trkpt lon="34.867906998842955" lat="31.723489919677377">
        <ele>166.8000030517578</ele>
        <time>2016-05-14T05:13:21.000Z</time>
      </trkpt>
      <trkpt lon="34.86787891946733" lat="31.723418924957514">
        <ele>166.8000030517578</ele>
        <time>2016-05-14T05:13:24.000Z</time>
      </trkpt>
      <trkpt lon="34.86788294278085" lat="31.723332926630974">
        <ele>167.1999969482422</ele>
        <time>2016-05-14T05:13:28.000Z</time>
      </trkpt>
      <trkpt lon="34.8678909894079" lat="31.723264949396253">
        <ele>167.1999969482422</ele>
        <time>2016-05-14T05:13:32.000Z</time>
      </trkpt>
      <trkpt lon="34.86789694055915" lat="31.723251957446337">
        <ele>167.1999969482422</ele>
        <time>2016-05-14T05:13:34.000Z</time>
      </trkpt>
      <trkpt lon="34.86790196970105" lat="31.72317593358457">
        <ele>167.1999969482422</ele>
        <time>2016-05-14T05:13:38.000Z</time>
      </trkpt>
      <trkpt lon="34.86792594194412" lat="31.723080966621637">
        <ele>167.60000610351562</ele>
        <time>2016-05-14T05:13:44.000Z</time>
      </trkpt>
      <trkpt lon="34.86789492890239" lat="31.723016928881407">
        <ele>166.8000030517578</ele>
        <time>2016-05-14T05:13:48.000Z</time>
      </trkpt>
      <trkpt lon="34.86791797913611" lat="31.722889943048358">
        <ele>166.8000030517578</ele>
        <time>2016-05-14T05:13:53.000Z</time>
      </trkpt>
      <trkpt lon="34.86793993972242" lat="31.722840992733836">
        <ele>167.1999969482422</ele>
        <time>2016-05-14T05:13:55.000Z</time>
      </trkpt>
      <trkpt lon="34.86791596747935" lat="31.722730938345194">
        <ele>166.60000610351562</ele>
        <time>2016-05-14T05:14:00.000Z</time>
      </trkpt>
      <trkpt lon="34.86792795360088" lat="31.722621973603964">
        <ele>166.0</ele>
        <time>2016-05-14T05:14:04.000Z</time>
      </trkpt>
      <trkpt lon="34.86793893389404" lat="31.722542932257056">
        <ele>165.60000610351562</ele>
        <time>2016-05-14T05:14:07.000Z</time>
      </trkpt>
      <trkpt lon="34.867954943329096" lat="31.722453916445374">
        <ele>165.0</ele>
        <time>2016-05-14T05:14:11.000Z</time>
      </trkpt>
      <trkpt lon="34.86796994693577" lat="31.722434973344207">
        <ele>165.0</ele>
        <time>2016-05-14T05:14:12.000Z</time>
      </trkpt>
      <trkpt lon="34.868081929162145" lat="31.722274962812662">
        <ele>165.0</ele>
        <time>2016-05-14T05:14:18.000Z</time>
      </trkpt>
      <trkpt lon="34.86817496828735" lat="31.72218292951584">
        <ele>165.39999389648438</ele>
        <time>2016-05-14T05:14:22.000Z</time>
      </trkpt>
      <trkpt lon="34.8682829272002" lat="31.722127944231033">
        <ele>166.39999389648438</ele>
        <time>2016-05-14T05:14:26.000Z</time>
      </trkpt>
      <trkpt lon="34.868341935798526" lat="31.72196793369949">
        <ele>167.0</ele>
        <time>2016-05-14T05:14:32.000Z</time>
      </trkpt>
      <trkpt lon="34.86841795966029" lat="31.72185896895826">
        <ele>165.8000030517578</ele>
        <time>2016-05-14T05:14:36.000Z</time>
      </trkpt>
      <trkpt lon="34.868448972702026" lat="31.721803983673453">
        <ele>165.39999389648438</ele>
        <time>2016-05-14T05:14:38.000Z</time>
      </trkpt>
      <trkpt lon="34.86837395466864" lat="31.72169191762805">
        <ele>165.0</ele>
        <time>2016-05-14T05:14:42.000Z</time>
      </trkpt>
      <trkpt lon="34.868169939145446" lat="31.721531990915537">
        <ele>164.60000610351562</ele>
        <time>2016-05-14T05:14:48.000Z</time>
      </trkpt>
      <trkpt lon="34.86815292388201" lat="31.721512963995337">
        <ele>164.60000610351562</ele>
        <time>2016-05-14T05:14:53.000Z</time>
      </trkpt>
      <trkpt lon="34.86811998300254" lat="31.721320934593678">
        <ele>164.8000030517578</ele>
        <time>2016-05-14T05:16:17.000Z</time>
      </trkpt>
      <trkpt lon="34.868057956919074" lat="31.721222950145602">
        <ele>165.39999389648438</ele>
        <time>2016-05-14T05:16:23.000Z</time>
      </trkpt>
      <trkpt lon="34.86798193305731" lat="31.721142986789346">
        <ele>165.1999969482422</ele>
        <time>2016-05-14T05:16:27.000Z</time>
      </trkpt>
      <trkpt lon="34.86794396303594" lat="31.721027987077832">
        <ele>165.1999969482422</ele>
        <time>2016-05-14T05:16:31.000Z</time>
      </trkpt>
      <trkpt lon="34.86785192973912" lat="31.720817936584353">
        <ele>164.8000030517578</ele>
        <time>2016-05-14T05:16:37.000Z</time>
      </trkpt>
      <trkpt lon="34.86778596416116" lat="31.720644934102893">
        <ele>164.39999389648438</ele>
        <time>2016-05-14T05:16:42.000Z</time>
      </trkpt>
      <trkpt lon="34.86775193363428" lat="31.72056999988854">
        <ele>164.1999969482422</ele>
        <time>2016-05-14T05:16:44.000Z</time>
      </trkpt>
      <trkpt lon="34.867740953341126" lat="31.720411917194724">
        <ele>164.39999389648438</ele>
        <time>2016-05-14T05:16:49.000Z</time>
      </trkpt>
      <trkpt lon="34.867714969441295" lat="31.72033497132361">
        <ele>164.39999389648438</ele>
        <time>2016-05-14T05:16:51.000Z</time>
      </trkpt>
      <trkpt lon="34.867713963612914" lat="31.720096925273538">
        <ele>164.60000610351562</ele>
        <time>2016-05-14T05:16:58.000Z</time>
      </trkpt>
      <trkpt lon="34.86772796139121" lat="31.71990799717605">
        <ele>164.60000610351562</ele>
        <time>2016-05-14T05:17:03.000Z</time>
      </trkpt>
      <trkpt lon="34.86778596416116" lat="31.719740945845842">
        <ele>165.60000610351562</ele>
        <time>2016-05-14T05:17:08.000Z</time>
      </trkpt>
      <trkpt lon="34.86779895611107" lat="31.71971194446087">
        <ele>165.8000030517578</ele>
        <time>2016-05-14T05:17:09.000Z</time>
      </trkpt>
      <trkpt lon="34.867824940010905" lat="31.71954095363617">
        <ele>166.39999389648438</ele>
        <time>2016-05-14T05:17:14.000Z</time>
      </trkpt>
      <trkpt lon="34.867844972759485" lat="31.719467947259545">
        <ele>167.0</ele>
        <time>2016-05-14T05:17:17.000Z</time>
      </trkpt>
      <trkpt lon="34.8678579647094" lat="31.71941195614636">
        <ele>167.8000030517578</ele>
        <time>2016-05-14T05:17:19.000Z</time>
      </trkpt>
      <trkpt lon="34.86790096387267" lat="31.71930299140513">
        <ele>169.60000610351562</ele>
        <time>2016-05-14T05:17:24.000Z</time>
      </trkpt>
      <trkpt lon="34.867911944165826" lat="31.71925999224186">
        <ele>170.0</ele>
        <time>2016-05-14T05:17:26.000Z</time>
      </trkpt>
      <trkpt lon="34.86790498718619" lat="31.719127977266908">
        <ele>171.1999969482422</ele>
        <time>2016-05-14T05:17:31.000Z</time>
      </trkpt>
      <trkpt lon="34.86789995804429" lat="31.719101993367076">
        <ele>171.1999969482422</ele>
        <time>2016-05-14T05:17:32.000Z</time>
      </trkpt>
      <trkpt lon="34.867906998842955" lat="31.718967966735363">
        <ele>172.1999969482422</ele>
        <time>2016-05-14T05:17:38.000Z</time>
      </trkpt>
      <trkpt lon="34.8678909894079" lat="31.718799993395805">
        <ele>173.1999969482422</ele>
        <time>2016-05-14T05:17:45.000Z</time>
      </trkpt>
      <trkpt lon="34.867842961102724" lat="31.718673929572105">
        <ele>173.39999389648438</ele>
        <time>2016-05-14T05:17:50.000Z</time>
      </trkpt>
      <trkpt lon="34.86778495833278" lat="31.718528922647238">
        <ele>174.0</ele>
        <time>2016-05-14T05:17:55.000Z</time>
      </trkpt>
      <trkpt lon="34.8677509278059" lat="31.718347957357764">
        <ele>174.60000610351562</ele>
        <time>2016-05-14T05:18:01.000Z</time>
      </trkpt>
      <trkpt lon="34.86774296499789" lat="31.718277968466282">
        <ele>175.8000030517578</ele>
        <time>2016-05-14T05:18:04.000Z</time>
      </trkpt>
      <trkpt lon="34.86770994029939" lat="31.718176966533065">
        <ele>176.8000030517578</ele>
        <time>2016-05-14T05:18:09.000Z</time>
      </trkpt>
      <trkpt lon="34.867697954177856" lat="31.71806096099317">
        <ele>177.60000610351562</ele>
        <time>2016-05-14T05:18:16.000Z</time>
      </trkpt>
      <trkpt lon="34.86769896000624" lat="31.718045957386494">
        <ele>177.8000030517578</ele>
        <time>2016-05-14T05:18:17.000Z</time>
      </trkpt>
      <trkpt lon="34.86765998415649" lat="31.71797596849501">
        <ele>177.8000030517578</ele>
        <time>2016-05-14T05:18:21.000Z</time>
      </trkpt>
      <trkpt lon="34.86766098998487" lat="31.717913942411542">
        <ele>177.8000030517578</ele>
        <time>2016-05-14T05:18:24.000Z</time>
      </trkpt>
      <trkpt lon="34.86774899996817" lat="31.717896927148104">
        <ele>179.39999389648438</ele>
        <time>2016-05-14T05:18:30.000Z</time>
      </trkpt>
      <trkpt lon="34.86783592030406" lat="31.717921989038587">
        <ele>180.1999969482422</ele>
        <time>2016-05-14T05:18:34.000Z</time>
      </trkpt>
      <trkpt lon="34.86788193695247" lat="31.7179299518466">
        <ele>180.8000030517578</ele>
        <time>2016-05-14T05:18:36.000Z</time>
      </trkpt>
      <trkpt lon="34.867973970249295" lat="31.717956941574812">
        <ele>182.0</ele>
        <time>2016-05-14T05:18:41.000Z</time>
      </trkpt>
      <trkpt lon="34.86799098551273" lat="31.717940932139754">
        <ele>182.39999389648438</ele>
        <time>2016-05-14T05:18:42.000Z</time>
      </trkpt>
      <trkpt lon="34.86802199855447" lat="31.717897932976484">
        <ele>183.1999969482422</ele>
        <time>2016-05-14T05:18:48.000Z</time>
      </trkpt>
      <trkpt lon="34.868060974404216" lat="31.717804977670312">
        <ele>183.39999389648438</ele>
        <time>2016-05-14T05:21:07.000Z</time>
      </trkpt>
      <trkpt lon="34.868121994659305" lat="31.717703975737095">
        <ele>183.8000030517578</ele>
        <time>2016-05-14T05:21:12.000Z</time>
      </trkpt>
      <trkpt lon="34.86807698383927" lat="31.71758897602558">
        <ele>184.1999969482422</ele>
        <time>2016-05-14T05:21:17.000Z</time>
      </trkpt>
      <trkpt lon="34.86805594526231" lat="31.71752493828535">
        <ele>184.0</ele>
        <time>2016-05-14T05:21:19.000Z</time>
      </trkpt>
      <trkpt lon="34.86800095997751" lat="31.717463918030262">
        <ele>183.60000610351562</ele>
        <time>2016-05-14T05:21:21.000Z</time>
      </trkpt>
      <trkpt lon="34.86793692223728" lat="31.71728798188269">
        <ele>182.39999389648438</ele>
        <time>2016-05-14T05:21:25.000Z</time>
      </trkpt>
      <trkpt lon="34.86794698052108" lat="31.71724297106266">
        <ele>182.39999389648438</ele>
        <time>2016-05-14T05:21:26.000Z</time>
      </trkpt>
      <trkpt lon="34.867952931672335" lat="31.717050941661">
        <ele>182.0</ele>
        <time>2016-05-14T05:21:31.000Z</time>
      </trkpt>
      <trkpt lon="34.86795695498586" lat="31.71696695499122">
        <ele>181.60000610351562</ele>
        <time>2016-05-14T05:21:33.000Z</time>
      </trkpt>
      <trkpt lon="34.86811093054712" lat="31.716823959723115">
        <ele>181.1999969482422</ele>
        <time>2016-05-14T05:21:38.000Z</time>
      </trkpt>
      <trkpt lon="34.86816298216581" lat="31.71670493669808">
        <ele>181.60000610351562</ele>
        <time>2016-05-14T05:21:42.000Z</time>
      </trkpt>
      <trkpt lon="34.868040941655636" lat="31.71668297611177">
        <ele>181.1999969482422</ele>
        <time>2016-05-14T05:21:45.000Z</time>
      </trkpt>
      <trkpt lon="34.867971958592534" lat="31.716607958078384">
        <ele>180.0</ele>
        <time>2016-05-14T05:21:48.000Z</time>
      </trkpt>
      <trkpt lon="34.868038929998875" lat="31.716505950316787">
        <ele>179.39999389648438</ele>
        <time>2016-05-14T05:21:51.000Z</time>
      </trkpt>
      <trkpt lon="34.86805393360555" lat="31.716335965320468">
        <ele>179.0</ele>
        <time>2016-05-14T05:21:55.000Z</time>
      </trkpt>
      <trkpt lon="34.868143955245614" lat="31.716261953115463">
        <ele>178.60000610351562</ele>
        <time>2016-05-14T05:21:58.000Z</time>
      </trkpt>
      <trkpt lon="34.86818293109536" lat="31.71621493063867">
        <ele>178.60000610351562</ele>
        <time>2016-05-14T05:22:00.000Z</time>
      </trkpt>
      <trkpt lon="34.86817396245897" lat="31.716180983930826">
        <ele>178.60000610351562</ele>
        <time>2016-05-14T05:22:01.000Z</time>
      </trkpt>
      <trkpt lon="34.86805393360555" lat="31.716095991432667">
        <ele>178.0</ele>
        <time>2016-05-14T05:22:05.000Z</time>
      </trkpt>
      <trkpt lon="34.86796994693577" lat="31.716069923713803">
        <ele>177.8000030517578</ele>
        <time>2016-05-14T05:22:07.000Z</time>
      </trkpt>
      <trkpt lon="34.867995930835605" lat="31.716001946479082">
        <ele>177.39999389648438</ele>
        <time>2016-05-14T05:22:09.000Z</time>
      </trkpt>
      <trkpt lon="34.86800397746265" lat="31.715915948152542">
        <ele>176.8000030517578</ele>
        <time>2016-05-14T05:22:12.000Z</time>
      </trkpt>
      <trkpt lon="34.86787296831608" lat="31.715937992557883">
        <ele>176.0</ele>
        <time>2016-05-14T05:22:15.000Z</time>
      </trkpt>
      <trkpt lon="34.86770994029939" lat="31.715924916788936">
        <ele>175.60000610351562</ele>
        <time>2016-05-14T05:22:19.000Z</time>
      </trkpt>
      <trkpt lon="34.86776299774647" lat="31.715840930119157">
        <ele>175.39999389648438</ele>
        <time>2016-05-14T05:22:21.000Z</time>
      </trkpt>
      <trkpt lon="34.86790297552943" lat="31.715728947892785">
        <ele>175.0</ele>
        <time>2016-05-14T05:22:25.000Z</time>
      </trkpt>
      <trkpt lon="34.86796198412776" lat="31.715597938746214">
        <ele>174.60000610351562</ele>
        <time>2016-05-14T05:22:28.000Z</time>
      </trkpt>
      <trkpt lon="34.86794396303594" lat="31.71548495069146">
        <ele>173.39999389648438</ele>
        <time>2016-05-14T05:22:31.000Z</time>
      </trkpt>
      <trkpt lon="34.86789694055915" lat="31.715470952913165">
        <ele>173.1999969482422</ele>
        <time>2016-05-14T05:22:32.000Z</time>
      </trkpt>
      <trkpt lon="34.86778596416116" lat="31.71546491794288">
        <ele>172.39999389648438</ele>
        <time>2016-05-14T05:22:34.000Z</time>
      </trkpt>
      <trkpt lon="34.86757792532444" lat="31.715424936264753">
        <ele>171.8000030517578</ele>
        <time>2016-05-14T05:22:38.000Z</time>
      </trkpt>
      <trkpt lon="34.86760592088103" lat="31.715320916846395">
        <ele>171.0</ele>
        <time>2016-05-14T05:22:41.000Z</time>
      </trkpt>
      <trkpt lon="34.867758974432945" lat="31.71531094238162">
        <ele>170.39999389648438</ele>
        <time>2016-05-14T05:22:44.000Z</time>
      </trkpt>
      <trkpt lon="34.86791496165097" lat="31.715196948498487">
        <ele>169.8000030517578</ele>
        <time>2016-05-14T05:22:49.000Z</time>
      </trkpt>
      <trkpt lon="34.86782996915281" lat="31.71516291797161">
        <ele>168.60000610351562</ele>
        <time>2016-05-14T05:22:52.000Z</time>
      </trkpt>
      <trkpt lon="34.86762293614447" lat="31.715216981247067">
        <ele>168.60000610351562</ele>
        <time>2016-05-14T05:22:56.000Z</time>
      </trkpt>
      <trkpt lon="34.86738698557019" lat="31.715272972360253">
        <ele>169.39999389648438</ele>
        <time>2016-05-14T05:23:01.000Z</time>
      </trkpt>
      <trkpt lon="34.867288917303085" lat="31.715214969590306">
        <ele>169.39999389648438</ele>
        <time>2016-05-14T05:23:05.000Z</time>
      </trkpt>
      <trkpt lon="34.867415986955166" lat="31.715085972100496">
        <ele>167.8000030517578</ele>
        <time>2016-05-14T05:23:09.000Z</time>
      </trkpt>
      <trkpt lon="34.86767892725766" lat="31.714997962117195">
        <ele>166.1999969482422</ele>
        <time>2016-05-14T05:23:14.000Z</time>
      </trkpt>
      <trkpt lon="34.867651937529445" lat="31.71494197100401">
        <ele>165.60000610351562</ele>
        <time>2016-05-14T05:23:16.000Z</time>
      </trkpt>
      <trkpt lon="34.867524951696396" lat="31.71494599431753">
        <ele>165.1999969482422</ele>
        <time>2016-05-14T05:23:19.000Z</time>
      </trkpt>
      <trkpt lon="34.86747398972511" lat="31.714954962953925">
        <ele>165.1999969482422</ele>
        <time>2016-05-14T05:23:20.000Z</time>
      </trkpt>
      <trkpt lon="34.867265950888395" lat="31.714992932975292">
        <ele>165.1999969482422</ele>
        <time>2016-05-14T05:23:24.000Z</time>
      </trkpt>
      <trkpt lon="34.86706495285034" lat="31.715075997635722">
        <ele>165.8000030517578</ele>
        <time>2016-05-14T05:23:28.000Z</time>
      </trkpt>
      <trkpt lon="34.866876946762204" lat="31.715106926858425">
        <ele>166.0</ele>
        <time>2016-05-14T05:23:32.000Z</time>
      </trkpt>
      <trkpt lon="34.86675792373717" lat="31.715121930465102">
        <ele>165.8000030517578</ele>
        <time>2016-05-14T05:23:35.000Z</time>
      </trkpt>
      <trkpt lon="34.86671693623066" lat="31.715059988200665">
        <ele>164.39999389648438</ele>
        <time>2016-05-14T05:23:39.000Z</time>
      </trkpt>
      <trkpt lon="34.86686898395419" lat="31.715025957673788">
        <ele>164.0</ele>
        <time>2016-05-14T05:23:42.000Z</time>
      </trkpt>
      <trkpt lon="34.86703796312213" lat="31.714957980439067">
        <ele>164.0</ele>
        <time>2016-05-14T05:23:45.000Z</time>
      </trkpt>
      <trkpt lon="34.8673539608717" lat="31.71488296240568">
        <ele>163.39999389648438</ele>
        <time>2016-05-14T05:23:50.000Z</time>
      </trkpt>
      <trkpt lon="34.86761698499322" lat="31.714824959635735">
        <ele>162.8000030517578</ele>
        <time>2016-05-14T05:23:54.000Z</time>
      </trkpt>
      <trkpt lon="34.86774296499789" lat="31.714807944372296">
        <ele>162.60000610351562</ele>
        <time>2016-05-14T05:23:56.000Z</time>
      </trkpt>
      <trkpt lon="34.867994925007224" lat="31.714798975735903">
        <ele>162.39999389648438</ele>
        <time>2016-05-14T05:24:00.000Z</time>
      </trkpt>
      <trkpt lon="34.868213944137096" lat="31.714807944372296">
        <ele>162.1999969482422</ele>
        <time>2016-05-14T05:24:04.000Z</time>
      </trkpt>
      <trkpt lon="34.86847395077348" lat="31.714849937707186">
        <ele>161.8000030517578</ele>
        <time>2016-05-14T05:24:09.000Z</time>
      </trkpt>
      <trkpt lon="34.86865097656846" lat="31.714992932975292">
        <ele>162.39999389648438</ele>
        <time>2016-05-14T05:24:14.000Z</time>
      </trkpt>
      <trkpt lon="34.86864695325494" lat="31.715043978765607">
        <ele>162.8000030517578</ele>
        <time>2016-05-14T05:24:16.000Z</time>
      </trkpt>
      <trkpt lon="34.86863194964826" lat="31.715100975707173">
        <ele>163.8000030517578</ele>
        <time>2016-05-14T05:24:19.000Z</time>
      </trkpt>
      <trkpt lon="34.86876396462321" lat="31.715167947113514">
        <ele>165.1999969482422</ele>
        <time>2016-05-14T05:24:24.000Z</time>
      </trkpt>
      <trkpt lon="34.868813920766115" lat="31.715170964598656">
        <ele>165.1999969482422</ele>
        <time>2016-05-14T05:24:25.000Z</time>
      </trkpt>
      <trkpt lon="34.8689769487828" lat="31.715161995962262">
        <ele>165.1999969482422</ele>
        <time>2016-05-14T05:24:28.000Z</time>
      </trkpt>
      <trkpt lon="34.86919395625591" lat="31.715209940448403">
        <ele>164.0</ele>
        <time>2016-05-14T05:24:33.000Z</time>
      </trkpt>
      <trkpt lon="34.869301998987794" lat="31.71530993655324">
        <ele>164.39999389648438</ele>
        <time>2016-05-14T05:24:37.000Z</time>
      </trkpt>
      <trkpt lon="34.869496962055564" lat="31.715379925444722">
        <ele>164.60000610351562</ele>
        <time>2016-05-14T05:24:42.000Z</time>
      </trkpt>
      <trkpt lon="34.869562927633524" lat="31.71550498344004">
        <ele>164.39999389648438</ele>
        <time>2016-05-14T05:24:46.000Z</time>
      </trkpt>
      <trkpt lon="34.86957198008895" lat="31.715625934302807">
        <ele>165.8000030517578</ele>
        <time>2016-05-14T05:24:50.000Z</time>
      </trkpt>
      <trkpt lon="34.86963392235339" lat="31.71571796759963">
        <ele>166.8000030517578</ele>
        <time>2016-05-14T05:24:55.000Z</time>
      </trkpt>
      <trkpt lon="34.86972293816507" lat="31.715730959549546">
        <ele>166.8000030517578</ele>
        <time>2016-05-14T05:24:58.000Z</time>
      </trkpt>
      <trkpt lon="34.86989594064653" lat="31.7156729567796">
        <ele>165.1999969482422</ele>
        <time>2016-05-14T05:25:02.000Z</time>
      </trkpt>
      <trkpt lon="34.86998395062983" lat="31.715688966214657">
        <ele>164.39999389648438</ele>
        <time>2016-05-14T05:25:04.000Z</time>
      </trkpt>
      <trkpt lon="34.870033990591764" lat="31.715712938457727">
        <ele>164.39999389648438</ele>
        <time>2016-05-14T05:25:06.000Z</time>
      </trkpt>
      <trkpt lon="34.870118983089924" lat="31.715662982314825">
        <ele>164.8000030517578</ele>
        <time>2016-05-14T05:25:10.000Z</time>
      </trkpt>
      <trkpt lon="34.8702669236809" lat="31.71550297178328">
        <ele>164.0</ele>
        <time>2016-05-14T05:25:14.000Z</time>
      </trkpt>
      <trkpt lon="34.87032199278474" lat="31.715472964569926">
        <ele>164.0</ele>
        <time>2016-05-14T05:25:15.000Z</time>
      </trkpt>
      <trkpt lon="34.87060396000743" lat="31.715429965406656">
        <ele>162.39999389648438</ele>
        <time>2016-05-14T05:25:20.000Z</time>
      </trkpt>
      <trkpt lon="34.870678978040814" lat="31.715361988171935">
        <ele>161.60000610351562</ele>
        <time>2016-05-14T05:25:22.000Z</time>
      </trkpt>
      <trkpt lon="34.87077897414565" lat="31.715294932946563">
        <ele>160.60000610351562</ele>
        <time>2016-05-14T05:25:24.000Z</time>
      </trkpt>
      <trkpt lon="34.87095792777836" lat="31.715227961540222">
        <ele>160.0</ele>
        <time>2016-05-14T05:25:27.000Z</time>
      </trkpt>
      <trkpt lon="34.87109899520874" lat="31.71507792547345">
        <ele>158.60000610351562</ele>
        <time>2016-05-14T05:25:31.000Z</time>
      </trkpt>
      <trkpt lon="34.87107795663178" lat="31.714957980439067">
        <ele>158.0</ele>
        <time>2016-05-14T05:25:34.000Z</time>
      </trkpt>
      <trkpt lon="34.871090948581696" lat="31.71486192382872">
        <ele>156.8000030517578</ele>
        <time>2016-05-14T05:25:37.000Z</time>
      </trkpt>
      <trkpt lon="34.87123494967818" lat="31.714717922732234">
        <ele>154.60000610351562</ele>
        <time>2016-05-14T05:25:42.000Z</time>
      </trkpt>
      <trkpt lon="34.871323965489864" lat="31.714584985747933">
        <ele>153.1999969482422</ele>
        <time>2016-05-14T05:25:47.000Z</time>
      </trkpt>
      <trkpt lon="34.87138297408819" lat="31.71455799601972">
        <ele>152.1999969482422</ele>
        <time>2016-05-14T05:25:52.000Z</time>
      </trkpt>
      <trkpt lon="34.871388925239444" lat="31.71453695744276">
        <ele>152.1999969482422</ele>
        <time>2016-05-14T05:26:02.000Z</time>
      </trkpt>
      <trkpt lon="34.871342992410064" lat="31.714483983814716">
        <ele>152.0</ele>
        <time>2016-05-14T05:32:27.000Z</time>
      </trkpt>
      <trkpt lon="34.87135598435998" lat="31.714479960501194">
        <ele>152.0</ele>
        <time>2016-05-14T05:32:31.000Z</time>
      </trkpt>
      <trkpt lon="34.871429996564984" lat="31.714420951902866">
        <ele>151.60000610351562</ele>
        <time>2016-05-14T05:32:37.000Z</time>
      </trkpt>
      <trkpt lon="34.87142597325146" lat="31.71434291638434">
        <ele>151.60000610351562</ele>
        <time>2016-05-14T05:32:41.000Z</time>
      </trkpt>
      <trkpt lon="34.87152697518468" lat="31.714273933321238">
        <ele>151.60000610351562</ele>
        <time>2016-05-14T05:32:47.000Z</time>
      </trkpt>
      <trkpt lon="34.87172596156597" lat="31.714181983843446">
        <ele>151.39999389648438</ele>
        <time>2016-05-14T05:32:52.000Z</time>
      </trkpt>
      <trkpt lon="34.87199896015227" lat="31.714035971090198">
        <ele>152.0</ele>
        <time>2016-05-14T05:32:59.000Z</time>
      </trkpt>
      <trkpt lon="34.87213592045009" lat="31.713966988027096">
        <ele>152.60000610351562</ele>
        <time>2016-05-14T05:33:03.000Z</time>
      </trkpt>
      <trkpt lon="34.87224295735359" lat="31.713984925299883">
        <ele>153.39999389648438</ele>
        <time>2016-05-14T05:33:07.000Z</time>
      </trkpt>
      <trkpt lon="34.87236399203539" lat="31.714093973860145">
        <ele>153.60000610351562</ele>
        <time>2016-05-14T05:33:12.000Z</time>
      </trkpt>
      <trkpt lon="34.87242895178497" lat="31.714144935831428">
        <ele>153.60000610351562</ele>
        <time>2016-05-14T05:33:14.000Z</time>
      </trkpt>
      <trkpt lon="34.87249994650483" lat="31.714315926656127">
        <ele>154.8000030517578</ele>
        <time>2016-05-14T05:33:19.000Z</time>
      </trkpt>
      <trkpt lon="34.87267496064305" lat="31.714465962722898">
        <ele>155.0</ele>
        <time>2016-05-14T05:33:25.000Z</time>
      </trkpt>
      <trkpt lon="34.87279197201133" lat="31.714507956057787">
        <ele>155.1999969482422</ele>
        <time>2016-05-14T05:33:29.000Z</time>
      </trkpt>
      <trkpt lon="34.872829942032695" lat="31.714567970484495">
        <ele>155.1999969482422</ele>
        <time>2016-05-14T05:33:31.000Z</time>
      </trkpt>
      <trkpt lon="34.8729229811579" lat="31.714915987104177">
        <ele>157.0</ele>
        <time>2016-05-14T05:33:39.000Z</time>
      </trkpt>
      <trkpt lon="34.87307695671916" lat="31.715232990682125">
        <ele>157.39999389648438</ele>
        <time>2016-05-14T05:33:46.000Z</time>
      </trkpt>
      <trkpt lon="34.873107969760895" lat="31.71541496179998">
        <ele>157.60000610351562</ele>
        <time>2016-05-14T05:33:50.000Z</time>
      </trkpt>
      <trkpt lon="34.8731819819659" lat="31.71558695845306">
        <ele>157.39999389648438</ele>
        <time>2016-05-14T05:33:54.000Z</time>
      </trkpt>
      <trkpt lon="34.87330796197057" lat="31.715721990913153">
        <ele>158.60000610351562</ele>
        <time>2016-05-14T05:33:58.000Z</time>
      </trkpt>
      <trkpt lon="34.8733389750123" lat="31.715751998126507">
        <ele>159.0</ele>
        <time>2016-05-14T05:33:59.000Z</time>
      </trkpt>
      <trkpt lon="34.87339396029711" lat="31.71580195426941">
        <ele>159.60000610351562</ele>
        <time>2016-05-14T05:34:01.000Z</time>
      </trkpt>
      <trkpt lon="34.873409969732165" lat="31.715855933725834">
        <ele>160.0</ele>
        <time>2016-05-14T05:34:04.000Z</time>
      </trkpt>
      <trkpt lon="34.87343796528876" lat="31.715881917625666">
        <ele>160.39999389648438</ele>
        <time>2016-05-14T05:34:09.000Z</time>
      </trkpt>
      <trkpt lon="34.8734409827739" lat="31.715880995616317">
        <ele>160.60000610351562</ele>
        <time>2016-05-14T05:34:10.000Z</time>
      </trkpt>
      <trkpt lon="34.87350393086672" lat="31.71588694676757">
        <ele>161.39999389648438</ele>
        <time>2016-05-14T05:34:18.000Z</time>
      </trkpt>
      <trkpt lon="34.87353192642331" lat="31.71589097008109">
        <ele>161.60000610351562</ele>
        <time>2016-05-14T05:34:21.000Z</time>
      </trkpt>
      <trkpt lon="34.87356394529343" lat="31.715962970629334">
        <ele>162.1999969482422</ele>
        <time>2016-05-14T05:34:26.000Z</time>
      </trkpt>
      <trkpt lon="34.873538967221975" lat="31.716108983382583">
        <ele>161.8000030517578</ele>
        <time>2016-05-14T05:34:32.000Z</time>
      </trkpt>
      <trkpt lon="34.8735929466784" lat="31.71619297005236">
        <ele>162.0</ele>
        <time>2016-05-14T05:34:36.000Z</time>
      </trkpt>
      <trkpt lon="34.87367995083332" lat="31.71634392812848">
        <ele>163.0</ele>
        <time>2016-05-14T05:34:43.000Z</time>
      </trkpt>
      <trkpt lon="34.87376997247338" lat="31.716480972245336">
        <ele>163.8000030517578</ele>
        <time>2016-05-14T05:34:49.000Z</time>
      </trkpt>
      <trkpt lon="34.87380593083799" lat="31.71655297279358">
        <ele>164.39999389648438</ele>
        <time>2016-05-14T05:34:53.000Z</time>
      </trkpt>
      <trkpt lon="34.87384993582964" lat="31.716691944748163">
        <ele>164.60000610351562</ele>
        <time>2016-05-14T05:34:59.000Z</time>
      </trkpt>
      <trkpt lon="34.87389092333615" lat="31.716788923367858">
        <ele>164.8000030517578</ele>
        <time>2016-05-14T05:35:03.000Z</time>
      </trkpt>
      <trkpt lon="34.873900981619954" lat="31.716901995241642">
        <ele>164.8000030517578</ele>
        <time>2016-05-14T05:35:07.000Z</time>
      </trkpt>
      <trkpt lon="34.873953955248" lat="31.71707198023796">
        <ele>164.60000610351562</ele>
        <time>2016-05-14T05:35:13.000Z</time>
      </trkpt>
      <trkpt lon="34.87408395856619" lat="31.717215981334448">
        <ele>164.8000030517578</ele>
        <time>2016-05-14T05:35:19.000Z</time>
      </trkpt>
      <trkpt lon="34.87425595521927" lat="31.717314971610904">
        <ele>165.60000610351562</ele>
        <time>2016-05-14T05:35:25.000Z</time>
      </trkpt>
      <trkpt lon="34.874400962144136" lat="31.717505995184183">
        <ele>166.39999389648438</ele>
        <time>2016-05-14T05:35:32.000Z</time>
      </trkpt>
      <trkpt lon="34.87457798793912" lat="31.717741945758462">
        <ele>167.0</ele>
        <time>2016-05-14T05:35:40.000Z</time>
      </trkpt>
      <trkpt lon="34.87477395683527" lat="31.717874966561794">
        <ele>167.39999389648438</ele>
        <time>2016-05-14T05:35:46.000Z</time>
      </trkpt>
      <trkpt lon="34.874870935454965" lat="31.717985942959785">
        <ele>167.8000030517578</ele>
        <time>2016-05-14T05:35:50.000Z</time>
      </trkpt>
      <trkpt lon="34.87498392350972" lat="31.718097925186157">
        <ele>167.8000030517578</ele>
        <time>2016-05-14T05:35:54.000Z</time>
      </trkpt>
      <trkpt lon="34.87515994347632" lat="31.71810496598482">
        <ele>167.8000030517578</ele>
        <time>2016-05-14T05:35:58.000Z</time>
      </trkpt>
      <trkpt lon="34.875253988429904" lat="31.71809993684292">
        <ele>168.0</ele>
        <time>2016-05-14T05:36:00.000Z</time>
      </trkpt>
      <trkpt lon="34.8754149209708" lat="31.718007987365127">
        <ele>169.39999389648438</ele>
        <time>2016-05-14T05:36:05.000Z</time>
      </trkpt>
      <trkpt lon="34.87553394399583" lat="31.718054926022887">
        <ele>170.1999969482422</ele>
        <time>2016-05-14T05:36:08.000Z</time>
      </trkpt>
      <trkpt lon="34.875561939552426" lat="31.71808493323624">
        <ele>170.60000610351562</ele>
        <time>2016-05-14T05:36:09.000Z</time>
      </trkpt>
      <trkpt lon="34.87570191733539" lat="31.718278974294662">
        <ele>171.8000030517578</ele>
        <time>2016-05-14T05:36:15.000Z</time>
      </trkpt>
      <trkpt lon="34.87575497478247" lat="31.718346951529384">
        <ele>172.0</ele>
        <time>2016-05-14T05:36:17.000Z</time>
      </trkpt>
      <trkpt lon="34.875901993364096" lat="31.718452982604504">
        <ele>172.39999389648438</ele>
        <time>2016-05-14T05:36:21.000Z</time>
      </trkpt>
      <trkpt lon="34.876097962260246" lat="31.718559935688972">
        <ele>173.1999969482422</ele>
        <time>2016-05-14T05:36:26.000Z</time>
      </trkpt>
      <trkpt lon="34.876265935599804" lat="31.718691950663924">
        <ele>173.1999969482422</ele>
        <time>2016-05-14T05:36:31.000Z</time>
      </trkpt>
      <trkpt lon="34.87644296139479" lat="31.718651968985796">
        <ele>173.39999389648438</ele>
        <time>2016-05-14T05:36:35.000Z</time>
      </trkpt>
      <trkpt lon="34.87658495083451" lat="31.718520959839225">
        <ele>174.8000030517578</ele>
        <time>2016-05-14T05:36:40.000Z</time>
      </trkpt>
      <trkpt lon="34.876693999394774" lat="31.718348963186145">
        <ele>175.8000030517578</ele>
        <time>2016-05-14T05:36:46.000Z</time>
      </trkpt>
      <trkpt lon="34.87677597440779" lat="31.718287942931056">
        <ele>176.60000610351562</ele>
        <time>2016-05-14T05:36:49.000Z</time>
      </trkpt>
      <trkpt lon="34.87673297524452" lat="31.718199932947755">
        <ele>177.39999389648438</ele>
        <time>2016-05-14T05:36:53.000Z</time>
      </trkpt>
      <trkpt lon="34.87665091641247" lat="31.71816699206829">
        <ele>178.0</ele>
        <time>2016-05-14T05:36:56.000Z</time>
      </trkpt>
      <trkpt lon="34.87654999829829" lat="31.718112928792834">
        <ele>178.39999389648438</ele>
        <time>2016-05-14T05:37:00.000Z</time>
      </trkpt>
      <trkpt lon="34.87645193003118" lat="31.718128938227892">
        <ele>178.1999969482422</ele>
        <time>2016-05-14T05:37:03.000Z</time>
      </trkpt>
      <trkpt lon="34.87633693031967" lat="31.718064984306693">
        <ele>177.8000030517578</ele>
        <time>2016-05-14T05:37:08.000Z</time>
      </trkpt>
      <trkpt lon="34.87631396390498" lat="31.718042939901352">
        <ele>177.8000030517578</ele>
        <time>2016-05-14T05:37:09.000Z</time>
      </trkpt>
      <trkpt lon="34.876335924491286" lat="31.717981919646263">
        <ele>178.0</ele>
        <time>2016-05-14T05:37:12.000Z</time>
      </trkpt>
      <trkpt lon="34.876437932252884" lat="31.717983931303024">
        <ele>178.8000030517578</ele>
        <time>2016-05-14T05:37:16.000Z</time>
      </trkpt>
      <trkpt lon="34.87654899246991" lat="31.717963982373476">
        <ele>179.39999389648438</ele>
        <time>2016-05-14T05:37:20.000Z</time>
      </trkpt>
      <trkpt lon="34.876675978302956" lat="31.717919977381825">
        <ele>180.1999969482422</ele>
        <time>2016-05-14T05:37:24.000Z</time>
      </trkpt>
      <trkpt lon="34.87670699134469" lat="31.71791293658316">
        <ele>180.39999389648438</ele>
        <time>2016-05-14T05:37:25.000Z</time>
      </trkpt>
      <trkpt lon="34.87695895135403" lat="31.717899944633245">
        <ele>181.39999389648438</ele>
        <time>2016-05-14T05:37:32.000Z</time>
      </trkpt>
      <trkpt lon="34.8770569358021" lat="31.717812940478325">
        <ele>182.0</ele>
        <time>2016-05-14T05:37:37.000Z</time>
      </trkpt>
      <trkpt lon="34.87714393995702" lat="31.717727947980165">
        <ele>182.8000030517578</ele>
        <time>2016-05-14T05:37:42.000Z</time>
      </trkpt>
      <trkpt lon="34.87723899073899" lat="31.717682937160134">
        <ele>183.39999389648438</ele>
        <time>2016-05-14T05:37:46.000Z</time>
      </trkpt>
      <trkpt lon="34.87732398323715" lat="31.71754497103393">
        <ele>183.8000030517578</ele>
        <time>2016-05-14T05:37:51.000Z</time>
      </trkpt>
      <trkpt lon="34.8773539904505" lat="31.717331986874342">
        <ele>184.0</ele>
        <time>2016-05-14T05:37:57.000Z</time>
      </trkpt>
      <trkpt lon="34.87745893187821" lat="31.717227967455983">
        <ele>183.39999389648438</ele>
        <time>2016-05-14T05:38:01.000Z</time>
      </trkpt>
      <trkpt lon="34.87764693796635" lat="31.717274989932775">
        <ele>182.60000610351562</ele>
        <time>2016-05-14T05:38:05.000Z</time>
      </trkpt>
      <trkpt lon="34.87769396044314" lat="31.717367945238948">
        <ele>182.8000030517578</ele>
        <time>2016-05-14T05:38:08.000Z</time>
      </trkpt>
      <trkpt lon="34.87780795432627" lat="31.717443969100714">
        <ele>183.60000610351562</ele>
        <time>2016-05-14T05:38:12.000Z</time>
      </trkpt>
      <trkpt lon="34.877877943217754" lat="31.71752493828535">
        <ele>184.0</ele>
        <time>2016-05-14T05:38:15.000Z</time>
      </trkpt>
      <trkpt lon="34.87801498733461" lat="31.71754094772041">
        <ele>184.60000610351562</ele>
        <time>2016-05-14T05:38:19.000Z</time>
      </trkpt>
      <trkpt lon="34.87827692180872" lat="31.717495936900377">
        <ele>185.39999389648438</ele>
        <time>2016-05-14T05:38:26.000Z</time>
      </trkpt>
      <trkpt lon="34.87840893678367" lat="31.717489985749125">
        <ele>186.0</ele>
        <time>2016-05-14T05:38:30.000Z</time>
      </trkpt>
      <trkpt lon="34.87863499671221" lat="31.71745997853577">
        <ele>187.1999969482422</ele>
        <time>2016-05-14T05:38:37.000Z</time>
      </trkpt>
      <trkpt lon="34.87874295562506" lat="31.717449920251966">
        <ele>187.60000610351562</ele>
        <time>2016-05-14T05:38:41.000Z</time>
      </trkpt>
      <trkpt lon="34.87879693508148" lat="31.717447992414236">
        <ele>188.0</ele>
        <time>2016-05-14T05:38:43.000Z</time>
      </trkpt>
      <trkpt lon="34.878954933956265" lat="31.71732997521758">
        <ele>188.1999969482422</ele>
        <time>2016-05-14T05:38:49.000Z</time>
      </trkpt>
      <trkpt lon="34.879061970859766" lat="31.71726099215448">
        <ele>187.8000030517578</ele>
        <time>2016-05-14T05:38:53.000Z</time>
      </trkpt>
      <trkpt lon="34.87909197807312" lat="31.71724196523428">
        <ele>187.8000030517578</ele>
        <time>2016-05-14T05:38:54.000Z</time>
      </trkpt>
      <trkpt lon="34.87924193032086" lat="31.71709394082427">
        <ele>187.1999969482422</ele>
        <time>2016-05-14T05:39:00.000Z</time>
      </trkpt>
      <trkpt lon="34.879338992759585" lat="31.71709394082427">
        <ele>187.0</ele>
        <time>2016-05-14T05:39:03.000Z</time>
      </trkpt>
      <trkpt lon="34.879424991086125" lat="31.717129983007908">
        <ele>187.0</ele>
        <time>2016-05-14T05:39:06.000Z</time>
      </trkpt>
      <trkpt lon="34.879510989412665" lat="31.71718195080757">
        <ele>187.0</ele>
        <time>2016-05-14T05:39:09.000Z</time>
      </trkpt>
      <trkpt lon="34.879619954153895" lat="31.717226961627603">
        <ele>187.0</ele>
        <time>2016-05-14T05:39:12.000Z</time>
      </trkpt>
      <trkpt lon="34.87967192195356" lat="31.717275995761156">
        <ele>186.8000030517578</ele>
        <time>2016-05-14T05:39:14.000Z</time>
      </trkpt>
      <trkpt lon="34.879767978563905" lat="31.717376997694373">
        <ele>186.8000030517578</ele>
        <time>2016-05-14T05:39:18.000Z</time>
      </trkpt>
      <trkpt lon="34.8798699863255" lat="31.71747699379921">
        <ele>187.0</ele>
        <time>2016-05-14T05:39:22.000Z</time>
      </trkpt>
      <trkpt lon="34.879937963560224" lat="31.717527955770493">
        <ele>186.8000030517578</ele>
        <time>2016-05-14T05:39:24.000Z</time>
      </trkpt>
      <trkpt lon="34.880046928301454" lat="31.71773892827332">
        <ele>186.60000610351562</ele>
        <time>2016-05-14T05:39:30.000Z</time>
      </trkpt>
      <trkpt lon="34.88009596243501" lat="31.71797496266663">
        <ele>187.0</ele>
        <time>2016-05-14T05:39:36.000Z</time>
      </trkpt>
      <trkpt lon="34.88013896159828" lat="31.718135979026556">
        <ele>187.60000610351562</ele>
        <time>2016-05-14T05:39:40.000Z</time>
      </trkpt>
      <trkpt lon="34.88016092218459" lat="31.718304958194494">
        <ele>188.1999969482422</ele>
        <time>2016-05-14T05:39:44.000Z</time>
      </trkpt>
      <trkpt lon="34.88023795187473" lat="31.71846496872604">
        <ele>188.60000610351562</ele>
        <time>2016-05-14T05:39:48.000Z</time>
      </trkpt>
      <trkpt lon="34.88037298433483" lat="31.718654986470938">
        <ele>188.60000610351562</ele>
        <time>2016-05-14T05:39:53.000Z</time>
      </trkpt>
      <trkpt lon="34.88042294047773" lat="31.718737967312336">
        <ele>188.60000610351562</ele>
        <time>2016-05-14T05:39:55.000Z</time>
      </trkpt>
      <trkpt lon="34.88052494823933" lat="31.718891942873597">
        <ele>189.1999969482422</ele>
        <time>2016-05-14T05:39:59.000Z</time>
      </trkpt>
      <trkpt lon="34.88075494766235" lat="31.719078943133354">
        <ele>189.39999389648438</ele>
        <time>2016-05-14T05:40:05.000Z</time>
      </trkpt>
      <trkpt lon="34.88095695152879" lat="31.719203917309642">
        <ele>189.60000610351562</ele>
        <time>2016-05-14T05:40:10.000Z</time>
      </trkpt>
      <trkpt lon="34.88115099258721" lat="31.71937096863985">
        <ele>190.39999389648438</ele>
        <time>2016-05-14T05:40:16.000Z</time>
      </trkpt>
      <trkpt lon="34.881293987855315" lat="31.71943391673267">
        <ele>190.8000030517578</ele>
        <time>2016-05-14T05:40:21.000Z</time>
      </trkpt>
      <trkpt lon="34.88138794898987" lat="31.719492925330997">
        <ele>190.60000610351562</ele>
        <time>2016-05-14T05:40:24.000Z</time>
      </trkpt>
      <trkpt lon="34.88145793788135" lat="31.71958294697106">
        <ele>190.8000030517578</ele>
        <time>2016-05-14T05:40:27.000Z</time>
      </trkpt>
      <trkpt lon="34.88151493482292" lat="31.719719991087914">
        <ele>191.0</ele>
        <time>2016-05-14T05:40:31.000Z</time>
      </trkpt>
      <trkpt lon="34.88158391788602" lat="31.719896933063865">
        <ele>191.39999389648438</ele>
        <time>2016-05-14T05:40:36.000Z</time>
      </trkpt>
      <trkpt lon="34.88164099864662" lat="31.720005981624126">
        <ele>191.39999389648438</ele>
        <time>2016-05-14T05:40:39.000Z</time>
      </trkpt>
      <trkpt lon="34.88164896145463" lat="31.72009994275868">
        <ele>191.39999389648438</ele>
        <time>2016-05-14T05:40:42.000Z</time>
      </trkpt>
      <trkpt lon="34.88166497088969" lat="31.720240926370025">
        <ele>191.8000030517578</ele>
        <time>2016-05-14T05:40:47.000Z</time>
      </trkpt>
      <trkpt lon="34.88166396506131" lat="31.720348969101906">
        <ele>192.1999969482422</ele>
        <time>2016-05-14T05:40:51.000Z</time>
      </trkpt>
      <trkpt lon="34.88167393952608" lat="31.720372941344976">
        <ele>192.1999969482422</ele>
        <time>2016-05-14T05:40:52.000Z</time>
      </trkpt>
      <trkpt lon="34.88175599835813" lat="31.720536975190043">
        <ele>191.39999389648438</ele>
        <time>2016-05-14T05:40:59.000Z</time>
      </trkpt>
      <trkpt lon="34.881744934245944" lat="31.72065792605281">
        <ele>191.8000030517578</ele>
        <time>2016-05-14T05:41:04.000Z</time>
      </trkpt>
      <trkpt lon="34.88181794062257" lat="31.72076898626983">
        <ele>191.60000610351562</ele>
        <time>2016-05-14T05:41:08.000Z</time>
      </trkpt>
      <trkpt lon="34.88189899362624" lat="31.720934947952628">
        <ele>190.8000030517578</ele>
        <time>2016-05-14T05:41:13.000Z</time>
      </trkpt>
      <trkpt lon="34.88190595060587" lat="31.721015917137265">
        <ele>190.8000030517578</ele>
        <time>2016-05-14T05:41:15.000Z</time>
      </trkpt>
      <trkpt lon="34.88190293312073" lat="31.721097975969315">
        <ele>190.8000030517578</ele>
        <time>2016-05-14T05:41:17.000Z</time>
      </trkpt>
      <trkpt lon="34.88187896087766" lat="31.72130199149251">
        <ele>191.0</ele>
        <time>2016-05-14T05:41:22.000Z</time>
      </trkpt>
      <trkpt lon="34.88193595781922" lat="31.72143593430519">
        <ele>190.8000030517578</ele>
        <time>2016-05-14T05:41:26.000Z</time>
      </trkpt>
      <trkpt lon="34.881981974467635" lat="31.72145395539701">
        <ele>190.39999389648438</ele>
        <time>2016-05-14T05:41:27.000Z</time>
      </trkpt>
      <trkpt lon="34.882134944200516" lat="31.721512963995337">
        <ele>189.8000030517578</ele>
        <time>2016-05-14T05:41:30.000Z</time>
      </trkpt>
      <trkpt lon="34.88240098580718" lat="31.721612960100174">
        <ele>189.0</ele>
        <time>2016-05-14T05:41:35.000Z</time>
      </trkpt>
      <trkpt lon="34.88253694027662" lat="31.721747992560267">
        <ele>188.8000030517578</ele>
        <time>2016-05-14T05:41:39.000Z</time>
      </trkpt>
      <trkpt lon="34.88270197995007" lat="31.721846982836723">
        <ele>189.0</ele>
        <time>2016-05-14T05:41:43.000Z</time>
      </trkpt>
      <trkpt lon="34.882885962724686" lat="31.721916971728206">
        <ele>189.39999389648438</ele>
        <time>2016-05-14T05:41:47.000Z</time>
      </trkpt>
      <trkpt lon="34.88293893635273" lat="31.721918983384967">
        <ele>189.60000610351562</ele>
        <time>2016-05-14T05:41:48.000Z</time>
      </trkpt>
      <trkpt lon="34.88304496742785" lat="31.721916971728206">
        <ele>189.60000610351562</ele>
        <time>2016-05-14T05:41:50.000Z</time>
      </trkpt>
      <trkpt lon="34.88322299905121" lat="31.72198997810483">
        <ele>190.1999969482422</ele>
        <time>2016-05-14T05:41:54.000Z</time>
      </trkpt>
      <trkpt lon="34.88338694907725" lat="31.722092991694808">
        <ele>191.0</ele>
        <time>2016-05-14T05:41:58.000Z</time>
      </trkpt>
      <trkpt lon="34.88343195989728" lat="31.722113946452737">
        <ele>191.0</ele>
        <time>2016-05-14T05:41:59.000Z</time>
      </trkpt>
      <trkpt lon="34.883763967081904" lat="31.722173960879445">
        <ele>192.1999969482422</ele>
        <time>2016-05-14T05:42:06.000Z</time>
      </trkpt>
      <trkpt lon="34.883812917396426" lat="31.72215996310115">
        <ele>192.1999969482422</ele>
        <time>2016-05-14T05:42:07.000Z</time>
      </trkpt>
      <trkpt lon="34.88411692902446" lat="31.722060972824693">
        <ele>192.1999969482422</ele>
        <time>2016-05-14T05:42:13.000Z</time>
      </trkpt>
      <trkpt lon="34.88418398424983" lat="31.721981931477785">
        <ele>192.1999969482422</ele>
        <time>2016-05-14T05:42:15.000Z</time>
      </trkpt>
      <trkpt lon="34.884390933439136" lat="31.721823932603">
        <ele>191.8000030517578</ele>
        <time>2016-05-14T05:42:21.000Z</time>
      </trkpt>
      <trkpt lon="34.884516997262836" lat="31.721766935661435">
        <ele>192.1999969482422</ele>
        <time>2016-05-14T05:42:25.000Z</time>
      </trkpt>
      <trkpt lon="34.884751942008734" lat="31.72162595205009">
        <ele>192.1999969482422</ele>
        <time>2016-05-14T05:42:32.000Z</time>
      </trkpt>
      <trkpt lon="34.884857973083854" lat="31.721506929025054">
        <ele>192.1999969482422</ele>
        <time>2016-05-14T05:42:36.000Z</time>
      </trkpt>
      <trkpt lon="34.88499593921006" lat="31.721376925706863">
        <ele>191.8000030517578</ele>
        <time>2016-05-14T05:42:41.000Z</time>
      </trkpt>
      <trkpt lon="34.88504899665713" lat="31.72128397040069">
        <ele>191.60000610351562</ele>
        <time>2016-05-14T05:42:44.000Z</time>
      </trkpt>
      <trkpt lon="34.885204983875155" lat="31.72111096791923">
        <ele>190.8000030517578</ele>
        <time>2016-05-14T05:42:49.000Z</time>
      </trkpt>
      <trkpt lon="34.88549198023975" lat="31.720949951559305">
        <ele>190.39999389648438</ele>
        <time>2016-05-14T05:42:55.000Z</time>
      </trkpt>
      <trkpt lon="34.88554495386779" lat="31.720927990972996">
        <ele>190.39999389648438</ele>
        <time>2016-05-14T05:42:56.000Z</time>
      </trkpt>
      <trkpt lon="34.88567093387246" lat="31.72078398987651">
        <ele>190.1999969482422</ele>
        <time>2016-05-14T05:43:00.000Z</time>
      </trkpt>
      <trkpt lon="34.88588098436594" lat="31.720757922157645">
        <ele>189.8000030517578</ele>
        <time>2016-05-14T05:43:05.000Z</time>
      </trkpt>
      <trkpt lon="34.885914931073785" lat="31.720778960734606">
        <ele>189.60000610351562</ele>
        <time>2016-05-14T05:43:06.000Z</time>
      </trkpt>
      <trkpt lon="34.88592398352921" lat="31.72091994434595">
        <ele>189.60000610351562</ele>
        <time>2016-05-14T05:43:10.000Z</time>
      </trkpt>
      <trkpt lon="34.88600495271385" lat="31.721105938777328">
        <ele>189.39999389648438</ele>
        <time>2016-05-14T05:43:15.000Z</time>
      </trkpt>
      <trkpt lon="34.886020962148905" lat="31.72121599316597">
        <ele>188.8000030517578</ele>
        <time>2016-05-14T05:43:18.000Z</time>
      </trkpt>
      <trkpt lon="34.88596195355058" lat="31.721354965120554">
        <ele>189.1999969482422</ele>
        <time>2016-05-14T05:43:22.000Z</time>
      </trkpt>
      <trkpt lon="34.885941920802" lat="31.721505923196673">
        <ele>190.39999389648438</ele>
        <time>2016-05-14T05:43:27.000Z</time>
      </trkpt>
      <trkpt lon="34.885952984914184" lat="31.721616983413696">
        <ele>191.0</ele>
        <time>2016-05-14T05:43:30.000Z</time>
      </trkpt>
      <trkpt lon="34.88588199019432" lat="31.7218429595232">
        <ele>192.0</ele>
        <time>2016-05-14T05:43:36.000Z</time>
      </trkpt>
      <trkpt lon="34.88587696105242" lat="31.721875984221697">
        <ele>192.39999389648438</ele>
        <time>2016-05-14T05:43:37.000Z</time>
      </trkpt>
      <trkpt lon="34.88588492386043" lat="31.7220139503479">
        <ele>192.39999389648438</ele>
        <time>2016-05-14T05:43:41.000Z</time>
      </trkpt>
      <trkpt lon="34.885892970487475" lat="31.72207497060299">
        <ele>192.39999389648438</ele>
        <time>2016-05-14T05:43:43.000Z</time>
      </trkpt>
      <trkpt lon="34.88594292663038" lat="31.722215954214334">
        <ele>192.0</ele>
        <time>2016-05-14T05:43:47.000Z</time>
      </trkpt>
      <trkpt lon="34.88601693883538" lat="31.722320979461074">
        <ele>190.8000030517578</ele>
        <time>2016-05-14T05:43:51.000Z</time>
      </trkpt>
      <trkpt lon="34.88600394688547" lat="31.72239599749446">
        <ele>190.39999389648438</ele>
        <time>2016-05-14T05:43:53.000Z</time>
      </trkpt>
      <trkpt lon="34.885954996570945" lat="31.722601940855384">
        <ele>190.8000030517578</ele>
        <time>2016-05-14T05:43:59.000Z</time>
      </trkpt>
      <trkpt lon="34.88597192801535" lat="31.72269992530346">
        <ele>190.39999389648438</ele>
        <time>2016-05-14T05:44:02.000Z</time>
      </trkpt>
      <trkpt lon="34.885978968814015" lat="31.722861947491765">
        <ele>189.60000610351562</ele>
        <time>2016-05-14T05:44:06.000Z</time>
      </trkpt>
      <trkpt lon="34.8859519790858" lat="31.723014917224646">
        <ele>189.39999389648438</ele>
        <time>2016-05-14T05:44:10.000Z</time>
      </trkpt>
      <trkpt lon="34.88593094050884" lat="31.723206946626306">
        <ele>189.39999389648438</ele>
        <time>2016-05-14T05:44:15.000Z</time>
      </trkpt>
      <trkpt lon="34.8859469499439" lat="31.723287999629974">
        <ele>189.1999969482422</ele>
        <time>2016-05-14T05:44:17.000Z</time>
      </trkpt>
      <trkpt lon="34.88589799962938" lat="31.723543982952833">
        <ele>188.39999389648438</ele>
        <time>2016-05-14T05:44:23.000Z</time>
      </trkpt>
      <trkpt lon="34.885872937738895" lat="31.723655965179205">
        <ele>188.39999389648438</ele>
        <time>2016-05-14T05:44:26.000Z</time>
      </trkpt>
      <trkpt lon="34.885911997407675" lat="31.723804995417595">
        <ele>187.8000030517578</ele>
        <time>2016-05-14T05:44:30.000Z</time>
      </trkpt>
      <trkpt lon="34.88581694662571" lat="31.723891999572515">
        <ele>187.60000610351562</ele>
        <time>2016-05-14T05:44:34.000Z</time>
      </trkpt>
      <trkpt lon="34.88575994968414" lat="31.72396793961525">
        <ele>188.0</ele>
        <time>2016-05-14T05:44:37.000Z</time>
      </trkpt>
      <trkpt lon="34.885780988261104" lat="31.724101966246963">
        <ele>187.8000030517578</ele>
        <time>2016-05-14T05:44:41.000Z</time>
      </trkpt>
      <trkpt lon="34.88594393245876" lat="31.72435694374144">
        <ele>186.1999969482422</ele>
        <time>2016-05-14T05:44:47.000Z</time>
      </trkpt>
      <trkpt lon="34.886062955483794" lat="31.724583925679326">
        <ele>185.1999969482422</ele>
        <time>2016-05-14T05:44:51.000Z</time>
      </trkpt>
      <trkpt lon="34.88610092550516" lat="31.724738990888">
        <ele>184.8000030517578</ele>
        <time>2016-05-14T05:44:54.000Z</time>
      </trkpt>
      <trkpt lon="34.88607091829181" lat="31.724937977269292">
        <ele>185.60000610351562</ele>
        <time>2016-05-14T05:44:59.000Z</time>
      </trkpt>
      <trkpt lon="34.886085921898484" lat="31.725055994465947">
        <ele>186.0</ele>
        <time>2016-05-14T05:45:02.000Z</time>
      </trkpt>
      <trkpt lon="34.88616596907377" lat="31.725262943655252">
        <ele>186.1999969482422</ele>
        <time>2016-05-14T05:45:07.000Z</time>
      </trkpt>
      <trkpt lon="34.88622196018696" lat="31.72542697750032">
        <ele>186.39999389648438</ele>
        <time>2016-05-14T05:45:11.000Z</time>
      </trkpt>
      <trkpt lon="34.88626495935023" lat="31.725627975538373">
        <ele>186.8000030517578</ele>
        <time>2016-05-14T05:45:16.000Z</time>
      </trkpt>
      <trkpt lon="34.88633293658495" lat="31.725780945271254">
        <ele>186.60000610351562</ele>
        <time>2016-05-14T05:45:20.000Z</time>
      </trkpt>
      <trkpt lon="34.886385994032025" lat="31.726021924987435">
        <ele>187.8000030517578</ele>
        <time>2016-05-14T05:45:27.000Z</time>
      </trkpt>
      <trkpt lon="34.88648297265172" lat="31.726216971874237">
        <ele>187.8000030517578</ele>
        <time>2016-05-14T05:45:34.000Z</time>
      </trkpt>
      <trkpt lon="34.88658891990781" lat="31.726291989907622">
        <ele>187.8000030517578</ele>
        <time>2016-05-14T05:45:39.000Z</time>
      </trkpt>
      <trkpt lon="34.88668095320463" lat="31.72637396492064">
        <ele>187.60000610351562</ele>
        <time>2016-05-14T05:45:44.000Z</time>
      </trkpt>
      <trkpt lon="34.88674792461097" lat="31.72643699683249">
        <ele>188.1999969482422</ele>
        <time>2016-05-14T05:45:50.000Z</time>
      </trkpt>
      <trkpt lon="34.886795952916145" lat="31.7264589574188">
        <ele>188.1999969482422</ele>
        <time>2016-05-14T05:45:55.000Z</time>
      </trkpt>
      <trkpt lon="34.886796958744526" lat="31.726451916620135">
        <ele>188.1999969482422</ele>
        <time>2016-05-14T05:46:40.000Z</time>
      </trkpt>
      <trkpt lon="34.88680399954319" lat="31.726558953523636">
        <ele>188.60000610351562</ele>
        <time>2016-05-14T05:46:47.000Z</time>
      </trkpt>
      <trkpt lon="34.88680399954319" lat="31.72675894573331">
        <ele>189.60000610351562</ele>
        <time>2016-05-14T05:46:55.000Z</time>
      </trkpt>
      <trkpt lon="34.88680098205805" lat="31.72693194821477">
        <ele>191.1999969482422</ele>
        <time>2016-05-14T05:47:02.000Z</time>
      </trkpt>
      <trkpt lon="34.8868259601295" lat="31.727110985666513">
        <ele>192.39999389648438</ele>
        <time>2016-05-14T05:47:09.000Z</time>
      </trkpt>
      <trkpt lon="34.88684398122132" lat="31.727288933470845">
        <ele>193.1999969482422</ele>
        <time>2016-05-14T05:47:17.000Z</time>
      </trkpt>
      <trkpt lon="34.88685294985771" lat="31.72742396593094">
        <ele>194.1999969482422</ele>
        <time>2016-05-14T05:47:24.000Z</time>
      </trkpt>
      <trkpt lon="34.88681799732149" lat="31.72740594483912">
        <ele>194.60000610351562</ele>
        <time>2016-05-14T05:47:28.000Z</time>
      </trkpt>
      <trkpt lon="34.88682797178626" lat="31.72731793485582">
        <ele>194.1999969482422</ele>
        <time>2016-05-14T05:47:32.000Z</time>
      </trkpt>
      <trkpt lon="34.886796958744526" lat="31.727032950147986">
        <ele>192.60000610351562</ele>
        <time>2016-05-14T05:47:42.000Z</time>
      </trkpt>
      <trkpt lon="34.88677994348109" lat="31.72676296904683">
        <ele>191.0</ele>
        <time>2016-05-14T05:47:49.000Z</time>
      </trkpt>
      <trkpt lon="34.88678597845137" lat="31.72667495906353">
        <ele>190.39999389648438</ele>
        <time>2016-05-14T05:47:51.000Z</time>
      </trkpt>
      <trkpt lon="34.886773992329836" lat="31.726471949368715">
        <ele>188.8000030517578</ele>
        <time>2016-05-14T05:47:56.000Z</time>
      </trkpt>
      <trkpt lon="34.88658498041332" lat="31.726380921900272">
        <ele>188.1999969482422</ele>
        <time>2016-05-14T05:48:02.000Z</time>
      </trkpt>
      <trkpt lon="34.88653091713786" lat="31.72635099850595">
        <ele>188.0</ele>
        <time>2016-05-14T05:48:05.000Z</time>
      </trkpt>
      <trkpt lon="34.88650493323803" lat="31.726360972970724">
        <ele>188.0</ele>
        <time>2016-05-14T05:48:10.000Z</time>
      </trkpt>
      <trkpt lon="34.88650392740965" lat="31.726357955485582">
        <ele>188.1999969482422</ele>
        <time>2016-05-14T05:48:13.000Z</time>
      </trkpt>
      <trkpt lon="34.886406948789954" lat="31.726304981857538">
        <ele>188.39999389648438</ele>
        <time>2016-05-14T05:48:19.000Z</time>
      </trkpt>
      <trkpt lon="34.88620997406542" lat="31.726206997409463">
        <ele>189.60000610351562</ele>
        <time>2016-05-14T05:48:26.000Z</time>
      </trkpt>
      <trkpt lon="34.88607393577695" lat="31.72613399103284">
        <ele>190.8000030517578</ele>
        <time>2016-05-14T05:48:34.000Z</time>
      </trkpt>
      <trkpt lon="34.8859519790858" lat="31.726060984656215">
        <ele>191.1999969482422</ele>
        <time>2016-05-14T05:48:43.000Z</time>
      </trkpt>
      <trkpt lon="34.88594292663038" lat="31.726057967171073">
        <ele>191.39999389648438</ele>
        <time>2016-05-14T05:48:49.000Z</time>
      </trkpt>
      <trkpt lon="34.88595097325742" lat="31.726061990484595">
        <ele>191.1999969482422</ele>
        <time>2016-05-14T05:48:52.000Z</time>
      </trkpt>
      <trkpt lon="34.88600495271385" lat="31.7260929197073">
        <ele>191.39999389648438</ele>
        <time>2016-05-14T05:48:56.000Z</time>
      </trkpt>
      <trkpt lon="34.88622095435858" lat="31.726210936903954">
        <ele>190.39999389648438</ele>
        <time>2016-05-14T05:49:03.000Z</time>
      </trkpt>
      <trkpt lon="34.88647794350982" lat="31.726339934393764">
        <ele>188.60000610351562</ele>
        <time>2016-05-14T05:49:10.000Z</time>
      </trkpt>
      <trkpt lon="34.88645698875189" lat="31.72641495242715">
        <ele>188.39999389648438</ele>
        <time>2016-05-14T05:49:14.000Z</time>
      </trkpt>
      <trkpt lon="34.88620092161" lat="31.72656792216003">
        <ele>191.1999969482422</ele>
        <time>2016-05-14T05:49:24.000Z</time>
      </trkpt>
      <trkpt lon="34.885995984077454" lat="31.726619973778725">
        <ele>192.39999389648438</ele>
        <time>2016-05-14T05:49:31.000Z</time>
      </trkpt>
      <trkpt lon="34.88585793413222" lat="31.726572951301932">
        <ele>193.39999389648438</ele>
        <time>2016-05-14T05:49:36.000Z</time>
      </trkpt>
      <trkpt lon="34.88569096662104" lat="31.7265659943223">
        <ele>194.1999969482422</ele>
        <time>2016-05-14T05:49:41.000Z</time>
      </trkpt>
      <trkpt lon="34.88551293499768" lat="31.726641934365034">
        <ele>194.8000030517578</ele>
        <time>2016-05-14T05:49:47.000Z</time>
      </trkpt>
      <trkpt lon="34.885350996628404" lat="31.726661967113614">
        <ele>196.0</ele>
        <time>2016-05-14T05:49:52.000Z</time>
      </trkpt>
      <trkpt lon="34.885184951126575" lat="31.726623997092247">
        <ele>196.1999969482422</ele>
        <time>2016-05-14T05:49:57.000Z</time>
      </trkpt>
      <trkpt lon="34.88499199971557" lat="31.72648494131863">
        <ele>196.0</ele>
        <time>2016-05-14T05:50:03.000Z</time>
      </trkpt>
      <trkpt lon="34.884730987250805" lat="31.726258965209126">
        <ele>195.0</ele>
        <time>2016-05-14T05:50:11.000Z</time>
      </trkpt>
      <trkpt lon="34.88469695672393" lat="31.726228957995772">
        <ele>195.0</ele>
        <time>2016-05-14T05:50:12.000Z</time>
      </trkpt>
      <trkpt lon="34.884626967832446" lat="31.726170955225825">
        <ele>194.8000030517578</ele>
        <time>2016-05-14T05:50:14.000Z</time>
      </trkpt>
      <trkpt lon="34.88450895063579" lat="31.726036928594112">
        <ele>194.1999969482422</ele>
        <time>2016-05-14T05:50:18.000Z</time>
      </trkpt>
      <trkpt lon="34.884408954530954" lat="31.725934920832515">
        <ele>193.8000030517578</ele>
        <time>2016-05-14T05:50:21.000Z</time>
      </trkpt>
      <trkpt lon="34.88418691791594" lat="31.725761918351054">
        <ele>192.8000030517578</ele>
        <time>2016-05-14T05:50:26.000Z</time>
      </trkpt>
      <trkpt lon="34.88402699120343" lat="31.72568991780281">
        <ele>192.0</ele>
        <time>2016-05-14T05:50:29.000Z</time>
      </trkpt>
      <trkpt lon="34.88388793542981" lat="31.725610960274935">
        <ele>191.60000610351562</ele>
        <time>2016-05-14T05:50:32.000Z</time>
      </trkpt>
      <trkpt lon="34.883678974583745" lat="31.725550945848227">
        <ele>191.8000030517578</ele>
        <time>2016-05-14T05:50:37.000Z</time>
      </trkpt>
      <trkpt lon="34.88340497016907" lat="31.725526973605156">
        <ele>193.1999969482422</ele>
        <time>2016-05-14T05:50:44.000Z</time>
      </trkpt>
      <trkpt lon="34.88326599821448" lat="31.72553895972669">
        <ele>193.8000030517578</ele>
        <time>2016-05-14T05:50:48.000Z</time>
      </trkpt>
      <trkpt lon="34.88309592939913" lat="31.72556192614138">
        <ele>195.39999389648438</ele>
        <time>2016-05-14T05:50:53.000Z</time>
      </trkpt>
      <trkpt lon="34.88278294913471" lat="31.72551398165524">
        <ele>196.60000610351562</ele>
        <time>2016-05-14T05:51:01.000Z</time>
      </trkpt>
      <trkpt lon="34.882520930841565" lat="31.725539965555072">
        <ele>198.39999389648438</ele>
        <time>2016-05-14T05:51:08.000Z</time>
      </trkpt>
      <trkpt lon="34.88233292475343" lat="31.72562194056809">
        <ele>200.1999969482422</ele>
        <time>2016-05-14T05:51:14.000Z</time>
      </trkpt>
      <trkpt lon="34.88214299082756" lat="31.725737946107984">
        <ele>202.1999969482422</ele>
        <time>2016-05-14T05:51:21.000Z</time>
      </trkpt>
      <trkpt lon="34.88202899694443" lat="31.72590097412467">
        <ele>203.60000610351562</ele>
        <time>2016-05-14T05:51:28.000Z</time>
      </trkpt>
      <trkpt lon="34.88197392784059" lat="31.726104989647865">
        <ele>204.8000030517578</ele>
        <time>2016-05-14T05:51:35.000Z</time>
      </trkpt>
      <trkpt lon="34.88189899362624" lat="31.726357955485582">
        <ele>205.8000030517578</ele>
        <time>2016-05-14T05:51:43.000Z</time>
      </trkpt>
      <trkpt lon="34.8817939683795" lat="31.726618967950344">
        <ele>205.60000610351562</ele>
        <time>2016-05-14T05:51:51.000Z</time>
      </trkpt>
      <trkpt lon="34.88165499642491" lat="31.72675995156169">
        <ele>205.1999969482422</ele>
        <time>2016-05-14T05:51:56.000Z</time>
      </trkpt>
      <trkpt lon="34.88143899478018" lat="31.72686698846519">
        <ele>203.8000030517578</ele>
        <time>2016-05-14T05:52:01.000Z</time>
      </trkpt>
      <trkpt lon="34.88139498978853" lat="31.72689196653664">
        <ele>203.60000610351562</ele>
        <time>2016-05-14T05:52:02.000Z</time>
      </trkpt>
      <trkpt lon="34.88130396232009" lat="31.72695198096335">
        <ele>202.8000030517578</ele>
        <time>2016-05-14T05:52:04.000Z</time>
      </trkpt>
      <trkpt lon="34.88084999844432" lat="31.7271669767797">
        <ele>200.8000030517578</ele>
        <time>2016-05-14T05:52:12.000Z</time>
      </trkpt>
      <trkpt lon="34.88042595796287" lat="31.727358922362328">
        <ele>199.1999969482422</ele>
        <time>2016-05-14T05:52:19.000Z</time>
      </trkpt>
      <trkpt lon="34.880196964368224" lat="31.727458918467164">
        <ele>197.60000610351562</ele>
        <time>2016-05-14T05:52:24.000Z</time>
      </trkpt>
      <trkpt lon="34.88001197576523" lat="31.727540977299213">
        <ele>196.39999389648438</ele>
        <time>2016-05-14T05:52:31.000Z</time>
      </trkpt>
      <trkpt lon="34.87986294552684" lat="31.727605937048793">
        <ele>195.60000610351562</ele>
        <time>2016-05-14T05:52:38.000Z</time>
      </trkpt>
      <trkpt lon="34.87975699827075" lat="31.727461935952306">
        <ele>195.60000610351562</ele>
        <time>2016-05-14T05:52:43.000Z</time>
      </trkpt>
      <trkpt lon="34.8796109855175" lat="31.727267978712916">
        <ele>195.1999969482422</ele>
        <time>2016-05-14T05:52:50.000Z</time>
      </trkpt>
      <trkpt lon="34.87945198081434" lat="31.727163959294558">
        <ele>194.39999389648438</ele>
        <time>2016-05-14T05:52:55.000Z</time>
      </trkpt>
      <trkpt lon="34.87933195196092" lat="31.727090952917933">
        <ele>193.8000030517578</ele>
        <time>2016-05-14T05:52:58.000Z</time>
      </trkpt>
      <trkpt lon="34.87916096113622" lat="31.726989950984716">
        <ele>193.0</ele>
        <time>2016-05-14T05:53:02.000Z</time>
      </trkpt>
      <trkpt lon="34.87898494116962" lat="31.726839998736978">
        <ele>191.60000610351562</ele>
        <time>2016-05-14T05:53:07.000Z</time>
      </trkpt>
      <trkpt lon="34.8788979370147" lat="31.726576974615455">
        <ele>190.1999969482422</ele>
        <time>2016-05-14T05:53:13.000Z</time>
      </trkpt>
      <trkpt lon="34.87887899391353" lat="31.726489970460534">
        <ele>190.1999969482422</ele>
        <time>2016-05-14T05:53:15.000Z</time>
      </trkpt>
      <trkpt lon="34.878887962549925" lat="31.72622493468225">
        <ele>189.60000610351562</ele>
        <time>2016-05-14T05:53:22.000Z</time>
      </trkpt>
      <trkpt lon="34.87889994867146" lat="31.725994935259223">
        <ele>190.8000030517578</ele>
        <time>2016-05-14T05:53:29.000Z</time>
      </trkpt>
      <trkpt lon="34.878886956721544" lat="31.725970963016152">
        <ele>191.0</ele>
        <time>2016-05-14T05:53:30.000Z</time>
      </trkpt>
      <trkpt lon="34.87870196811855" lat="31.725908936932683">
        <ele>190.39999389648438</ele>
        <time>2016-05-14T05:53:35.000Z</time>
      </trkpt>
      <trkpt lon="34.878260996192694" lat="31.72585696913302">
        <ele>188.8000030517578</ele>
        <time>2016-05-14T05:53:43.000Z</time>
      </trkpt>
      <trkpt lon="34.877810971811414" lat="31.725833918899298">
        <ele>187.1999969482422</ele>
        <time>2016-05-14T05:53:50.000Z</time>
      </trkpt>
      <trkpt lon="34.87752799876034" lat="31.725851939991117">
        <ele>186.0</ele>
        <time>2016-05-14T05:53:54.000Z</time>
      </trkpt>
      <trkpt lon="34.87725097686052" lat="31.72576895914972">
        <ele>185.0</ele>
        <time>2016-05-14T05:53:58.000Z</time>
      </trkpt>
      <trkpt lon="34.87697998993099" lat="31.725669968873262">
        <ele>184.39999389648438</ele>
        <time>2016-05-14T05:54:02.000Z</time>
      </trkpt>
      <trkpt lon="34.87675099633634" lat="31.725485986098647">
        <ele>184.0</ele>
        <time>2016-05-14T05:54:07.000Z</time>
      </trkpt>
      <trkpt lon="34.87656097859144" lat="31.725356988608837">
        <ele>184.60000610351562</ele>
        <time>2016-05-14T05:54:11.000Z</time>
      </trkpt>
      <trkpt lon="34.876309940591455" lat="31.725269984453917">
        <ele>185.60000610351562</ele>
        <time>2016-05-14T05:54:17.000Z</time>
      </trkpt>
      <trkpt lon="34.87628295086324" lat="31.725261937826872">
        <ele>185.8000030517578</ele>
        <time>2016-05-14T05:54:18.000Z</time>
      </trkpt>
      <trkpt lon="34.87622897140682" lat="31.725142998620868">
        <ele>186.1999969482422</ele>
        <time>2016-05-14T05:54:23.000Z</time>
      </trkpt>
      <trkpt lon="34.87621195614338" lat="31.725117936730385">
        <ele>186.0</ele>
        <time>2016-05-14T05:54:24.000Z</time>
      </trkpt>
      <trkpt lon="34.876076923683286" lat="31.725029926747084">
        <ele>186.60000610351562</ele>
        <time>2016-05-14T05:54:30.000Z</time>
      </trkpt>
      <trkpt lon="34.87591599114239" lat="31.72497494146228">
        <ele>187.0</ele>
        <time>2016-05-14T05:54:37.000Z</time>
      </trkpt>
      <trkpt lon="34.8756599240005" lat="31.72490897588432">
        <ele>187.39999389648438</ele>
        <time>2016-05-14T05:54:46.000Z</time>
      </trkpt>
      <trkpt lon="34.87537695094943" lat="31.72487293370068">
        <ele>186.60000610351562</ele>
        <time>2016-05-14T05:54:54.000Z</time>
      </trkpt>
      <trkpt lon="34.875215934589505" lat="31.724917944520712">
        <ele>185.39999389648438</ele>
        <time>2016-05-14T05:54:59.000Z</time>
      </trkpt>
      <trkpt lon="34.875190956518054" lat="31.724926996976137">
        <ele>185.39999389648438</ele>
        <time>2016-05-14T05:55:00.000Z</time>
      </trkpt>
      <trkpt lon="34.875127924606204" lat="31.72503797337413">
        <ele>184.8000030517578</ele>
        <time>2016-05-14T05:55:04.000Z</time>
      </trkpt>
      <trkpt lon="34.87503094598651" lat="31.72523394227028">
        <ele>184.39999389648438</ele>
        <time>2016-05-14T05:55:11.000Z</time>
      </trkpt>
      <trkpt lon="34.87496799789369" lat="31.72517292201519">
        <ele>184.0</ele>
        <time>2016-05-14T05:55:15.000Z</time>
      </trkpt>
      <trkpt lon="34.87481293268502" lat="31.725042918697">
        <ele>183.39999389648438</ele>
        <time>2016-05-14T05:55:20.000Z</time>
      </trkpt>
      <trkpt lon="34.87447296269238" lat="31.724920962005854">
        <ele>181.60000610351562</ele>
        <time>2016-05-14T05:55:26.000Z</time>
      </trkpt>
      <trkpt lon="34.87441395409405" lat="31.724902940914035">
        <ele>181.39999389648438</ele>
        <time>2016-05-14T05:55:27.000Z</time>
      </trkpt>
      <trkpt lon="34.874034924432635" lat="31.72484694980085">
        <ele>180.8000030517578</ele>
        <time>2016-05-14T05:55:34.000Z</time>
      </trkpt>
      <trkpt lon="34.87373694777489" lat="31.724770925939083">
        <ele>181.60000610351562</ele>
        <time>2016-05-14T05:55:41.000Z</time>
      </trkpt>
      <trkpt lon="34.87352597527206" lat="31.72460999339819">
        <ele>182.0</ele>
        <time>2016-05-14T05:55:47.000Z</time>
      </trkpt>
      <trkpt lon="34.873279966413975" lat="31.724391980096698">
        <ele>182.60000610351562</ele>
        <time>2016-05-14T05:55:54.000Z</time>
      </trkpt>
      <trkpt lon="34.873195979744196" lat="31.724345963448286">
        <ele>182.8000030517578</ele>
        <time>2016-05-14T05:55:56.000Z</time>
      </trkpt>
      <trkpt lon="34.872960951179266" lat="31.724281925708055">
        <ele>183.8000030517578</ele>
        <time>2016-05-14T05:56:01.000Z</time>
      </trkpt>
      <trkpt lon="34.87261896952987" lat="31.724278992041945">
        <ele>184.39999389648438</ele>
        <time>2016-05-14T05:56:08.000Z</time>
      </trkpt>
      <trkpt lon="34.872295930981636" lat="31.724358955398202">
        <ele>185.39999389648438</ele>
        <time>2016-05-14T05:56:15.000Z</time>
      </trkpt>
      <trkpt lon="34.8719609901309" lat="31.724563976749778">
        <ele>185.60000610351562</ele>
        <time>2016-05-14T05:56:23.000Z</time>
      </trkpt>
      <trkpt lon="34.87159595824778" lat="31.724856924265623">
        <ele>184.60000610351562</ele>
        <time>2016-05-14T05:56:32.000Z</time>
      </trkpt>
      <trkpt lon="34.87137098796666" lat="31.72517493367195">
        <ele>183.39999389648438</ele>
        <time>2016-05-14T05:56:39.000Z</time>
      </trkpt>
      <trkpt lon="34.87126898020506" lat="31.725376937538385">
        <ele>183.0</ele>
        <time>2016-05-14T05:56:43.000Z</time>
      </trkpt>
      <trkpt lon="34.87127694301307" lat="31.725626969709992">
        <ele>182.1999969482422</ele>
        <time>2016-05-14T05:56:48.000Z</time>
      </trkpt>
      <trkpt lon="34.87143997102976" lat="31.726001976057887">
        <ele>179.60000610351562</ele>
        <time>2016-05-14T05:56:56.000Z</time>
      </trkpt>
      <trkpt lon="34.871495962142944" lat="31.72629098407924">
        <ele>177.1999969482422</ele>
        <time>2016-05-14T05:57:01.000Z</time>
      </trkpt>
      <trkpt lon="34.87152395769954" lat="31.726534981280565">
        <ele>175.60000610351562</ele>
        <time>2016-05-14T05:57:05.000Z</time>
      </trkpt>
      <trkpt lon="34.87159796990454" lat="31.72673991881311">
        <ele>175.0</ele>
        <time>2016-05-14T05:57:09.000Z</time>
      </trkpt>
      <trkpt lon="34.871580954641104" lat="31.72691199928522">
        <ele>175.0</ele>
        <time>2016-05-14T05:57:13.000Z</time>
      </trkpt>
      <trkpt lon="34.8714049346745" lat="31.727204946801066">
        <ele>176.39999389648438</ele>
        <time>2016-05-14T05:57:21.000Z</time>
      </trkpt>
      <trkpt lon="34.87114199437201" lat="31.727521950379014">
        <ele>176.0</ele>
        <time>2016-05-14T05:57:30.000Z</time>
      </trkpt>
      <trkpt lon="34.870892968028784" lat="31.72774993814528">
        <ele>175.0</ele>
        <time>2016-05-14T05:57:37.000Z</time>
      </trkpt>
      <trkpt lon="34.87081199884415" lat="31.72781095840037">
        <ele>174.8000030517578</ele>
        <time>2016-05-14T05:57:39.000Z</time>
      </trkpt>
      <trkpt lon="34.87041293643415" lat="31.728065935894847">
        <ele>173.39999389648438</ele>
        <time>2016-05-14T05:57:48.000Z</time>
      </trkpt>
      <trkpt lon="34.870186960324645" lat="31.7282029800117">
        <ele>172.1999969482422</ele>
        <time>2016-05-14T05:57:52.000Z</time>
      </trkpt>
      <trkpt lon="34.86997799947858" lat="31.72843499109149">
        <ele>171.1999969482422</ele>
        <time>2016-05-14T05:57:57.000Z</time>
      </trkpt>
      <trkpt lon="34.869953943416476" lat="31.728486958891153">
        <ele>171.0</ele>
        <time>2016-05-14T05:57:58.000Z</time>
      </trkpt>
      <trkpt lon="34.8698559589684" lat="31.728668930009007">
        <ele>169.8000030517578</ele>
        <time>2016-05-14T05:58:02.000Z</time>
      </trkpt>
      <trkpt lon="34.8697869759053" lat="31.72877999022603">
        <ele>168.8000030517578</ele>
        <time>2016-05-14T05:58:05.000Z</time>
      </trkpt>
      <trkpt lon="34.86963492818177" lat="31.728853918612003">
        <ele>168.0</ele>
        <time>2016-05-14T05:58:09.000Z</time>
      </trkpt>
      <trkpt lon="34.869500985369086" lat="31.728785941377282">
        <ele>167.60000610351562</ele>
        <time>2016-05-14T05:58:12.000Z</time>
      </trkpt>
      <trkpt lon="34.86944692209363" lat="31.728619979694486">
        <ele>167.1999969482422</ele>
        <time>2016-05-14T05:58:16.000Z</time>
      </trkpt>
      <trkpt lon="34.86941993236542" lat="31.728211948648095">
        <ele>166.39999389648438</ele>
        <time>2016-05-14T05:58:25.000Z</time>
      </trkpt>
      <trkpt lon="34.86937894485891" lat="31.728000976145267">
        <ele>166.0</ele>
        <time>2016-05-14T05:58:30.000Z</time>
      </trkpt>
      <trkpt lon="34.869264950975776" lat="31.727860998362303">
        <ele>165.60000610351562</ele>
        <time>2016-05-14T05:58:34.000Z</time>
      </trkpt>
      <trkpt lon="34.86907199956477" lat="31.72768598422408">
        <ele>164.60000610351562</ele>
        <time>2016-05-14T05:58:39.000Z</time>
      </trkpt>
      <trkpt lon="34.86892598681152" lat="31.727522956207395">
        <ele>163.1999969482422</ele>
        <time>2016-05-14T05:58:44.000Z</time>
      </trkpt>
      <trkpt lon="34.86889095045626" lat="31.727495966479182">
        <ele>162.39999389648438</ele>
        <time>2016-05-14T05:58:48.000Z</time>
      </trkpt>
      <trkpt lon="34.86889095045626" lat="31.72749093733728">
        <ele>162.1999969482422</ele>
        <time>2016-05-14T05:59:00.000Z</time>
      </trkpt>
      <trkpt lon="34.868944929912686" lat="31.727397982031107">
        <ele>162.39999389648438</ele>
        <time>2016-05-14T05:59:05.000Z</time>
      </trkpt>
      <trkpt lon="34.86905892379582" lat="31.727271918207407">
        <ele>162.60000610351562</ele>
        <time>2016-05-14T05:59:11.000Z</time>
      </trkpt>
      <trkpt lon="34.869067976251245" lat="31.727185919880867">
        <ele>162.0</ele>
        <time>2016-05-14T05:59:15.000Z</time>
      </trkpt>
      <trkpt lon="34.869068982079625" lat="31.727161947637796">
        <ele>161.8000030517578</ele>
        <time>2016-05-14T05:59:17.000Z</time>
      </trkpt>
      <trkpt lon="34.86900092102587" lat="31.727131940424442">
        <ele>161.39999389648438</ele>
        <time>2016-05-14T05:59:22.000Z</time>
      </trkpt>
      <trkpt lon="34.86893294379115" lat="31.727153984829783">
        <ele>161.60000610351562</ele>
        <time>2016-05-14T05:59:25.000Z</time>
      </trkpt>
      <trkpt lon="34.868771927431226" lat="31.727160941809416">
        <ele>161.39999389648438</ele>
        <time>2016-05-14T05:59:29.000Z</time>
      </trkpt>
      <trkpt lon="34.86856698989868" lat="31.727203940972686">
        <ele>161.1999969482422</ele>
        <time>2016-05-14T05:59:33.000Z</time>
      </trkpt>
      <trkpt lon="34.86845995299518" lat="31.72721492126584">
        <ele>161.1999969482422</ele>
        <time>2016-05-14T05:59:35.000Z</time>
      </trkpt>
      <trkpt lon="34.86822794191539" lat="31.72714895568788">
        <ele>160.60000610351562</ele>
        <time>2016-05-14T05:59:40.000Z</time>
      </trkpt>
      <trkpt lon="34.86806893721223" lat="31.727112997323275">
        <ele>161.0</ele>
        <time>2016-05-14T05:59:44.000Z</time>
      </trkpt>
      <trkpt lon="34.86802593804896" lat="31.72703999094665">
        <ele>161.8000030517578</ele>
        <time>2016-05-14T05:59:47.000Z</time>
      </trkpt>
      <trkpt lon="34.868015963584185" lat="31.72693597152829">
        <ele>162.8000030517578</ele>
        <time>2016-05-14T05:59:51.000Z</time>
      </trkpt>
      <trkpt lon="34.86798495054245" lat="31.72677998431027">
        <ele>163.0</ele>
        <time>2016-05-14T05:59:56.000Z</time>
      </trkpt>
      <trkpt lon="34.8679219186306" lat="31.726671941578388">
        <ele>163.60000610351562</ele>
        <time>2016-05-14T06:00:00.000Z</time>
      </trkpt>
      <trkpt lon="34.86787095665932" lat="31.726556941866875">
        <ele>164.39999389648438</ele>
        <time>2016-05-14T06:00:05.000Z</time>
      </trkpt>
      <trkpt lon="34.86785494722426" lat="31.726466920226812">
        <ele>164.0</ele>
        <time>2016-05-14T06:00:09.000Z</time>
      </trkpt>
      <trkpt lon="34.86781697720289" lat="31.72641495242715">
        <ele>164.39999389648438</ele>
        <time>2016-05-14T06:00:12.000Z</time>
      </trkpt>
      <trkpt lon="34.86774992197752" lat="31.72630892135203">
        <ele>164.8000030517578</ele>
        <time>2016-05-14T06:00:17.000Z</time>
      </trkpt>
      <trkpt lon="34.86767892725766" lat="31.72621998935938">
        <ele>165.0</ele>
        <time>2016-05-14T06:00:21.000Z</time>
      </trkpt>
      <trkpt lon="34.86762494780123" lat="31.726108929142356">
        <ele>165.0</ele>
        <time>2016-05-14T06:00:25.000Z</time>
      </trkpt>
      <trkpt lon="34.86753593198955" lat="31.72592595219612">
        <ele>164.39999389648438</ele>
        <time>2016-05-14T06:00:30.000Z</time>
      </trkpt>
      <trkpt lon="34.86742495559156" lat="31.725801983848214">
        <ele>164.39999389648438</ele>
        <time>2016-05-14T06:00:34.000Z</time>
      </trkpt>
      <trkpt lon="34.86721498891711" lat="31.72566695138812">
        <ele>164.60000610351562</ele>
        <time>2016-05-14T06:00:40.000Z</time>
      </trkpt>
      <trkpt lon="34.867177940905094" lat="31.725660916417837">
        <ele>165.0</ele>
        <time>2016-05-14T06:00:41.000Z</time>
      </trkpt>
      <trkpt lon="34.867008961737156" lat="31.725527979433537">
        <ele>166.0</ele>
        <time>2016-05-14T06:00:47.000Z</time>
      </trkpt>
      <trkpt lon="34.86682497896254" lat="31.725415997207165">
        <ele>165.39999389648438</ele>
        <time>2016-05-14T06:00:52.000Z</time>
      </trkpt>
      <trkpt lon="34.86669698730111" lat="31.725328993052244">
        <ele>165.60000610351562</ele>
        <time>2016-05-14T06:00:56.000Z</time>
      </trkpt>
      <trkpt lon="34.8666559997946" lat="31.725312983617187">
        <ele>165.39999389648438</ele>
        <time>2016-05-14T06:00:57.000Z</time>
      </trkpt>
      <trkpt lon="34.86645299009979" lat="31.72530099749565">
        <ele>165.60000610351562</ele>
        <time>2016-05-14T06:01:02.000Z</time>
      </trkpt>
      <trkpt lon="34.86641694791615" lat="31.725315917283297">
        <ele>165.8000030517578</ele>
        <time>2016-05-14T06:01:03.000Z</time>
      </trkpt>
      <trkpt lon="34.86618393100798" lat="31.72529798001051">
        <ele>166.60000610351562</ele>
        <time>2016-05-14T06:01:09.000Z</time>
      </trkpt>
      <trkpt lon="34.86613598652184" lat="31.725379955023527">
        <ele>166.60000610351562</ele>
        <time>2016-05-14T06:01:13.000Z</time>
      </trkpt>
      <trkpt lon="34.86613498069346" lat="31.72544994391501">
        <ele>167.8000030517578</ele>
        <time>2016-05-14T06:01:16.000Z</time>
      </trkpt>
      <trkpt lon="34.86607396043837" lat="31.725466959178448">
        <ele>168.1999969482422</ele>
        <time>2016-05-14T06:01:18.000Z</time>
      </trkpt>
      <trkpt lon="34.86590598709881" lat="31.725433934479952">
        <ele>168.39999389648438</ele>
        <time>2016-05-14T06:01:24.000Z</time>
      </trkpt>
      <trkpt lon="34.86583197489381" lat="31.725502917543054">
        <ele>168.39999389648438</ele>
        <time>2016-05-14T06:01:28.000Z</time>
      </trkpt>
      <trkpt lon="34.86571295186877" lat="31.725542983040214">
        <ele>168.8000030517578</ele>
        <time>2016-05-14T06:01:32.000Z</time>
      </trkpt>
      <trkpt lon="34.86562795937061" lat="31.72564096748829">
        <ele>168.8000030517578</ele>
        <time>2016-05-14T06:01:36.000Z</time>
      </trkpt>
      <trkpt lon="34.86560692079365" lat="31.72566594555974">
        <ele>169.0</ele>
        <time>2016-05-14T06:01:37.000Z</time>
      </trkpt>
      <trkpt lon="34.86547691747546" lat="31.725763930007815">
        <ele>169.39999389648438</ele>
        <time>2016-05-14T06:01:42.000Z</time>
      </trkpt>
      <trkpt lon="34.86534297466278" lat="31.725912960246205">
        <ele>169.39999389648438</ele>
        <time>2016-05-14T06:01:48.000Z</time>
      </trkpt>
      <trkpt lon="34.865328976884484" lat="31.72603198327124">
        <ele>170.0</ele>
        <time>2016-05-14T06:01:52.000Z</time>
      </trkpt>
      <trkpt lon="34.86519092693925" lat="31.726172966882586">
        <ele>169.8000030517578</ele>
        <time>2016-05-14T06:01:58.000Z</time>
      </trkpt>
      <trkpt lon="34.86516896635294" lat="31.726292995736003">
        <ele>169.8000030517578</ele>
        <time>2016-05-14T06:02:02.000Z</time>
      </trkpt>
      <trkpt lon="34.86516695469618" lat="31.726316967979074">
        <ele>170.0</ele>
        <time>2016-05-14T06:02:03.000Z</time>
      </trkpt>
      <trkpt lon="34.86512999050319" lat="31.726451916620135">
        <ele>170.39999389648438</ele>
        <time>2016-05-14T06:02:09.000Z</time>
      </trkpt>
      <trkpt lon="34.86505497246981" lat="31.72660899348557">
        <ele>170.60000610351562</ele>
        <time>2016-05-14T06:02:15.000Z</time>
      </trkpt>
      <trkpt lon="34.86501792445779" lat="31.726722987368703">
        <ele>170.39999389648438</ele>
        <time>2016-05-14T06:02:19.000Z</time>
      </trkpt>
      <trkpt lon="34.86500199884176" lat="31.726744947955012">
        <ele>170.1999969482422</ele>
        <time>2016-05-14T06:02:20.000Z</time>
      </trkpt>
      <trkpt lon="34.864964950829744" lat="31.72686891630292">
        <ele>169.8000030517578</ele>
        <time>2016-05-14T06:02:25.000Z</time>
      </trkpt>
      <trkpt lon="34.864837964996696" lat="31.726960949599743">
        <ele>169.1999969482422</ele>
        <time>2016-05-14T06:02:30.000Z</time>
      </trkpt>
      <trkpt lon="34.864728916436434" lat="31.727077960968018">
        <ele>168.39999389648438</ele>
        <time>2016-05-14T06:02:34.000Z</time>
      </trkpt>
      <trkpt lon="34.864601930603385" lat="31.7272169329226">
        <ele>167.8000030517578</ele>
        <time>2016-05-14T06:02:39.000Z</time>
      </trkpt>
      <trkpt lon="34.86442398279905" lat="31.727391947060823">
        <ele>167.60000610351562</ele>
        <time>2016-05-14T06:02:45.000Z</time>
      </trkpt>
      <trkpt lon="34.86436698585749" lat="31.727458918467164">
        <ele>167.39999389648438</ele>
        <time>2016-05-14T06:02:47.000Z</time>
      </trkpt>
      <trkpt lon="34.86435692757368" lat="31.72753695398569">
        <ele>167.39999389648438</ele>
        <time>2016-05-14T06:02:49.000Z</time>
      </trkpt>
      <trkpt lon="34.86422197893262" lat="31.727693947032094">
        <ele>168.0</ele>
        <time>2016-05-14T06:02:54.000Z</time>
      </trkpt>
      <trkpt lon="34.864040929824114" lat="31.727883964776993">
        <ele>168.60000610351562</ele>
        <time>2016-05-14T06:03:00.000Z</time>
      </trkpt>
      <trkpt lon="34.86394696868956" lat="31.727975998073816">
        <ele>169.0</ele>
        <time>2016-05-14T06:03:04.000Z</time>
      </trkpt>
      <trkpt lon="34.863932970911264" lat="31.72798697836697">
        <ele>169.0</ele>
        <time>2016-05-14T06:03:08.000Z</time>
      </trkpt>
      <trkpt lon="34.86390497535467" lat="31.727978931739926">
        <ele>168.8000030517578</ele>
        <time>2016-05-14T06:04:07.000Z</time>
      </trkpt>
      <trkpt lon="34.86389399506152" lat="31.727999970316887">
        <ele>169.0</ele>
        <time>2016-05-14T06:04:10.000Z</time>
      </trkpt>
      <trkpt lon="34.86388494260609" lat="31.72800298780203">
        <ele>168.39999389648438</ele>
        <time>2016-05-14T06:04:17.000Z</time>
      </trkpt>
      <trkpt lon="34.863908998668194" lat="31.727998964488506">
        <ele>167.39999389648438</ele>
        <time>2016-05-14T06:12:25.000Z</time>
      </trkpt>
      <trkpt lon="34.86389994621277" lat="31.72796292230487">
        <ele>166.8000030517578</ele>
        <time>2016-05-14T06:15:25.000Z</time>
      </trkpt>
      <trkpt lon="34.863847978413105" lat="31.72787893563509">
        <ele>166.39999389648438</ele>
        <time>2016-05-14T06:15:30.000Z</time>
      </trkpt>
      <trkpt lon="34.86372493207455" lat="31.727802995592356">
        <ele>165.39999389648438</ele>
        <time>2016-05-14T06:15:34.000Z</time>
      </trkpt>
      <trkpt lon="34.86368696205318" lat="31.727779945358634">
        <ele>165.1999969482422</ele>
        <time>2016-05-14T06:15:35.000Z</time>
      </trkpt>
      <trkpt lon="34.86349493265152" lat="31.72768296673894">
        <ele>163.8000030517578</ele>
        <time>2016-05-14T06:15:39.000Z</time>
      </trkpt>
      <trkpt lon="34.86335897818208" lat="31.727637955918908">
        <ele>163.0</ele>
        <time>2016-05-14T06:15:41.000Z</time>
      </trkpt>
      <trkpt lon="34.86317499540746" lat="31.72746897675097">
        <ele>161.8000030517578</ele>
        <time>2016-05-14T06:15:45.000Z</time>
      </trkpt>
      <trkpt lon="34.86314993351698" lat="31.727350959554315">
        <ele>161.39999389648438</ele>
        <time>2016-05-14T06:15:47.000Z</time>
      </trkpt>
      <trkpt lon="34.8632229398936" lat="31.727013923227787">
        <ele>161.60000610351562</ele>
        <time>2016-05-14T06:15:54.000Z</time>
      </trkpt>
      <trkpt lon="34.863164937123656" lat="31.726820971816778">
        <ele>162.8000030517578</ele>
        <time>2016-05-14T06:15:59.000Z</time>
      </trkpt>
      <trkpt lon="34.863115986809134" lat="31.726756934076548">
        <ele>163.60000610351562</ele>
        <time>2016-05-14T06:16:01.000Z</time>
      </trkpt>
      <trkpt lon="34.86301498487592" lat="31.726642940193415">
        <ele>165.1999969482422</ele>
        <time>2016-05-14T06:16:05.000Z</time>
      </trkpt>
      <trkpt lon="34.862943990156054" lat="31.726575968787074">
        <ele>166.39999389648438</ele>
        <time>2016-05-14T06:16:08.000Z</time>
      </trkpt>
      <trkpt lon="34.86282496713102" lat="31.72658996656537">
        <ele>167.8000030517578</ele>
        <time>2016-05-14T06:16:11.000Z</time>
      </trkpt>
      <trkpt lon="34.86278599128127" lat="31.72660798765719">
        <ele>168.0</ele>
        <time>2016-05-14T06:16:12.000Z</time>
      </trkpt>
      <trkpt lon="34.86270594410598" lat="31.72663195990026">
        <ele>168.60000610351562</ele>
        <time>2016-05-14T06:16:14.000Z</time>
      </trkpt>
      <trkpt lon="34.8626499529928" lat="31.72654797323048">
        <ele>169.1999969482422</ele>
        <time>2016-05-14T06:16:18.000Z</time>
      </trkpt>
      <trkpt lon="34.86266294494271" lat="31.726452922448516">
        <ele>169.60000610351562</ele>
        <time>2016-05-14T06:16:21.000Z</time>
      </trkpt>
      <trkpt lon="34.862644923850894" lat="31.726384945213795">
        <ele>169.8000030517578</ele>
        <time>2016-05-14T06:16:23.000Z</time>
      </trkpt>
      <trkpt lon="34.86259798519313" lat="31.726217977702618">
        <ele>170.60000610351562</ele>
        <time>2016-05-14T06:16:28.000Z</time>
      </trkpt>
      <trkpt lon="34.86265892162919" lat="31.726076994091272">
        <ele>170.8000030517578</ele>
        <time>2016-05-14T06:16:33.000Z</time>
      </trkpt>
      <trkpt lon="34.8626499529928" lat="31.72600398771465">
        <ele>170.8000030517578</ele>
        <time>2016-05-14T06:16:35.000Z</time>
      </trkpt>
      <trkpt lon="34.86253193579614" lat="31.725912960246205">
        <ele>171.60000610351562</ele>
        <time>2016-05-14T06:16:40.000Z</time>
      </trkpt>
      <trkpt lon="34.8624979890883" lat="31.725976997986436">
        <ele>172.0</ele>
        <time>2016-05-14T06:16:43.000Z</time>
      </trkpt>
      <trkpt lon="34.86247795633972" lat="31.726036928594112">
        <ele>172.1999969482422</ele>
        <time>2016-05-14T06:16:45.000Z</time>
      </trkpt>
      <trkpt lon="34.86242598854005" lat="31.72618294134736">
        <ele>172.39999389648438</ele>
        <time>2016-05-14T06:16:50.000Z</time>
      </trkpt>
      <trkpt lon="34.86228995025158" lat="31.72622292302549">
        <ele>172.8000030517578</ele>
        <time>2016-05-14T06:16:54.000Z</time>
      </trkpt>
      <trkpt lon="34.86225692555308" lat="31.726162992417812">
        <ele>173.39999389648438</ele>
        <time>2016-05-14T06:16:57.000Z</time>
      </trkpt>
      <trkpt lon="34.86224896274507" lat="31.726103983819485">
        <ele>174.0</ele>
        <time>2016-05-14T06:17:00.000Z</time>
      </trkpt>
      <trkpt lon="34.862151984125376" lat="31.72604992054403">
        <ele>174.60000610351562</ele>
        <time>2016-05-14T06:17:05.000Z</time>
      </trkpt>
      <trkpt lon="34.86214293166995" lat="31.725999964401126">
        <ele>174.8000030517578</ele>
        <time>2016-05-14T06:17:07.000Z</time>
      </trkpt>
      <trkpt lon="34.86214594915509" lat="31.725909942761064">
        <ele>175.0</ele>
        <time>2016-05-14T06:17:10.000Z</time>
      </trkpt>
      <trkpt lon="34.862065985798836" lat="31.725845988839865">
        <ele>175.60000610351562</ele>
        <time>2016-05-14T06:17:14.000Z</time>
      </trkpt>
      <trkpt lon="34.862022986635566" lat="31.725802989676595">
        <ele>176.1999969482422</ele>
        <time>2016-05-14T06:17:17.000Z</time>
      </trkpt>
      <trkpt lon="34.86200898885727" lat="31.725755967199802">
        <ele>176.39999389648438</ele>
        <time>2016-05-14T06:17:19.000Z</time>
      </trkpt>
      <trkpt lon="34.86195299774408" lat="31.725693941116333">
        <ele>176.60000610351562</ele>
        <time>2016-05-14T06:17:22.000Z</time>
      </trkpt>
      <trkpt lon="34.86190195195377" lat="31.725679943338037">
        <ele>176.8000030517578</ele>
        <time>2016-05-14T06:17:24.000Z</time>
      </trkpt>
      <trkpt lon="34.86179097555578" lat="31.72561699524522">
        <ele>177.8000030517578</ele>
        <time>2016-05-14T06:17:29.000Z</time>
      </trkpt>
      <trkpt lon="34.86176096834242" lat="31.725612971931696">
        <ele>177.8000030517578</ele>
        <time>2016-05-14T06:17:30.000Z</time>
      </trkpt>
      <trkpt lon="34.861702965572476" lat="31.725679943338037">
        <ele>178.39999389648438</ele>
        <time>2016-05-14T06:17:34.000Z</time>
      </trkpt>
      <trkpt lon="34.861675975844264" lat="31.725676925852895">
        <ele>178.60000610351562</ele>
        <time>2016-05-14T06:17:35.000Z</time>
      </trkpt>
      <trkpt lon="34.861572962254286" lat="31.725648930296302">
        <ele>179.39999389648438</ele>
        <time>2016-05-14T06:17:39.000Z</time>
      </trkpt>
      <trkpt lon="34.86145595088601" lat="31.725575923919678">
        <ele>180.1999969482422</ele>
        <time>2016-05-14T06:17:44.000Z</time>
      </trkpt>
      <trkpt lon="34.861379927024245" lat="31.7255109641701">
        <ele>180.60000610351562</ele>
        <time>2016-05-14T06:17:49.000Z</time>
      </trkpt>
      <trkpt lon="34.86127397976816" lat="31.725455978885293">
        <ele>181.1999969482422</ele>
        <time>2016-05-14T06:17:53.000Z</time>
      </trkpt>
      <trkpt lon="34.86122393980622" lat="31.72546897083521">
        <ele>181.1999969482422</ele>
        <time>2016-05-14T06:17:55.000Z</time>
      </trkpt>
      <trkpt lon="34.861185969784856" lat="31.725496966391802">
        <ele>181.39999389648438</ele>
        <time>2016-05-14T06:17:57.000Z</time>
      </trkpt>
      <trkpt lon="34.86114598810673" lat="31.725505935028195">
        <ele>181.60000610351562</ele>
        <time>2016-05-14T06:17:59.000Z</time>
      </trkpt>
      <trkpt lon="34.861053954809904" lat="31.725520938634872">
        <ele>182.39999389648438</ele>
        <time>2016-05-14T06:18:04.000Z</time>
      </trkpt>
      <trkpt lon="34.86095194704831" lat="31.725496966391802">
        <ele>182.8000030517578</ele>
        <time>2016-05-14T06:18:08.000Z</time>
      </trkpt>
      <trkpt lon="34.86089997924864" lat="31.725525967776775">
        <ele>183.0</ele>
        <time>2016-05-14T06:18:12.000Z</time>
      </trkpt>
      <trkpt lon="34.8608969617635" lat="31.725540971383452">
        <ele>183.1999969482422</ele>
        <time>2016-05-14T06:18:13.000Z</time>
      </trkpt>
      <trkpt lon="34.86087592318654" lat="31.725613977760077">
        <ele>184.0</ele>
        <time>2016-05-14T06:18:19.000Z</time>
      </trkpt>
      <trkpt lon="34.8608229495585" lat="31.725607942789793">
        <ele>184.0</ele>
        <time>2016-05-14T06:18:21.000Z</time>
      </trkpt>
      <trkpt lon="34.860645923763514" lat="31.725584976375103">
        <ele>184.60000610351562</ele>
        <time>2016-05-14T06:18:28.000Z</time>
      </trkpt>
      <trkpt lon="34.860516926273704" lat="31.725614983588457">
        <ele>185.0</ele>
        <time>2016-05-14T06:18:33.000Z</time>
      </trkpt>
      <trkpt lon="34.860346941277385" lat="31.72569092363119">
        <ele>185.8000030517578</ele>
        <time>2016-05-14T06:18:40.000Z</time>
      </trkpt>
      <trkpt lon="34.86024996265769" lat="31.72574699856341">
        <ele>186.0</ele>
        <time>2016-05-14T06:18:45.000Z</time>
      </trkpt>
      <trkpt lon="34.86020495183766" lat="31.725846994668245">
        <ele>186.8000030517578</ele>
        <time>2016-05-14T06:18:51.000Z</time>
      </trkpt>
      <trkpt lon="34.860194977372885" lat="31.72586292028427">
        <ele>186.8000030517578</ele>
        <time>2016-05-14T06:18:52.000Z</time>
      </trkpt>
      <trkpt lon="34.86007293686271" lat="31.72592092305422">
        <ele>187.8000030517578</ele>
        <time>2016-05-14T06:18:58.000Z</time>
      </trkpt>
      <trkpt lon="34.86004997044802" lat="31.72592494636774">
        <ele>187.8000030517578</ele>
        <time>2016-05-14T06:18:59.000Z</time>
      </trkpt>
      <trkpt lon="34.85995198599994" lat="31.725908936932683">
        <ele>188.1999969482422</ele>
        <time>2016-05-14T06:19:03.000Z</time>
      </trkpt>
      <trkpt lon="34.859892977401614" lat="31.725911954417825">
        <ele>188.1999969482422</ele>
        <time>2016-05-14T06:19:05.000Z</time>
      </trkpt>
      <trkpt lon="34.85973397269845" lat="31.72583794221282">
        <ele>187.39999389648438</ele>
        <time>2016-05-14T06:19:11.000Z</time>
      </trkpt>
      <trkpt lon="34.85962492413819" lat="31.725830985233188">
        <ele>187.1999969482422</ele>
        <time>2016-05-14T06:19:15.000Z</time>
      </trkpt>
      <trkpt lon="34.85954596661031" lat="31.72585898078978">
        <ele>187.60000610351562</ele>
        <time>2016-05-14T06:19:19.000Z</time>
      </trkpt>
      <trkpt lon="34.85947296023369" lat="31.725840959697962">
        <ele>188.1999969482422</ele>
        <time>2016-05-14T06:19:23.000Z</time>
      </trkpt>
      <trkpt lon="34.85940598882735" lat="31.725810952484608">
        <ele>188.1999969482422</ele>
        <time>2016-05-14T06:19:26.000Z</time>
      </trkpt>
      <trkpt lon="34.85934899188578" lat="31.725717997178435">
        <ele>188.1999969482422</ele>
        <time>2016-05-14T06:19:32.000Z</time>
      </trkpt>
      <trkpt lon="34.85934396274388" lat="31.725668963044882">
        <ele>188.0</ele>
        <time>2016-05-14T06:19:34.000Z</time>
      </trkpt>
      <trkpt lon="34.85928394831717" lat="31.725522950291634">
        <ele>187.0</ele>
        <time>2016-05-14T06:19:39.000Z</time>
      </trkpt>
      <trkpt lon="34.85926592722535" lat="31.725505935028195">
        <ele>187.0</ele>
        <time>2016-05-14T06:19:40.000Z</time>
      </trkpt>
      <trkpt lon="34.859226951375604" lat="31.725374925881624">
        <ele>187.0</ele>
        <time>2016-05-14T06:19:46.000Z</time>
      </trkpt>
      <trkpt lon="34.85925595276058" lat="31.725245928391814">
        <ele>186.60000610351562</ele>
        <time>2016-05-14T06:19:51.000Z</time>
      </trkpt>
      <trkpt lon="34.859289983287454" lat="31.725195972248912">
        <ele>186.1999969482422</ele>
        <time>2016-05-14T06:19:53.000Z</time>
      </trkpt>
      <trkpt lon="34.85939299687743" lat="31.725095976144075">
        <ele>184.60000610351562</ele>
        <time>2016-05-14T06:19:59.000Z</time>
      </trkpt>
      <trkpt lon="34.859418980777264" lat="31.72508591786027">
        <ele>184.39999389648438</ele>
        <time>2016-05-14T06:20:00.000Z</time>
      </trkpt>
      <trkpt lon="34.85944798216224" lat="31.724985921755433">
        <ele>183.39999389648438</ele>
        <time>2016-05-14T06:20:04.000Z</time>
      </trkpt>
      <trkpt lon="34.85953599214554" lat="31.724837981164455">
        <ele>182.0</ele>
        <time>2016-05-14T06:20:10.000Z</time>
      </trkpt>
      <trkpt lon="34.85955895856023" lat="31.724811997264624">
        <ele>181.60000610351562</ele>
        <time>2016-05-14T06:20:11.000Z</time>
      </trkpt>
      <trkpt lon="34.85956197604537" lat="31.72467394731939">
        <ele>181.1999969482422</ele>
        <time>2016-05-14T06:20:16.000Z</time>
      </trkpt>
      <trkpt lon="34.859615955501795" lat="31.724598929286003">
        <ele>181.0</ele>
        <time>2016-05-14T06:20:19.000Z</time>
      </trkpt>
      <trkpt lon="34.85970497131348" lat="31.724412934854627">
        <ele>180.1999969482422</ele>
        <time>2016-05-14T06:20:24.000Z</time>
      </trkpt>
      <trkpt lon="34.85974797047675" lat="31.724335988983512">
        <ele>180.0</ele>
        <time>2016-05-14T06:20:26.000Z</time>
      </trkpt>
      <trkpt lon="34.85982298851013" lat="31.724218977615237">
        <ele>179.39999389648438</ele>
        <time>2016-05-14T06:20:29.000Z</time>
      </trkpt>
      <trkpt lon="34.85988895408809" lat="31.7239429615438">
        <ele>178.8000030517578</ele>
        <time>2016-05-14T06:20:35.000Z</time>
      </trkpt>
      <trkpt lon="34.859983921051025" lat="31.723737940192223">
        <ele>177.60000610351562</ele>
        <time>2016-05-14T06:20:40.000Z</time>
      </trkpt>
      <trkpt lon="34.860043935477734" lat="31.723517999053">
        <ele>175.60000610351562</ele>
        <time>2016-05-14T06:20:46.000Z</time>
      </trkpt>
      <trkpt lon="34.860022980719805" lat="31.723458990454674">
        <ele>175.39999389648438</ele>
        <time>2016-05-14T06:20:48.000Z</time>
      </trkpt>
      <trkpt lon="34.86009397543967" lat="31.723361928015947">
        <ele>175.0</ele>
        <time>2016-05-14T06:20:52.000Z</time>
      </trkpt>
      <trkpt lon="34.86018693074584" lat="31.723223961889744">
        <ele>174.1999969482422</ele>
        <time>2016-05-14T06:20:56.000Z</time>
      </trkpt>
      <trkpt lon="34.86022096127272" lat="31.723162941634655">
        <ele>173.60000610351562</ele>
        <time>2016-05-14T06:20:58.000Z</time>
      </trkpt>
      <trkpt lon="34.86034291796386" lat="31.72306294552982">
        <ele>172.39999389648438</ele>
        <time>2016-05-14T06:21:03.000Z</time>
      </trkpt>
      <trkpt lon="34.86040192656219" lat="31.722929924726486">
        <ele>171.39999389648438</ele>
        <time>2016-05-14T06:21:07.000Z</time>
      </trkpt>
      <trkpt lon="34.86050795763731" lat="31.722793970257044">
        <ele>170.1999969482422</ele>
        <time>2016-05-14T06:21:11.000Z</time>
      </trkpt>
      <trkpt lon="34.86052799038589" lat="31.72267897054553">
        <ele>169.0</ele>
        <time>2016-05-14T06:21:14.000Z</time>
      </trkpt>
      <trkpt lon="34.86046294681728" lat="31.72263597138226">
        <ele>168.60000610351562</ele>
        <time>2016-05-14T06:21:16.000Z</time>
      </trkpt>
      <trkpt lon="34.86027795821428" lat="31.72258995473385">
        <ele>168.60000610351562</ele>
        <time>2016-05-14T06:21:21.000Z</time>
      </trkpt>
      <trkpt lon="34.860130939632654" lat="31.722539998590946">
        <ele>169.0</ele>
        <time>2016-05-14T06:21:26.000Z</time>
      </trkpt>
      <trkpt lon="34.86001895740628" lat="31.722563970834017">
        <ele>169.39999389648438</ele>
        <time>2016-05-14T06:21:30.000Z</time>
      </trkpt>
      <trkpt lon="34.859810918569565" lat="31.72260998748243">
        <ele>170.1999969482422</ele>
        <time>2016-05-14T06:21:36.000Z</time>
      </trkpt>
      <trkpt lon="34.85971393994987" lat="31.722648963332176">
        <ele>170.8000030517578</ele>
        <time>2016-05-14T06:21:40.000Z</time>
      </trkpt>
      <trkpt lon="34.85968795605004" lat="31.72265893779695">
        <ele>170.8000030517578</ele>
        <time>2016-05-14T06:21:41.000Z</time>
      </trkpt>
      <trkpt lon="34.85954093746841" lat="31.722724987193942">
        <ele>171.39999389648438</ele>
        <time>2016-05-14T06:21:46.000Z</time>
      </trkpt>
      <trkpt lon="34.859378999099135" lat="31.722796987742186">
        <ele>172.0</ele>
        <time>2016-05-14T06:21:52.000Z</time>
      </trkpt>
      <trkpt lon="34.859271962195635" lat="31.722815930843353">
        <ele>172.39999389648438</ele>
        <time>2016-05-14T06:21:56.000Z</time>
      </trkpt>
      <trkpt lon="34.85913793556392" lat="31.72287493944168">
        <ele>173.0</ele>
        <time>2016-05-14T06:22:01.000Z</time>
      </trkpt>
      <trkpt lon="34.8590889852494" lat="31.722899917513132">
        <ele>173.0</ele>
        <time>2016-05-14T06:22:03.000Z</time>
      </trkpt>
      <trkpt lon="34.85898295417428" lat="31.7229119874537">
        <ele>172.8000030517578</ele>
        <time>2016-05-14T06:22:08.000Z</time>
      </trkpt>
      <trkpt lon="34.85886896029115" lat="31.722969990223646">
        <ele>172.8000030517578</ele>
        <time>2016-05-14T06:22:13.000Z</time>
      </trkpt>
      <trkpt lon="34.85883694142103" lat="31.722968984395266">
        <ele>172.8000030517578</ele>
        <time>2016-05-14T06:22:14.000Z</time>
      </trkpt>
      <trkpt lon="34.85869998112321" lat="31.722992956638336">
        <ele>172.39999389648438</ele>
        <time>2016-05-14T06:22:18.000Z</time>
      </trkpt>
      <trkpt lon="34.8585709836334" lat="31.72302497550845">
        <ele>171.1999969482422</ele>
        <time>2016-05-14T06:22:22.000Z</time>
      </trkpt>
      <trkpt lon="34.858411978930235" lat="31.72308892942965">
        <ele>170.60000610351562</ele>
        <time>2016-05-14T06:22:27.000Z</time>
      </trkpt>
      <trkpt lon="34.85827694647014" lat="31.72321692109108">
        <ele>172.0</ele>
        <time>2016-05-14T06:22:33.000Z</time>
      </trkpt>
      <trkpt lon="34.85821198672056" lat="31.723306942731142">
        <ele>173.1999969482422</ele>
        <time>2016-05-14T06:22:38.000Z</time>
      </trkpt>
      <trkpt lon="34.858132945373654" lat="31.723326975479722">
        <ele>174.0</ele>
        <time>2016-05-14T06:22:42.000Z</time>
      </trkpt>
      <trkpt lon="34.85804292373359" lat="31.723339967429638">
        <ele>173.39999389648438</ele>
        <time>2016-05-14T06:22:47.000Z</time>
      </trkpt>
      <trkpt lon="34.85797192901373" lat="31.723328987136483">
        <ele>173.39999389648438</ele>
        <time>2016-05-14T06:22:51.000Z</time>
      </trkpt>
      <trkpt lon="34.857850978150964" lat="31.723288921639323">
        <ele>172.60000610351562</ele>
        <time>2016-05-14T06:22:56.000Z</time>
      </trkpt>
      <trkpt lon="34.85775098204613" lat="31.723252963274717">
        <ele>172.1999969482422</ele>
        <time>2016-05-14T06:23:00.000Z</time>
      </trkpt>
      <trkpt lon="34.85769792459905" lat="31.723185991868377">
        <ele>172.1999969482422</ele>
        <time>2016-05-14T06:23:05.000Z</time>
      </trkpt>
      <trkpt lon="34.85770697705448" lat="31.723178951069713">
        <ele>171.60000610351562</ele>
        <time>2016-05-14T06:27:50.000Z</time>
      </trkpt>
      <trkpt lon="34.857746958732605" lat="31.72308892942965">
        <ele>171.0</ele>
        <time>2016-05-14T06:27:55.000Z</time>
      </trkpt>
      <trkpt lon="34.85780294984579" lat="31.722982982173562">
        <ele>170.1999969482422</ele>
        <time>2016-05-14T06:27:58.000Z</time>
      </trkpt>
      <trkpt lon="34.85790898092091" lat="31.722816936671734">
        <ele>169.0</ele>
        <time>2016-05-14T06:28:02.000Z</time>
      </trkpt>
      <trkpt lon="34.85798894427717" lat="31.722663966938853">
        <ele>168.1999969482422</ele>
        <time>2016-05-14T06:28:05.000Z</time>
      </trkpt>
      <trkpt lon="34.85801098868251" lat="31.72261795029044">
        <ele>168.0</ele>
        <time>2016-05-14T06:28:06.000Z</time>
      </trkpt>
      <trkpt lon="34.858048958703876" lat="31.722534969449043">
        <ele>168.0</ele>
        <time>2016-05-14T06:28:08.000Z</time>
      </trkpt>
      <trkpt lon="34.858238976448774" lat="31.722324918955564">
        <ele>166.60000610351562</ele>
        <time>2016-05-14T06:28:13.000Z</time>
      </trkpt>
      <trkpt lon="34.858412984758615" lat="31.722173960879445">
        <ele>165.8000030517578</ele>
        <time>2016-05-14T06:28:18.000Z</time>
      </trkpt>
      <trkpt lon="34.858459923416376" lat="31.72211696393788">
        <ele>165.1999969482422</ele>
        <time>2016-05-14T06:28:20.000Z</time>
      </trkpt>
      <trkpt lon="34.858545921742916" lat="31.72205594368279">
        <ele>164.60000610351562</ele>
        <time>2016-05-14T06:28:22.000Z</time>
      </trkpt>
      <trkpt lon="34.858692940324545" lat="31.721892999485135">
        <ele>163.39999389648438</ele>
        <time>2016-05-14T06:28:26.000Z</time>
      </trkpt>
      <trkpt lon="34.858841970562935" lat="31.72173298895359">
        <ele>162.39999389648438</ele>
        <time>2016-05-14T06:28:31.000Z</time>
      </trkpt>
      <trkpt lon="34.859034921973944" lat="31.721573984250426">
        <ele>162.0</ele>
        <time>2016-05-14T06:28:37.000Z</time>
      </trkpt>
      <trkpt lon="34.859074987471104" lat="31.721545988693833">
        <ele>161.60000610351562</ele>
        <time>2016-05-14T06:28:38.000Z</time>
      </trkpt>
      <trkpt lon="34.85919199883938" lat="31.72143593430519">
        <ele>161.0</ele>
        <time>2016-05-14T06:28:41.000Z</time>
      </trkpt>
      <trkpt lon="34.859335999935865" lat="31.721203923225403">
        <ele>159.8000030517578</ele>
        <time>2016-05-14T06:28:47.000Z</time>
      </trkpt>
      <trkpt lon="34.85936399549246" lat="31.72117894515395">
        <ele>159.60000610351562</ele>
        <time>2016-05-14T06:28:48.000Z</time>
      </trkpt>
      <trkpt lon="34.8594119399786" lat="31.721038967370987">
        <ele>158.1999969482422</ele>
        <time>2016-05-14T06:28:53.000Z</time>
      </trkpt>
      <trkpt lon="34.85943398438394" lat="31.72094391658902">
        <ele>157.8000030517578</ele>
        <time>2016-05-14T06:28:56.000Z</time>
      </trkpt>
      <trkpt lon="34.859449993819" lat="31.720836963504553">
        <ele>157.1999969482422</ele>
        <time>2016-05-14T06:28:59.000Z</time>
      </trkpt>
      <trkpt lon="34.8594119399786" lat="31.720778960734606">
        <ele>156.8000030517578</ele>
        <time>2016-05-14T06:29:01.000Z</time>
      </trkpt>
      <trkpt lon="34.859336921945214" lat="31.72051291912794">
        <ele>156.39999389648438</ele>
        <time>2016-05-14T06:29:08.000Z</time>
      </trkpt>
      <trkpt lon="34.8593289591372" lat="31.72034092247486">
        <ele>154.8000030517578</ele>
        <time>2016-05-14T06:29:13.000Z</time>
      </trkpt>
      <trkpt lon="34.859293922781944" lat="31.720276968553662">
        <ele>154.8000030517578</ele>
        <time>2016-05-14T06:29:15.000Z</time>
      </trkpt>
      <trkpt lon="34.859229968860745" lat="31.720106983557343">
        <ele>154.8000030517578</ele>
        <time>2016-05-14T06:29:19.000Z</time>
      </trkpt>
      <trkpt lon="34.859080938622355" lat="31.71984597109258">
        <ele>153.8000030517578</ele>
        <time>2016-05-14T06:29:25.000Z</time>
      </trkpt>
      <trkpt lon="34.85896493308246" lat="31.719682943075895">
        <ele>153.1999969482422</ele>
        <time>2016-05-14T06:29:29.000Z</time>
      </trkpt>
      <trkpt lon="34.85883593559265" lat="31.719588981941342">
        <ele>152.8000030517578</ele>
        <time>2016-05-14T06:29:32.000Z</time>
      </trkpt>
      <trkpt lon="34.858475932851434" lat="31.71932897530496">
        <ele>152.0</ele>
        <time>2016-05-14T06:29:40.000Z</time>
      </trkpt>
      <trkpt lon="34.858391946181655" lat="31.71926292590797">
        <ele>151.8000030517578</ele>
        <time>2016-05-14T06:29:42.000Z</time>
      </trkpt>
      <trkpt lon="34.85828993842006" lat="31.71908799558878">
        <ele>151.8000030517578</ele>
        <time>2016-05-14T06:29:46.000Z</time>
      </trkpt>
      <trkpt lon="34.85821198672056" lat="31.718820948153734">
        <ele>153.0</ele>
        <time>2016-05-14T06:29:52.000Z</time>
      </trkpt>
      <trkpt lon="34.85808097757399" lat="31.718743918463588">
        <ele>154.60000610351562</ele>
        <time>2016-05-14T06:29:56.000Z</time>
      </trkpt>
      <trkpt lon="34.85804099589586" lat="31.718708965927362">
        <ele>155.39999389648438</ele>
        <time>2016-05-14T06:29:58.000Z</time>
      </trkpt>
      <trkpt lon="34.85801794566214" lat="31.718687927350402">
        <ele>155.60000610351562</ele>
        <time>2016-05-14T06:29:59.000Z</time>
      </trkpt>
      <trkpt lon="34.857918955385685" lat="31.71863897703588">
        <ele>156.39999389648438</ele>
        <time>2016-05-14T06:30:04.000Z</time>
      </trkpt>
      <trkpt lon="34.85780093818903" lat="31.718609975650907">
        <ele>157.8000030517578</ele>
        <time>2016-05-14T06:30:09.000Z</time>
      </trkpt>
      <trkpt lon="34.8577609565109" lat="31.718559935688972">
        <ele>158.1999969482422</ele>
        <time>2016-05-14T06:30:11.000Z</time>
      </trkpt>
      <trkpt lon="34.85771493986249" lat="31.718498999252915">
        <ele>158.60000610351562</ele>
        <time>2016-05-14T06:30:14.000Z</time>
      </trkpt>
      <trkpt lon="34.8577419295907" lat="31.718387939035892">
        <ele>158.39999389648438</ele>
        <time>2016-05-14T06:30:18.000Z</time>
      </trkpt>
      <trkpt lon="34.857684932649136" lat="31.718263970687985">
        <ele>157.60000610351562</ele>
        <time>2016-05-14T06:30:22.000Z</time>
      </trkpt>
      <trkpt lon="34.85753699205816" lat="31.71812198124826">
        <ele>157.1999969482422</ele>
        <time>2016-05-14T06:30:28.000Z</time>
      </trkpt>
      <trkpt lon="34.85750497318804" lat="31.71810194849968">
        <ele>157.0</ele>
        <time>2016-05-14T06:30:29.000Z</time>
      </trkpt>
      <trkpt lon="34.85718193463981" lat="31.718116952106357">
        <ele>157.1999969482422</ele>
        <time>2016-05-14T06:30:37.000Z</time>
      </trkpt>
      <trkpt lon="34.85703097656369" lat="31.718140924349427">
        <ele>157.60000610351562</ele>
        <time>2016-05-14T06:30:41.000Z</time>
      </trkpt>
      <trkpt lon="34.85685093328357" lat="31.718192975968122">
        <ele>158.60000610351562</ele>
        <time>2016-05-14T06:30:46.000Z</time>
      </trkpt>
      <trkpt lon="34.8567299824208" lat="31.718239998444915">
        <ele>159.1999969482422</ele>
        <time>2016-05-14T06:30:49.000Z</time>
      </trkpt>
      <trkpt lon="34.85649696551263" lat="31.71829791739583">
        <ele>159.8000030517578</ele>
        <time>2016-05-14T06:30:55.000Z</time>
      </trkpt>
      <trkpt lon="34.85637894831598" lat="31.71835499815643">
        <ele>159.8000030517578</ele>
        <time>2016-05-14T06:30:58.000Z</time>
      </trkpt>
      <trkpt lon="34.856202928349376" lat="31.71848894096911">
        <ele>160.8000030517578</ele>
        <time>2016-05-14T06:31:04.000Z</time>
      </trkpt>
      <trkpt lon="34.856091951951385" lat="31.71860092319548">
        <ele>162.1999969482422</ele>
        <time>2016-05-14T06:31:09.000Z</time>
      </trkpt>
      <trkpt lon="34.855987932533026" lat="31.718720952048898">
        <ele>163.39999389648438</ele>
        <time>2016-05-14T06:31:14.000Z</time>
      </trkpt>
      <trkpt lon="34.85590998083353" lat="31.718822959810495">
        <ele>164.0</ele>
        <time>2016-05-14T06:31:18.000Z</time>
      </trkpt>
      <trkpt lon="34.85595599748194" lat="31.71887693926692">
        <ele>164.60000610351562</ele>
        <time>2016-05-14T06:31:22.000Z</time>
      </trkpt>
      <trkpt lon="34.856133945286274" lat="31.718826983124018">
        <ele>165.8000030517578</ele>
        <time>2016-05-14T06:31:27.000Z</time>
      </trkpt>
      <trkpt lon="34.856264954432845" lat="31.71878892928362">
        <ele>166.60000610351562</ele>
        <time>2016-05-14T06:31:31.000Z</time>
      </trkpt>
      <trkpt lon="34.85631792806089" lat="31.71883595176041">
        <ele>167.39999389648438</ele>
        <time>2016-05-14T06:31:34.000Z</time>
      </trkpt>
      <trkpt lon="34.85629596747458" lat="31.718931924551725">
        <ele>169.1999969482422</ele>
        <time>2016-05-14T06:31:39.000Z</time>
      </trkpt>
      <trkpt lon="34.85621893778443" lat="31.719018928706646">
        <ele>170.0</ele>
        <time>2016-05-14T06:31:43.000Z</time>
      </trkpt>
      <trkpt lon="34.85617493279278" lat="31.71908598393202">
        <ele>170.1999969482422</ele>
        <time>2016-05-14T06:31:46.000Z</time>
      </trkpt>
      <trkpt lon="34.85614391975105" lat="31.71915496699512">
        <ele>170.60000610351562</ele>
        <time>2016-05-14T06:31:49.000Z</time>
      </trkpt>
      <trkpt lon="34.85616797581315" lat="31.71930399723351">
        <ele>171.60000610351562</ele>
        <time>2016-05-14T06:31:56.000Z</time>
      </trkpt>
      <trkpt lon="34.856197983026505" lat="31.71934892423451">
        <ele>172.39999389648438</ele>
        <time>2016-05-14T06:31:59.000Z</time>
      </trkpt>
      <trkpt lon="34.85617493279278" lat="31.71943794004619">
        <ele>173.0</ele>
        <time>2016-05-14T06:32:04.000Z</time>
      </trkpt>
      <trkpt lon="34.856203934177756" lat="31.719555957242846">
        <ele>174.0</ele>
        <time>2016-05-14T06:32:09.000Z</time>
      </trkpt>
      <trkpt lon="34.85622698441148" lat="31.71965293586254">
        <ele>174.8000030517578</ele>
        <time>2016-05-14T06:32:13.000Z</time>
      </trkpt>
      <trkpt lon="34.85625799745321" lat="31.719750920310616">
        <ele>175.60000610351562</ele>
        <time>2016-05-14T06:32:18.000Z</time>
      </trkpt>
      <trkpt lon="34.856243999674916" lat="31.71978293918073">
        <ele>175.8000030517578</ele>
        <time>2016-05-14T06:32:20.000Z</time>
      </trkpt>
      <trkpt lon="34.85625598579645" lat="31.71986692585051">
        <ele>176.39999389648438</ele>
        <time>2016-05-14T06:32:25.000Z</time>
      </trkpt>
      <trkpt lon="34.85618398524821" lat="31.72001193277538">
        <ele>177.39999389648438</ele>
        <time>2016-05-14T06:32:33.000Z</time>
      </trkpt>
      <trkpt lon="34.856158923357725" lat="31.72003992833197">
        <ele>177.60000610351562</ele>
        <time>2016-05-14T06:32:35.000Z</time>
      </trkpt>
      <trkpt lon="34.85608692280948" lat="31.720160963013768">
        <ele>178.60000610351562</ele>
        <time>2016-05-14T06:32:42.000Z</time>
      </trkpt>
      <trkpt lon="34.85601793974638" lat="31.720246961340308">
        <ele>179.1999969482422</ele>
        <time>2016-05-14T06:32:47.000Z</time>
      </trkpt>
      <trkpt lon="34.85600092448294" lat="31.720285937190056">
        <ele>179.39999389648438</ele>
        <time>2016-05-14T06:32:49.000Z</time>
      </trkpt>
      <trkpt lon="34.855897994711995" lat="31.72038492746651">
        <ele>180.60000610351562</ele>
        <time>2016-05-14T06:32:55.000Z</time>
      </trkpt>
      <trkpt lon="34.85575692728162" lat="31.720432955771685">
        <ele>181.0</ele>
        <time>2016-05-14T06:33:00.000Z</time>
      </trkpt>
      <trkpt lon="34.85557193867862" lat="31.720428932458162">
        <ele>180.8000030517578</ele>
        <time>2016-05-14T06:33:05.000Z</time>
      </trkpt>
      <trkpt lon="34.85521998256445" lat="31.720350980758667">
        <ele>180.60000610351562</ele>
        <time>2016-05-14T06:33:13.000Z</time>
      </trkpt>
      <trkpt lon="34.85515099950135" lat="31.720304964110255">
        <ele>180.60000610351562</ele>
        <time>2016-05-14T06:33:15.000Z</time>
      </trkpt>
      <trkpt lon="34.85501093789935" lat="31.720110923051834">
        <ele>179.39999389648438</ele>
        <time>2016-05-14T06:33:20.000Z</time>
      </trkpt>
      <trkpt lon="34.85499392263591" lat="31.72003598883748">
        <ele>178.8000030517578</ele>
        <time>2016-05-14T06:33:22.000Z</time>
      </trkpt>
      <trkpt lon="34.85486098565161" lat="31.71988897025585">
        <ele>177.1999969482422</ele>
        <time>2016-05-14T06:33:28.000Z</time>
      </trkpt>
      <trkpt lon="34.85483592376113" lat="31.719828955829144">
        <ele>177.39999389648438</ele>
        <time>2016-05-14T06:33:32.000Z</time>
      </trkpt>
      <trkpt lon="34.854912953451276" lat="31.719815963879228">
        <ele>176.60000610351562</ele>
        <time>2016-05-14T06:33:36.000Z</time>
      </trkpt>
      <trkpt lon="34.85496299341321" lat="31.719853933900595">
        <ele>175.8000030517578</ele>
        <time>2016-05-14T06:33:39.000Z</time>
      </trkpt>
      <trkpt lon="34.85501093789935" lat="31.719789979979396">
        <ele>175.0</ele>
        <time>2016-05-14T06:33:44.000Z</time>
      </trkpt>
      <trkpt lon="34.85500892624259" lat="31.719701969996095">
        <ele>173.39999389648438</ele>
        <time>2016-05-14T06:33:48.000Z</time>
      </trkpt>
      <trkpt lon="34.85495997592807" lat="31.719635920599103">
        <ele>172.60000610351562</ele>
        <time>2016-05-14T06:33:52.000Z</time>
      </trkpt>
      <trkpt lon="34.85494597814977" lat="31.719597950577736">
        <ele>172.39999389648438</ele>
        <time>2016-05-14T06:33:54.000Z</time>
      </trkpt>
      <trkpt lon="34.854847993701696" lat="31.71938697807491">
        <ele>170.8000030517578</ele>
        <time>2016-05-14T06:34:01.000Z</time>
      </trkpt>
      <trkpt lon="34.854843970388174" lat="31.71930491924286">
        <ele>170.1999969482422</ele>
        <time>2016-05-14T06:34:03.000Z</time>
      </trkpt>
      <trkpt lon="34.85481195151806" lat="31.719114985316992">
        <ele>169.1999969482422</ele>
        <time>2016-05-14T06:34:07.000Z</time>
      </trkpt>
      <trkpt lon="34.85486593097448" lat="31.718987999483943">
        <ele>167.8000030517578</ele>
        <time>2016-05-14T06:34:12.000Z</time>
      </trkpt>
      <trkpt lon="34.8548649251461" lat="31.718862941488624">
        <ele>166.39999389648438</ele>
        <time>2016-05-14T06:34:15.000Z</time>
      </trkpt>
      <trkpt lon="34.85483793541789" lat="31.718709971755743">
        <ele>167.0</ele>
        <time>2016-05-14T06:34:20.000Z</time>
      </trkpt>
      <trkpt lon="34.85483592376113" lat="31.718676947057247">
        <ele>167.1999969482422</ele>
        <time>2016-05-14T06:34:21.000Z</time>
      </trkpt>
      <trkpt lon="34.854800971224904" lat="31.71850796788931">
        <ele>167.1999969482422</ele>
        <time>2016-05-14T06:34:26.000Z</time>
      </trkpt>
      <trkpt lon="34.85483198426664" lat="31.71833496540785">
        <ele>167.39999389648438</ele>
        <time>2016-05-14T06:34:32.000Z</time>
      </trkpt>
      <trkpt lon="34.85485997982323" lat="31.71823094598949">
        <ele>167.60000610351562</ele>
        <time>2016-05-14T06:34:36.000Z</time>
      </trkpt>
      <trkpt lon="34.85490893013775" lat="31.718115946277976">
        <ele>168.1999969482422</ele>
        <time>2016-05-14T06:34:41.000Z</time>
      </trkpt>
      <trkpt lon="34.8549169767648" lat="31.718054926022887">
        <ele>168.1999969482422</ele>
        <time>2016-05-14T06:34:43.000Z</time>
      </trkpt>
      <trkpt lon="34.8549719620496" lat="31.717940932139754">
        <ele>168.39999389648438</ele>
        <time>2016-05-14T06:34:47.000Z</time>
      </trkpt>
      <trkpt lon="34.85505796037614" lat="31.71778092160821">
        <ele>168.60000610351562</ele>
        <time>2016-05-14T06:34:52.000Z</time>
      </trkpt>
      <trkpt lon="34.855167930945754" lat="31.7176899779588">
        <ele>168.1999969482422</ele>
        <time>2016-05-14T06:34:56.000Z</time>
      </trkpt>
      <trkpt lon="34.85533095896244" lat="31.717594927176833">
        <ele>166.60000610351562</ele>
        <time>2016-05-14T06:35:01.000Z</time>
      </trkpt>
      <trkpt lon="34.8554019536823" lat="31.717536924406886">
        <ele>166.39999389648438</ele>
        <time>2016-05-14T06:35:03.000Z</time>
      </trkpt>
      <trkpt lon="34.85548694618046" lat="31.71747498214245">
        <ele>165.8000030517578</ele>
        <time>2016-05-14T06:35:05.000Z</time>
      </trkpt>
      <trkpt lon="34.85572197474539" lat="31.717254957184196">
        <ele>164.1999969482422</ele>
        <time>2016-05-14T06:35:10.000Z</time>
      </trkpt>
      <trkpt lon="34.85582297667861" lat="31.7170699685812">
        <ele>163.60000610351562</ele>
        <time>2016-05-14T06:35:14.000Z</time>
      </trkpt>
      <trkpt lon="34.85584292560816" lat="31.71702797524631">
        <ele>163.60000610351562</ele>
        <time>2016-05-14T06:35:15.000Z</time>
      </trkpt>
      <trkpt lon="34.85597292892635" lat="31.716808956116438">
        <ele>163.39999389648438</ele>
        <time>2016-05-14T06:35:21.000Z</time>
      </trkpt>
      <trkpt lon="34.85615096054971" lat="31.71668498776853">
        <ele>162.39999389648438</ele>
        <time>2016-05-14T06:35:25.000Z</time>
      </trkpt>
      <trkpt lon="34.856220949441195" lat="31.71651399694383">
        <ele>161.8000030517578</ele>
        <time>2016-05-14T06:35:29.000Z</time>
      </trkpt>
      <trkpt lon="34.85621298663318" lat="31.716444930061698">
        <ele>161.60000610351562</ele>
        <time>2016-05-14T06:35:31.000Z</time>
      </trkpt>
      <trkpt lon="34.856329998001456" lat="31.71633797697723">
        <ele>161.1999969482422</ele>
        <time>2016-05-14T06:35:35.000Z</time>
      </trkpt>
      <trkpt lon="34.85639093443751" lat="31.71616899780929">
        <ele>160.0</ele>
        <time>2016-05-14T06:35:39.000Z</time>
      </trkpt>
      <trkpt lon="34.85638498328626" lat="31.716074952855706">
        <ele>159.60000610351562</ele>
        <time>2016-05-14T06:35:41.000Z</time>
      </trkpt>
      <trkpt lon="34.85642295330763" lat="31.715836990624666">
        <ele>159.1999969482422</ele>
        <time>2016-05-14T06:35:46.000Z</time>
      </trkpt>
      <trkpt lon="34.85640392638743" lat="31.715743951499462">
        <ele>158.60000610351562</ele>
        <time>2016-05-14T06:35:48.000Z</time>
      </trkpt>
      <trkpt lon="34.85636193305254" lat="31.715624928474426">
        <ele>157.60000610351562</ele>
        <time>2016-05-14T06:35:51.000Z</time>
      </trkpt>
      <trkpt lon="34.85621499828994" lat="31.71543398872018">
        <ele>155.8000030517578</ele>
        <time>2016-05-14T06:35:56.000Z</time>
      </trkpt>
      <trkpt lon="34.85599597916007" lat="31.715302979573607">
        <ele>154.60000610351562</ele>
        <time>2016-05-14T06:36:01.000Z</time>
      </trkpt>
      <trkpt lon="34.85572197474539" lat="31.715212957933545">
        <ele>153.60000610351562</ele>
        <time>2016-05-14T06:36:06.000Z</time>
      </trkpt>
      <trkpt lon="34.855509996414185" lat="31.715147998183966">
        <ele>153.0</ele>
        <time>2016-05-14T06:36:10.000Z</time>
      </trkpt>
      <trkpt lon="34.85535099171102" lat="31.71511991880834">
        <ele>153.39999389648438</ele>
        <time>2016-05-14T06:36:14.000Z</time>
      </trkpt>
      <trkpt lon="34.85520296730101" lat="31.714981952682137">
        <ele>154.39999389648438</ele>
        <time>2016-05-14T06:36:20.000Z</time>
      </trkpt>
      <trkpt lon="34.85516399145126" lat="31.714912969619036">
        <ele>154.60000610351562</ele>
        <time>2016-05-14T06:36:22.000Z</time>
      </trkpt>
      <trkpt lon="34.85503499396145" lat="31.714865947142243">
        <ele>154.1999969482422</ele>
        <time>2016-05-14T06:36:26.000Z</time>
      </trkpt>
      <trkpt lon="34.85494991764426" lat="31.714829988777637">
        <ele>153.1999969482422</ele>
        <time>2016-05-14T06:36:29.000Z</time>
      </trkpt>
      <trkpt lon="34.85489593818784" lat="31.714754970744252">
        <ele>152.0</ele>
        <time>2016-05-14T06:36:32.000Z</time>
      </trkpt>
      <trkpt lon="34.854760989546776" lat="31.714745918288827">
        <ele>151.0</ele>
        <time>2016-05-14T06:36:35.000Z</time>
      </trkpt>
      <trkpt lon="34.854588992893696" lat="31.7146229557693">
        <ele>149.39999389648438</ele>
        <time>2016-05-14T06:36:38.000Z</time>
      </trkpt>
      <trkpt lon="34.8543989751488" lat="31.714628990739584">
        <ele>147.8000030517578</ele>
        <time>2016-05-14T06:36:41.000Z</time>
      </trkpt>
      <trkpt lon="34.85434298403561" lat="31.714659919962287">
        <ele>147.60000610351562</ele>
        <time>2016-05-14T06:36:42.000Z</time>
      </trkpt>
      <trkpt lon="34.854289926588535" lat="31.71479294076562">
        <ele>147.60000610351562</ele>
        <time>2016-05-14T06:36:45.000Z</time>
      </trkpt>
      <trkpt lon="34.85439193435013" lat="31.714845998212695">
        <ele>148.8000030517578</ele>
        <time>2016-05-14T06:36:48.000Z</time>
      </trkpt>
      <trkpt lon="34.85449796542525" lat="31.714849937707186">
        <ele>149.39999389648438</ele>
        <time>2016-05-14T06:36:50.000Z</time>
      </trkpt>
      <trkpt lon="34.85476593486965" lat="31.714932918548584">
        <ele>150.60000610351562</ele>
        <time>2016-05-14T06:36:56.000Z</time>
      </trkpt>
      <trkpt lon="34.854698963463306" lat="31.71502796933055">
        <ele>151.39999389648438</ele>
        <time>2016-05-14T06:37:00.000Z</time>
      </trkpt>
      <trkpt lon="34.854585975408554" lat="31.715044984593987">
        <ele>151.8000030517578</ele>
        <time>2016-05-14T06:37:03.000Z</time>
      </trkpt>
      <trkpt lon="34.85458195209503" lat="31.71511396765709">
        <ele>152.39999389648438</ele>
        <time>2016-05-14T06:37:06.000Z</time>
      </trkpt>
      <trkpt lon="34.85462092794478" lat="31.715125953778625">
        <ele>152.60000610351562</ele>
        <time>2016-05-14T06:37:07.000Z</time>
      </trkpt>
      <trkpt lon="34.8548979498446" lat="31.71518093906343">
        <ele>153.8000030517578</ele>
        <time>2016-05-14T06:37:14.000Z</time>
      </trkpt>
      <trkpt lon="34.8548789229244" lat="31.715256962925196">
        <ele>154.8000030517578</ele>
        <time>2016-05-14T06:37:18.000Z</time>
      </trkpt>
      <trkpt lon="34.854737939313054" lat="31.71532896347344">
        <ele>156.39999389648438</ele>
        <time>2016-05-14T06:37:25.000Z</time>
      </trkpt>
      <trkpt lon="34.85460198484361" lat="31.715306919068098">
        <ele>157.0</ele>
        <time>2016-05-14T06:37:31.000Z</time>
      </trkpt>
      <trkpt lon="34.8544869851321" lat="31.715296944603324">
        <ele>158.60000610351562</ele>
        <time>2016-05-14T06:37:36.000Z</time>
      </trkpt>
      <trkpt lon="34.85433594323695" lat="31.715316977351904">
        <ele>159.60000610351562</ele>
        <time>2016-05-14T06:37:41.000Z</time>
      </trkpt>
      <trkpt lon="34.854112984612584" lat="31.71535293571651">
        <ele>160.39999389648438</ele>
        <time>2016-05-14T06:37:48.000Z</time>
      </trkpt>
      <trkpt lon="34.85407694242895" lat="31.715428959578276">
        <ele>161.0</ele>
        <time>2016-05-14T06:37:52.000Z</time>
      </trkpt>
      <trkpt lon="34.8540879227221" lat="31.715489979833364">
        <ele>162.1999969482422</ele>
        <time>2016-05-14T06:37:56.000Z</time>
      </trkpt>
      <trkpt lon="34.854200994595885" lat="31.715517975389957">
        <ele>163.0</ele>
        <time>2016-05-14T06:38:02.000Z</time>
      </trkpt>
      <trkpt lon="34.854224966838956" lat="31.715529961511493">
        <ele>163.1999969482422</ele>
        <time>2016-05-14T06:38:03.000Z</time>
      </trkpt>
      <trkpt lon="34.854285987094045" lat="31.715570949018">
        <ele>163.39999389648438</ele>
        <time>2016-05-14T06:38:06.000Z</time>
      </trkpt>
      <trkpt lon="34.85430099070072" lat="31.715657953172922">
        <ele>164.1999969482422</ele>
        <time>2016-05-14T06:38:11.000Z</time>
      </trkpt>
      <trkpt lon="34.85419194214046" lat="31.715680919587612">
        <ele>164.8000030517578</ele>
        <time>2016-05-14T06:38:16.000Z</time>
      </trkpt>
      <trkpt lon="34.85409194603562" lat="31.71571796759963">
        <ele>165.39999389648438</ele>
        <time>2016-05-14T06:38:21.000Z</time>
      </trkpt>
      <trkpt lon="34.854070991277695" lat="31.71571696177125">
        <ele>165.60000610351562</ele>
        <time>2016-05-14T06:38:22.000Z</time>
      </trkpt>
      <trkpt lon="34.85401793383062" lat="31.715723918750882">
        <ele>165.60000610351562</ele>
        <time>2016-05-14T06:38:24.000Z</time>
      </trkpt>
      <trkpt lon="34.85393394716084" lat="31.715786950662732">
        <ele>166.0</ele>
        <time>2016-05-14T06:38:29.000Z</time>
      </trkpt>
      <trkpt lon="34.85388399101794" lat="31.715873954817653">
        <ele>166.1999969482422</ele>
        <time>2016-05-14T06:38:33.000Z</time>
      </trkpt>
      <trkpt lon="34.85380394384265" lat="31.716051986441016">
        <ele>167.39999389648438</ele>
        <time>2016-05-14T06:38:40.000Z</time>
      </trkpt>
      <trkpt lon="34.853681987151504" lat="31.716221971437335">
        <ele>167.39999389648438</ele>
        <time>2016-05-14T06:38:46.000Z</time>
      </trkpt>
      <trkpt lon="34.853576961904764" lat="31.71636094339192">
        <ele>167.60000610351562</ele>
        <time>2016-05-14T06:38:51.000Z</time>
      </trkpt>
      <trkpt lon="34.85349792055786" lat="31.716456916183233">
        <ele>168.0</ele>
        <time>2016-05-14T06:38:55.000Z</time>
      </trkpt>
      <trkpt lon="34.85336598940194" lat="31.71653595753014">
        <ele>168.0</ele>
        <time>2016-05-14T06:38:59.000Z</time>
      </trkpt>
      <trkpt lon="34.853020990267396" lat="31.716625979170203">
        <ele>166.1999969482422</ele>
        <time>2016-05-14T06:39:05.000Z</time>
      </trkpt>
      <trkpt lon="34.85287799499929" lat="31.716648945584893">
        <ele>165.60000610351562</ele>
        <time>2016-05-14T06:39:07.000Z</time>
      </trkpt>
      <trkpt lon="34.85271194949746" lat="31.71672496944666">
        <ele>166.0</ele>
        <time>2016-05-14T06:39:11.000Z</time>
      </trkpt>
      <trkpt lon="34.85271396115422" lat="31.716797975823283">
        <ele>166.8000030517578</ele>
        <time>2016-05-14T06:39:15.000Z</time>
      </trkpt>
      <trkpt lon="34.852741956710815" lat="31.716841980814934">
        <ele>167.39999389648438</ele>
        <time>2016-05-14T06:39:20.000Z</time>
      </trkpt>
      <trkpt lon="34.85274991951883" lat="31.716841980814934">
        <ele>167.39999389648438</ele>
        <time>2016-05-14T06:39:30.000Z</time>
      </trkpt>
      <trkpt lon="34.85275293700397" lat="31.716831922531128">
        <ele>167.39999389648438</ele>
        <time>2016-05-14T06:39:43.000Z</time>
      </trkpt>
      <trkpt lon="34.85279199667275" lat="31.716815996915102">
        <ele>168.0</ele>
        <time>2016-05-14T06:43:08.000Z</time>
      </trkpt>
      <trkpt lon="34.85278897918761" lat="31.716815996915102">
        <ele>168.0</ele>
        <time>2016-05-14T06:43:13.000Z</time>
      </trkpt>
      <trkpt lon="34.85268194228411" lat="31.71681792475283">
        <ele>168.1999969482422</ele>
        <time>2016-05-14T06:43:18.000Z</time>
      </trkpt>
      <trkpt lon="34.85259896144271" lat="31.716697979718447">
        <ele>168.39999389648438</ele>
        <time>2016-05-14T06:43:24.000Z</time>
      </trkpt>
      <trkpt lon="34.85251296311617" lat="31.71661499887705">
        <ele>168.8000030517578</ele>
        <time>2016-05-14T06:43:28.000Z</time>
      </trkpt>
      <trkpt lon="34.852332919836044" lat="31.716524977236986">
        <ele>169.60000610351562</ele>
        <time>2016-05-14T06:43:34.000Z</time>
      </trkpt>
      <trkpt lon="34.85221892595291" lat="31.716440990567207">
        <ele>170.39999389648438</ele>
        <time>2016-05-14T06:43:38.000Z</time>
      </trkpt>
      <trkpt lon="34.85218699090183" lat="31.71636295504868">
        <ele>170.60000610351562</ele>
        <time>2016-05-14T06:43:41.000Z</time>
      </trkpt>
      <trkpt lon="34.852117924019694" lat="31.716204956173897">
        <ele>171.1999969482422</ele>
        <time>2016-05-14T06:43:47.000Z</time>
      </trkpt>
      <trkpt lon="34.85207995399833" lat="31.716096997261047">
        <ele>171.60000610351562</ele>
        <time>2016-05-14T06:43:51.000Z</time>
      </trkpt>
      <trkpt lon="34.85203594900668" lat="31.716049974784255">
        <ele>172.0</ele>
        <time>2016-05-14T06:43:54.000Z</time>
      </trkpt>
      <trkpt lon="34.85198398120701" lat="31.71593296341598">
        <ele>172.1999969482422</ele>
        <time>2016-05-14T06:44:00.000Z</time>
      </trkpt>
      <trkpt lon="34.85193897038698" lat="31.71582793816924">
        <ele>172.1999969482422</ele>
        <time>2016-05-14T06:44:04.000Z</time>
      </trkpt>
      <trkpt lon="34.851836962625384" lat="31.71574294567108">
        <ele>172.0</ele>
        <time>2016-05-14T06:44:09.000Z</time>
      </trkpt>
      <trkpt lon="34.85179798677564" lat="31.715708998963237">
        <ele>172.0</ele>
        <time>2016-05-14T06:44:11.000Z</time>
      </trkpt>
      <trkpt lon="34.85174392350018" lat="31.715643955394626">
        <ele>172.0</ele>
        <time>2016-05-14T06:44:14.000Z</time>
      </trkpt>
      <trkpt lon="34.85175792127848" lat="31.715512946248055">
        <ele>171.60000610351562</ele>
        <time>2016-05-14T06:44:19.000Z</time>
      </trkpt>
      <trkpt lon="34.85167695209384" lat="31.71543993987143">
        <ele>171.1999969482422</ele>
        <time>2016-05-14T06:44:22.000Z</time>
      </trkpt>
      <trkpt lon="34.851536974310875" lat="31.715412950143218">
        <ele>170.1999969482422</ele>
        <time>2016-05-14T06:44:25.000Z</time>
      </trkpt>
      <trkpt lon="34.85137998126447" lat="31.71535293571651">
        <ele>168.8000030517578</ele>
        <time>2016-05-14T06:44:29.000Z</time>
      </trkpt>
      <trkpt lon="34.85139397904277" lat="31.715263919904828">
        <ele>168.1999969482422</ele>
        <time>2016-05-14T06:44:32.000Z</time>
      </trkpt>
      <trkpt lon="34.851473942399025" lat="31.7151599843055">
        <ele>167.60000610351562</ele>
        <time>2016-05-14T06:44:36.000Z</time>
      </trkpt>
      <trkpt lon="34.851577961817384" lat="31.715149926021695">
        <ele>167.0</ele>
        <time>2016-05-14T06:44:39.000Z</time>
      </trkpt>
      <trkpt lon="34.85173998400569" lat="31.715142969042063">
        <ele>167.39999389648438</ele>
        <time>2016-05-14T06:44:45.000Z</time>
      </trkpt>
      <trkpt lon="34.85191399231553" lat="31.715164929628372">
        <ele>167.39999389648438</ele>
        <time>2016-05-14T06:44:50.000Z</time>
      </trkpt>
      <trkpt lon="34.85198096372187" lat="31.715186974033713">
        <ele>167.39999389648438</ele>
        <time>2016-05-14T06:44:52.000Z</time>
      </trkpt>
      <trkpt lon="34.85200393013656" lat="31.71515596099198">
        <ele>167.39999389648438</ele>
        <time>2016-05-14T06:44:55.000Z</time>
      </trkpt>
      <trkpt lon="34.85194098204374" lat="31.715075997635722">
        <ele>167.39999389648438</ele>
        <time>2016-05-14T06:44:59.000Z</time>
      </trkpt>
      <trkpt lon="34.852010970935225" lat="31.714934930205345">
        <ele>167.0</ele>
        <time>2016-05-14T06:45:03.000Z</time>
      </trkpt>
      <trkpt lon="34.85203695483506" lat="31.714894948527217">
        <ele>167.0</ele>
        <time>2016-05-14T06:45:04.000Z</time>
      </trkpt>
      <trkpt lon="34.85209294594824" lat="31.714778942987323">
        <ele>165.0</ele>
        <time>2016-05-14T06:45:07.000Z</time>
      </trkpt>
      <trkpt lon="34.85219394788146" lat="31.714672995731235">
        <ele>163.1999969482422</ele>
        <time>2016-05-14T06:45:10.000Z</time>
      </trkpt>
      <trkpt lon="34.85232596285641" lat="31.714676935225725">
        <ele>163.1999969482422</ele>
        <time>2016-05-14T06:45:13.000Z</time>
      </trkpt>
      <trkpt lon="34.85255696810782" lat="31.714723957702518">
        <ele>160.8000030517578</ele>
        <time>2016-05-14T06:45:18.000Z</time>
      </trkpt>
      <trkpt lon="34.8525579739362" lat="31.714628990739584">
        <ele>159.1999969482422</ele>
        <time>2016-05-14T06:45:21.000Z</time>
      </trkpt>
      <trkpt lon="34.85252293758094" lat="31.71460191719234">
        <ele>159.0</ele>
        <time>2016-05-14T06:45:22.000Z</time>
      </trkpt>
      <trkpt lon="34.85232797451317" lat="31.71451097354293">
        <ele>160.0</ele>
        <time>2016-05-14T06:45:29.000Z</time>
      </trkpt>
      <trkpt lon="34.85219797119498" lat="31.714500999078155">
        <ele>160.1999969482422</ele>
        <time>2016-05-14T06:45:33.000Z</time>
      </trkpt>
      <trkpt lon="34.852076936513186" lat="31.71447392553091">
        <ele>160.8000030517578</ele>
        <time>2016-05-14T06:45:38.000Z</time>
      </trkpt>
      <trkpt lon="34.85213594511151" lat="31.714416928589344">
        <ele>160.0</ele>
        <time>2016-05-14T06:45:41.000Z</time>
      </trkpt>
      <trkpt lon="34.852223955094814" lat="31.714352974668145">
        <ele>159.39999389648438</ele>
        <time>2016-05-14T06:45:44.000Z</time>
      </trkpt>
      <trkpt lon="34.852182967588305" lat="31.714281979948282">
        <ele>159.1999969482422</ele>
        <time>2016-05-14T06:45:46.000Z</time>
      </trkpt>
      <trkpt lon="34.852051958441734" lat="31.714261947199702">
        <ele>158.60000610351562</ele>
        <time>2016-05-14T06:45:49.000Z</time>
      </trkpt>
      <trkpt lon="34.85191097483039" lat="31.71425892971456">
        <ele>158.39999389648438</ele>
        <time>2016-05-14T06:45:53.000Z</time>
      </trkpt>
      <trkpt lon="34.851879961788654" lat="31.714267982169986">
        <ele>158.39999389648438</ele>
        <time>2016-05-14T06:45:54.000Z</time>
      </trkpt>
      <trkpt lon="34.85182497650385" lat="31.714287931099534">
        <ele>158.39999389648438</ele>
        <time>2016-05-14T06:45:56.000Z</time>
      </trkpt>
      <trkpt lon="34.85171592794359" lat="31.71423696912825">
        <ele>158.1999969482422</ele>
        <time>2016-05-14T06:46:00.000Z</time>
      </trkpt>
      <trkpt lon="34.85161199234426" lat="31.714142924174666">
        <ele>157.39999389648438</ele>
        <time>2016-05-14T06:46:04.000Z</time>
      </trkpt>
      <trkpt lon="34.85171693377197" lat="31.71404594555497">
        <ele>157.39999389648438</ele>
        <time>2016-05-14T06:46:07.000Z</time>
      </trkpt>
      <trkpt lon="34.85185791738331" lat="31.71402096748352">
        <ele>156.39999389648438</ele>
        <time>2016-05-14T06:46:10.000Z</time>
      </trkpt>
      <trkpt lon="34.85195497982204" lat="31.714015938341618">
        <ele>155.8000030517578</ele>
        <time>2016-05-14T06:46:13.000Z</time>
      </trkpt>
      <trkpt lon="34.85203695483506" lat="31.71397696249187">
        <ele>155.8000030517578</ele>
        <time>2016-05-14T06:46:16.000Z</time>
      </trkpt>
      <trkpt lon="34.852033937349916" lat="31.713918959721923">
        <ele>155.8000030517578</ele>
        <time>2016-05-14T06:46:18.000Z</time>
      </trkpt>
      <trkpt lon="34.85198096372187" lat="31.713788956403732">
        <ele>155.39999389648438</ele>
        <time>2016-05-14T06:46:21.000Z</time>
      </trkpt>
      <trkpt lon="34.85200493596494" lat="31.713516963645816">
        <ele>153.60000610351562</ele>
        <time>2016-05-14T06:46:26.000Z</time>
      </trkpt>
      <trkpt lon="34.85200292430818" lat="31.71337991952896">
        <ele>151.60000610351562</ele>
        <time>2016-05-14T06:46:29.000Z</time>
      </trkpt>
      <trkpt lon="34.85193897038698" lat="31.713307918980718">
        <ele>150.8000030517578</ele>
        <time>2016-05-14T06:46:31.000Z</time>
      </trkpt>
      <trkpt lon="34.85171492211521" lat="31.71314195729792">
        <ele>149.39999389648438</ele>
        <time>2016-05-14T06:46:36.000Z</time>
      </trkpt>
      <trkpt lon="34.851584918797016" lat="31.713063921779394">
        <ele>148.39999389648438</ele>
        <time>2016-05-14T06:46:39.000Z</time>
      </trkpt>
      <trkpt lon="34.85159992240369" lat="31.71300893649459">
        <ele>147.8000030517578</ele>
        <time>2016-05-14T06:46:41.000Z</time>
      </trkpt>
      <trkpt lon="34.851706959307194" lat="31.712939953431487">
        <ele>147.1999969482422</ele>
        <time>2016-05-14T06:46:44.000Z</time>
      </trkpt>
      <trkpt lon="34.85189597122371" lat="31.712872982025146">
        <ele>146.39999389648438</ele>
        <time>2016-05-14T06:46:48.000Z</time>
      </trkpt>
      <trkpt lon="34.85191692598164" lat="31.71277298592031">
        <ele>145.60000610351562</ele>
        <time>2016-05-14T06:46:50.000Z</time>
      </trkpt>
      <trkpt lon="34.85179899260402" lat="31.712531922385097">
        <ele>144.1999969482422</ele>
        <time>2016-05-14T06:46:55.000Z</time>
      </trkpt>
      <trkpt lon="34.851600928232074" lat="31.712422957643867">
        <ele>143.1999969482422</ele>
        <time>2016-05-14T06:46:59.000Z</time>
      </trkpt>
      <trkpt lon="34.85145399346948" lat="31.71236294321716">
        <ele>142.8000030517578</ele>
        <time>2016-05-14T06:47:02.000Z</time>
      </trkpt>
      <trkpt lon="34.851319966837764" lat="31.71230292879045">
        <ele>142.1999969482422</ele>
        <time>2016-05-14T06:47:05.000Z</time>
      </trkpt>
      <trkpt lon="34.85129297710955" lat="31.71230494044721">
        <ele>141.8000030517578</ele>
        <time>2016-05-14T06:47:07.000Z</time>
      </trkpt>
      <trkpt lon="34.85124193131924" lat="31.712378952652216">
        <ele>141.8000030517578</ele>
        <time>2016-05-14T06:47:12.000Z</time>
      </trkpt>
      <trkpt lon="34.85120899043977" lat="31.712456988170743">
        <ele>141.8000030517578</ele>
        <time>2016-05-14T06:47:16.000Z</time>
      </trkpt>
      <trkpt lon="34.85117797739804" lat="31.712565952911973">
        <ele>141.60000610351562</ele>
        <time>2016-05-14T06:47:21.000Z</time>
      </trkpt>
      <trkpt lon="34.85111997462809" lat="31.71264792792499">
        <ele>142.0</ele>
        <time>2016-05-14T06:47:25.000Z</time>
      </trkpt>
      <trkpt lon="34.85099491663277" lat="31.712766950950027">
        <ele>142.1999969482422</ele>
        <time>2016-05-14T06:47:31.000Z</time>
      </trkpt>
      <trkpt lon="34.85088092274964" lat="31.71283693984151">
        <ele>142.39999389648438</ele>
        <time>2016-05-14T06:47:37.000Z</time>
      </trkpt>
      <trkpt lon="34.85077497549355" lat="31.712919920682907">
        <ele>142.8000030517578</ele>
        <time>2016-05-14T06:47:44.000Z</time>
      </trkpt>
      <trkpt lon="34.85080196522176" lat="31.713016983121634">
        <ele>143.0</ele>
        <time>2016-05-14T06:47:48.000Z</time>
      </trkpt>
      <trkpt lon="34.85091897659004" lat="31.71311697922647">
        <ele>143.8000030517578</ele>
        <time>2016-05-14T06:47:53.000Z</time>
      </trkpt>
      <trkpt lon="34.85083197243512" lat="31.713189985603094">
        <ele>144.8000030517578</ele>
        <time>2016-05-14T06:47:58.000Z</time>
      </trkpt>
      <trkpt lon="34.850678918883204" lat="31.713282940909266">
        <ele>146.1999969482422</ele>
        <time>2016-05-14T06:48:04.000Z</time>
      </trkpt>
      <trkpt lon="34.85064899548888" lat="31.713363993912935">
        <ele>147.0</ele>
        <time>2016-05-14T06:48:08.000Z</time>
      </trkpt>
      <trkpt lon="34.85074798576534" lat="31.713473964482546">
        <ele>147.8000030517578</ele>
        <time>2016-05-14T06:48:14.000Z</time>
      </trkpt>
      <trkpt lon="34.850766928866506" lat="31.713490979745984">
        <ele>148.1999969482422</ele>
        <time>2016-05-14T06:48:15.000Z</time>
      </trkpt>
      <trkpt lon="34.850870948284864" lat="31.713594999164343">
        <ele>149.1999969482422</ele>
        <time>2016-05-14T06:48:21.000Z</time>
      </trkpt>
      <trkpt lon="34.85097295604646" lat="31.71365794725716">
        <ele>149.8000030517578</ele>
        <time>2016-05-14T06:48:26.000Z</time>
      </trkpt>
      <trkpt lon="34.85096096992493" lat="31.713766995817423">
        <ele>151.0</ele>
        <time>2016-05-14T06:48:32.000Z</time>
      </trkpt>
      <trkpt lon="34.850955940783024" lat="31.71380496583879">
        <ele>151.1999969482422</ele>
        <time>2016-05-14T06:48:34.000Z</time>
      </trkpt>
      <trkpt lon="34.85096298158169" lat="31.71395894140005">
        <ele>152.39999389648438</ele>
        <time>2016-05-14T06:48:40.000Z</time>
      </trkpt>
      <trkpt lon="34.850980918854475" lat="31.714079976081848">
        <ele>153.1999969482422</ele>
        <time>2016-05-14T06:48:45.000Z</time>
      </trkpt>
      <trkpt lon="34.85103397630155" lat="31.714195981621742">
        <ele>154.39999389648438</ele>
        <time>2016-05-14T06:48:51.000Z</time>
      </trkpt>
      <trkpt lon="34.85094998963177" lat="31.71430293470621">
        <ele>155.39999389648438</ele>
        <time>2016-05-14T06:48:57.000Z</time>
      </trkpt>
      <trkpt lon="34.85077899880707" lat="31.714357919991016">
        <ele>155.1999969482422</ele>
        <time>2016-05-14T06:49:03.000Z</time>
      </trkpt>
      <trkpt lon="34.850637931376696" lat="31.714400919154286">
        <ele>155.0</ele>
        <time>2016-05-14T06:49:07.000Z</time>
      </trkpt>
      <trkpt lon="34.85048797912896" lat="31.714438972994685">
        <ele>154.60000610351562</ele>
        <time>2016-05-14T06:49:11.000Z</time>
      </trkpt>
      <trkpt lon="34.85044699162245" lat="31.71444894745946">
        <ele>154.39999389648438</ele>
        <time>2016-05-14T06:49:12.000Z</time>
      </trkpt>
      <trkpt lon="34.850373985245824" lat="31.714540980756283">
        <ele>154.1999969482422</ele>
        <time>2016-05-14T06:49:16.000Z</time>
      </trkpt>
      <trkpt lon="34.85028295777738" lat="31.71460292302072">
        <ele>154.1999969482422</ele>
        <time>2016-05-14T06:49:20.000Z</time>
      </trkpt>
      <trkpt lon="34.85024297609925" lat="31.714674923568964">
        <ele>154.0</ele>
        <time>2016-05-14T06:49:23.000Z</time>
      </trkpt>
      <trkpt lon="34.85021598637104" lat="31.71483593992889">
        <ele>154.60000610351562</ele>
        <time>2016-05-14T06:49:30.000Z</time>
      </trkpt>
      <trkpt lon="34.8502129688859" lat="31.714926967397332">
        <ele>154.8000030517578</ele>
        <time>2016-05-14T06:49:34.000Z</time>
      </trkpt>
      <trkpt lon="34.85022294335067" lat="31.71498597599566">
        <ele>155.39999389648438</ele>
        <time>2016-05-14T06:49:37.000Z</time>
      </trkpt>
      <trkpt lon="34.85021397471428" lat="31.715068956837058">
        <ele>156.0</ele>
        <time>2016-05-14T06:49:41.000Z</time>
      </trkpt>
      <trkpt lon="34.8503009788692" lat="31.71516099013388">
        <ele>157.0</ele>
        <time>2016-05-14T06:49:47.000Z</time>
      </trkpt>
      <trkpt lon="34.85030894167721" lat="31.715213963761926">
        <ele>157.39999389648438</ele>
        <time>2016-05-14T06:49:50.000Z</time>
      </trkpt>
      <trkpt lon="34.85027893446386" lat="31.71530499123037">
        <ele>157.8000030517578</ele>
        <time>2016-05-14T06:49:56.000Z</time>
      </trkpt>
      <trkpt lon="34.85024398192763" lat="31.71539895236492">
        <ele>157.1999969482422</ele>
        <time>2016-05-14T06:50:00.000Z</time>
      </trkpt>
      <trkpt lon="34.85029997304082" lat="31.715490985661745">
        <ele>157.39999389648438</ele>
        <time>2016-05-14T06:50:05.000Z</time>
      </trkpt>
      <trkpt lon="34.8503649327904" lat="31.71558695845306">
        <ele>158.0</ele>
        <time>2016-05-14T06:50:10.000Z</time>
      </trkpt>
      <trkpt lon="34.85039091669023" lat="31.715620988979936">
        <ele>158.39999389648438</ele>
        <time>2016-05-14T06:50:12.000Z</time>
      </trkpt>
      <trkpt lon="34.85040994361043" lat="31.7156729567796">
        <ele>159.0</ele>
        <time>2016-05-14T06:50:15.000Z</time>
      </trkpt>
      <trkpt lon="34.85046995803714" lat="31.71576197259128">
        <ele>159.60000610351562</ele>
        <time>2016-05-14T06:50:20.000Z</time>
      </trkpt>
      <trkpt lon="34.85049895942211" lat="31.715797930955887">
        <ele>159.8000030517578</ele>
        <time>2016-05-14T06:50:22.000Z</time>
      </trkpt>
      <trkpt lon="34.850592920556664" lat="31.71578493900597">
        <ele>160.8000030517578</ele>
        <time>2016-05-14T06:50:27.000Z</time>
      </trkpt>
      <trkpt lon="34.85060398466885" lat="31.715745963156223">
        <ele>161.1999969482422</ele>
        <time>2016-05-14T06:50:29.000Z</time>
      </trkpt>
      <trkpt lon="34.85061697661877" lat="31.715597938746214">
        <ele>161.8000030517578</ele>
        <time>2016-05-14T06:50:36.000Z</time>
      </trkpt>
      <trkpt lon="34.850675985217094" lat="31.715494925156236">
        <ele>162.39999389648438</ele>
        <time>2016-05-14T06:50:43.000Z</time>
      </trkpt>
      <trkpt lon="34.850636925548315" lat="31.715399958193302">
        <ele>162.0</ele>
        <time>2016-05-14T06:50:48.000Z</time>
      </trkpt>
      <trkpt lon="34.85057791694999" lat="31.71526593156159">
        <ele>161.0</ele>
        <time>2016-05-14T06:50:53.000Z</time>
      </trkpt>
      <trkpt lon="34.85062795691192" lat="31.71520692296326">
        <ele>160.60000610351562</ele>
        <time>2016-05-14T06:50:56.000Z</time>
      </trkpt>
      <trkpt lon="34.850677996873856" lat="31.715229973196983">
        <ele>161.0</ele>
        <time>2016-05-14T06:50:59.000Z</time>
      </trkpt>
      <trkpt lon="34.850744968280196" lat="31.715276995673776">
        <ele>162.0</ele>
        <time>2016-05-14T06:51:04.000Z</time>
      </trkpt>
      <trkpt lon="34.85085996799171" lat="31.715230979025364">
        <ele>163.0</ele>
        <time>2016-05-14T06:51:09.000Z</time>
      </trkpt>
      <trkpt lon="34.85086591914296" lat="31.715197954326868">
        <ele>163.1999969482422</ele>
        <time>2016-05-14T06:51:11.000Z</time>
      </trkpt>
      <trkpt lon="34.850889975205064" lat="31.71511991880834">
        <ele>163.39999389648438</ele>
        <time>2016-05-14T06:51:15.000Z</time>
      </trkpt>
      <trkpt lon="34.85094998963177" lat="31.71507298015058">
        <ele>163.1999969482422</ele>
        <time>2016-05-14T06:51:18.000Z</time>
      </trkpt>
      <trkpt lon="34.85103297047317" lat="31.71509795822203">
        <ele>163.8000030517578</ele>
        <time>2016-05-14T06:51:22.000Z</time>
      </trkpt>
      <trkpt lon="34.85101696103811" lat="31.71513793990016">
        <ele>164.1999969482422</ele>
        <time>2016-05-14T06:51:24.000Z</time>
      </trkpt>
      <trkpt lon="34.850980918854475" lat="31.71518093906343">
        <ele>164.39999389648438</ele>
        <time>2016-05-14T06:51:26.000Z</time>
      </trkpt>
      <trkpt lon="34.85098795965314" lat="31.715299962088466">
        <ele>165.0</ele>
        <time>2016-05-14T06:51:31.000Z</time>
      </trkpt>
      <trkpt lon="34.850959964096546" lat="31.71537598595023">
        <ele>165.39999389648438</ele>
        <time>2016-05-14T06:51:34.000Z</time>
      </trkpt>
      <trkpt lon="34.85091193579137" lat="31.715492997318506">
        <ele>165.39999389648438</ele>
        <time>2016-05-14T06:51:39.000Z</time>
      </trkpt>
      <trkpt lon="34.850827949121594" lat="31.71560799703002">
        <ele>164.8000030517578</ele>
        <time>2016-05-14T06:51:44.000Z</time>
      </trkpt>
      <trkpt lon="34.85084597021341" lat="31.71567698009312">
        <ele>164.60000610351562</ele>
        <time>2016-05-14T06:51:47.000Z</time>
      </trkpt>
      <trkpt lon="34.85079199075699" lat="31.71573992818594">
        <ele>164.60000610351562</ele>
        <time>2016-05-14T06:51:51.000Z</time>
      </trkpt>
      <trkpt lon="34.850760977715254" lat="31.715809917077422">
        <ele>164.1999969482422</ele>
        <time>2016-05-14T06:51:53.000Z</time>
      </trkpt>
      <trkpt lon="34.85074899159372" lat="31.715899938717484">
        <ele>163.1999969482422</ele>
        <time>2016-05-14T06:51:56.000Z</time>
      </trkpt>
      <trkpt lon="34.850742956623435" lat="31.716014938428998">
        <ele>162.8000030517578</ele>
        <time>2016-05-14T06:52:00.000Z</time>
      </trkpt>
      <trkpt lon="34.85074798576534" lat="31.71608199365437">
        <ele>162.39999389648438</ele>
        <time>2016-05-14T06:52:03.000Z</time>
      </trkpt>
      <trkpt lon="34.85075091943145" lat="31.7161029484123">
        <ele>162.1999969482422</ele>
        <time>2016-05-14T06:52:04.000Z</time>
      </trkpt>
      <trkpt lon="34.85082291997969" lat="31.71620897948742">
        <ele>162.39999389648438</ele>
        <time>2016-05-14T06:52:10.000Z</time>
      </trkpt>
      <trkpt lon="34.850851921364665" lat="31.716222977265716">
        <ele>163.0</ele>
        <time>2016-05-14T06:52:12.000Z</time>
      </trkpt>
      <trkpt lon="34.85087991692126" lat="31.71630193479359">
        <ele>163.1999969482422</ele>
        <time>2016-05-14T06:52:18.000Z</time>
      </trkpt>
      <trkpt lon="34.85087698325515" lat="31.716330936178565">
        <ele>162.39999389648438</ele>
        <time>2016-05-14T06:52:23.000Z</time>
      </trkpt>
      <trkpt lon="34.85088595189154" lat="31.716414922848344">
        <ele>162.0</ele>
        <time>2016-05-14T06:52:28.000Z</time>
      </trkpt>
      <trkpt lon="34.85099592246115" lat="31.716504944488406">
        <ele>161.8000030517578</ele>
        <time>2016-05-14T06:52:35.000Z</time>
      </trkpt>
      <trkpt lon="34.851088961586356" lat="31.71655397862196">
        <ele>162.39999389648438</ele>
        <time>2016-05-14T06:52:39.000Z</time>
      </trkpt>
      <trkpt lon="34.85111393965781" lat="31.716566970571876">
        <ele>162.39999389648438</ele>
        <time>2016-05-14T06:52:40.000Z</time>
      </trkpt>
      <trkpt lon="34.85121192410588" lat="31.71653495170176">
        <ele>163.1999969482422</ele>
        <time>2016-05-14T06:52:44.000Z</time>
      </trkpt>
      <trkpt lon="34.85126196406782" lat="31.71651399694383">
        <ele>163.60000610351562</ele>
        <time>2016-05-14T06:52:46.000Z</time>
      </trkpt>
      <trkpt lon="34.851405965164304" lat="31.716566970571876">
        <ele>164.1999969482422</ele>
        <time>2016-05-14T06:52:52.000Z</time>
      </trkpt>
      <trkpt lon="34.85150897875428" lat="31.716605946421623">
        <ele>164.1999969482422</ele>
        <time>2016-05-14T06:52:56.000Z</time>
      </trkpt>
      <trkpt lon="34.851534962654114" lat="31.71662296168506">
        <ele>164.39999389648438</ele>
        <time>2016-05-14T06:52:57.000Z</time>
      </trkpt>
      <trkpt lon="34.851644933223724" lat="31.716744918376207">
        <ele>164.0</ele>
        <time>2016-05-14T06:53:03.000Z</time>
      </trkpt>
      <trkpt lon="34.85171693377197" lat="31.71687399968505">
        <ele>162.60000610351562</ele>
        <time>2016-05-14T06:53:09.000Z</time>
      </trkpt>
      <trkpt lon="34.85178994014859" lat="31.716972989961505">
        <ele>161.8000030517578</ele>
        <time>2016-05-14T06:53:14.000Z</time>
      </trkpt>
      <trkpt lon="34.85190996900201" lat="31.71703292056918">
        <ele>162.1999969482422</ele>
        <time>2016-05-14T06:53:19.000Z</time>
      </trkpt>
      <trkpt lon="34.851968977600336" lat="31.717089917510748">
        <ele>162.39999389648438</ele>
        <time>2016-05-14T06:53:23.000Z</time>
      </trkpt>
      <trkpt lon="34.85199496150017" lat="31.71709595248103">
        <ele>162.39999389648438</ele>
        <time>2016-05-14T06:53:24.000Z</time>
      </trkpt>
      <trkpt lon="34.85212194733322" lat="31.71708798967302">
        <ele>163.0</ele>
        <time>2016-05-14T06:53:30.000Z</time>
      </trkpt>
      <trkpt lon="34.852182967588305" lat="31.717080948874354">
        <ele>163.39999389648438</ele>
        <time>2016-05-14T06:53:33.000Z</time>
      </trkpt>
      <trkpt lon="34.852286987006664" lat="31.717061921954155">
        <ele>164.60000610351562</ele>
        <time>2016-05-14T06:53:39.000Z</time>
      </trkpt>
      <trkpt lon="34.852373991161585" lat="31.717039961367846">
        <ele>165.1999969482422</ele>
        <time>2016-05-14T06:53:45.000Z</time>
      </trkpt>
      <trkpt lon="34.85240693204105" lat="31.716991933062673">
        <ele>166.1999969482422</ele>
        <time>2016-05-14T06:53:49.000Z</time>
      </trkpt>
      <trkpt lon="34.85251195728779" lat="31.716990927234292">
        <ele>166.8000030517578</ele>
        <time>2016-05-14T06:53:55.000Z</time>
      </trkpt>
      <trkpt lon="34.85253492370248" lat="31.71698992140591">
        <ele>166.8000030517578</ele>
        <time>2016-05-14T06:53:56.000Z</time>
      </trkpt>
      <trkpt lon="34.852675991132855" lat="31.717062927782536">
        <ele>166.8000030517578</ele>
        <time>2016-05-14T06:54:01.000Z</time>
      </trkpt>
      <trkpt lon="34.85269392840564" lat="31.717169964686036">
        <ele>166.8000030517578</ele>
        <time>2016-05-14T06:54:05.000Z</time>
      </trkpt>
      <trkpt lon="34.85273298807442" lat="31.71726291999221">
        <ele>167.1999969482422</ele>
        <time>2016-05-14T06:54:09.000Z</time>
      </trkpt>
      <trkpt lon="34.85273097641766" lat="31.717381943017244">
        <ele>167.1999969482422</ele>
        <time>2016-05-14T06:54:13.000Z</time>
      </trkpt>
      <trkpt lon="34.852723935619" lat="31.717622922733426">
        <ele>166.8000030517578</ele>
        <time>2016-05-14T06:54:21.000Z</time>
      </trkpt>
      <trkpt lon="34.85264497809112" lat="31.71775795519352">
        <ele>167.1999969482422</ele>
        <time>2016-05-14T06:54:26.000Z</time>
      </trkpt>
      <trkpt lon="34.85260499641299" lat="31.71777999959886">
        <ele>167.0</ele>
        <time>2016-05-14T06:54:27.000Z</time>
      </trkpt>
      <trkpt lon="34.85239394009113" lat="31.717835990712047">
        <ele>166.1999969482422</ele>
        <time>2016-05-14T06:54:32.000Z</time>
      </trkpt>
      <trkpt lon="34.85234096646309" lat="31.717900950461626">
        <ele>166.0</ele>
        <time>2016-05-14T06:54:36.000Z</time>
      </trkpt>
      <trkpt lon="34.852335937321186" lat="31.718004969879985">
        <ele>166.1999969482422</ele>
        <time>2016-05-14T06:54:41.000Z</time>
      </trkpt>
      <trkpt lon="34.85235798172653" lat="31.718030953779817">
        <ele>166.39999389648438</ele>
        <time>2016-05-14T06:54:43.000Z</time>
      </trkpt>
      <trkpt lon="34.85243392176926" lat="31.718115946277976">
        <ele>167.39999389648438</ele>
        <time>2016-05-14T06:54:49.000Z</time>
      </trkpt>
      <trkpt lon="34.85253693535924" lat="31.718173949047923">
        <ele>168.60000610351562</ele>
        <time>2016-05-14T06:54:55.000Z</time>
      </trkpt>
      <trkpt lon="34.8525529447943" lat="31.718203956261277">
        <ele>169.0</ele>
        <time>2016-05-14T06:54:57.000Z</time>
      </trkpt>
      <trkpt lon="34.85260692425072" lat="31.71831795014441">
        <ele>169.8000030517578</ele>
        <time>2016-05-14T06:55:03.000Z</time>
      </trkpt>
      <trkpt lon="34.852677918970585" lat="31.718387939035892">
        <ele>170.60000610351562</ele>
        <time>2016-05-14T06:55:09.000Z</time>
      </trkpt>
      <trkpt lon="34.85270096920431" lat="31.718442924320698">
        <ele>171.1999969482422</ele>
        <time>2016-05-14T06:55:13.000Z</time>
      </trkpt>
      <trkpt lon="34.852720918133855" lat="31.718485923483968">
        <ele>171.39999389648438</ele>
        <time>2016-05-14T06:55:16.000Z</time>
      </trkpt>
      <trkpt lon="34.85273592174053" lat="31.718548955395818">
        <ele>171.60000610351562</ele>
        <time>2016-05-14T06:55:19.000Z</time>
      </trkpt>
      <trkpt lon="34.852785961702466" lat="31.718591954559088">
        <ele>172.39999389648438</ele>
        <time>2016-05-14T06:55:23.000Z</time>
      </trkpt>
      <trkpt lon="34.85285393893719" lat="31.718589942902327">
        <ele>173.39999389648438</ele>
        <time>2016-05-14T06:55:27.000Z</time>
      </trkpt>
      <trkpt lon="34.85290096141398" lat="31.71861693263054">
        <ele>174.39999389648438</ele>
        <time>2016-05-14T06:55:31.000Z</time>
      </trkpt>
      <trkpt lon="34.852937925606966" lat="31.718648951500654">
        <ele>175.0</ele>
        <time>2016-05-14T06:55:34.000Z</time>
      </trkpt>
      <trkpt lon="34.85294396057725" lat="31.718761939555407">
        <ele>175.8000030517578</ele>
        <time>2016-05-14T06:55:41.000Z</time>
      </trkpt>
      <trkpt lon="34.852957958355546" lat="31.718823965638876">
        <ele>176.0</ele>
        <time>2016-05-14T06:55:45.000Z</time>
      </trkpt>
      <trkpt lon="34.85302694141865" lat="31.718885991722345">
        <ele>177.0</ele>
        <time>2016-05-14T06:55:51.000Z</time>
      </trkpt>
      <trkpt lon="34.85303599387407" lat="31.718928990885615">
        <ele>177.60000610351562</ele>
        <time>2016-05-14T06:55:54.000Z</time>
      </trkpt>
      <trkpt lon="34.85301495529711" lat="31.719012977555394">
        <ele>177.1999969482422</ele>
        <time>2016-05-14T06:55:59.000Z</time>
      </trkpt>
      <trkpt lon="34.853043956682086" lat="31.719057988375425">
        <ele>177.60000610351562</ele>
        <time>2016-05-14T06:56:03.000Z</time>
      </trkpt>
      <trkpt lon="34.85303197056055" lat="31.719094952568412">
        <ele>177.60000610351562</ele>
        <time>2016-05-14T06:56:05.000Z</time>
      </trkpt>
      <trkpt lon="34.853063989430666" lat="31.719202995300293">
        <ele>177.60000610351562</ele>
        <time>2016-05-14T06:56:11.000Z</time>
      </trkpt>
      <trkpt lon="34.85307195223868" lat="31.719225961714983">
        <ele>177.60000610351562</ele>
        <time>2016-05-14T06:56:12.000Z</time>
      </trkpt>
      <trkpt lon="34.85310195945203" lat="31.719307936728">
        <ele>177.39999389648438</ele>
        <time>2016-05-14T06:56:16.000Z</time>
      </trkpt>
      <trkpt lon="34.853211930021644" lat="31.71938999556005">
        <ele>177.8000030517578</ele>
        <time>2016-05-14T06:56:23.000Z</time>
      </trkpt>
      <trkpt lon="34.8532469663769" lat="31.719459984451532">
        <ele>177.8000030517578</ele>
        <time>2016-05-14T06:56:27.000Z</time>
      </trkpt>
      <trkpt lon="34.85328292474151" lat="31.71947792172432">
        <ele>177.39999389648438</ele>
        <time>2016-05-14T06:56:29.000Z</time>
      </trkpt>
      <trkpt lon="34.85335492528975" lat="31.71954296529293">
        <ele>177.8000030517578</ele>
        <time>2016-05-14T06:56:34.000Z</time>
      </trkpt>
      <trkpt lon="34.85346598550677" lat="31.719631981104612">
        <ele>177.60000610351562</ele>
        <time>2016-05-14T06:56:40.000Z</time>
      </trkpt>
      <trkpt lon="34.85356497578323" lat="31.719696940854192">
        <ele>177.1999969482422</ele>
        <time>2016-05-14T06:56:45.000Z</time>
      </trkpt>
      <trkpt lon="34.85358299687505" lat="31.71971395611763">
        <ele>177.1999969482422</ele>
        <time>2016-05-14T06:56:46.000Z</time>
      </trkpt>
      <trkpt lon="34.85369992442429" lat="31.719739940017462">
        <ele>177.0</ele>
        <time>2016-05-14T06:56:50.000Z</time>
      </trkpt>
      <trkpt lon="34.85384099185467" lat="31.719803977757692">
        <ele>177.1999969482422</ele>
        <time>2016-05-14T06:56:55.000Z</time>
      </trkpt>
      <trkpt lon="34.8539359588176" lat="31.719871954992414">
        <ele>177.0</ele>
        <time>2016-05-14T06:56:59.000Z</time>
      </trkpt>
      <trkpt lon="34.85406897962093" lat="31.719924928620458">
        <ele>178.39999389648438</ele>
        <time>2016-05-14T06:57:06.000Z</time>
      </trkpt>
      <trkpt lon="34.85413192771375" lat="31.71995099633932">
        <ele>178.8000030517578</ele>
        <time>2016-05-14T06:57:09.000Z</time>
      </trkpt>
      <trkpt lon="34.8541899304837" lat="31.720090974122286">
        <ele>179.8000030517578</ele>
        <time>2016-05-14T06:57:15.000Z</time>
      </trkpt>
      <trkpt lon="34.85426193103194" lat="31.720198933035135">
        <ele>180.1999969482422</ele>
        <time>2016-05-14T06:57:20.000Z</time>
      </trkpt>
      <trkpt lon="34.85434591770172" lat="31.720233969390392">
        <ele>181.0</ele>
        <time>2016-05-14T06:57:25.000Z</time>
      </trkpt>
      <trkpt lon="34.85443292185664" lat="31.720308987423778">
        <ele>182.0</ele>
        <time>2016-05-14T06:57:32.000Z</time>
      </trkpt>
      <trkpt lon="34.85444499179721" lat="31.720321979373693">
        <ele>182.0</ele>
        <time>2016-05-14T06:57:33.000Z</time>
      </trkpt>
      <trkpt lon="34.85453099012375" lat="31.72035693190992">
        <ele>183.0</ele>
        <time>2016-05-14T06:57:39.000Z</time>
      </trkpt>
      <trkpt lon="34.85451598651707" lat="31.720417952165008">
        <ele>183.0</ele>
        <time>2016-05-14T06:57:43.000Z</time>
      </trkpt>
      <trkpt lon="34.85453492961824" lat="31.720491964370012">
        <ele>183.60000610351562</ele>
        <time>2016-05-14T06:57:47.000Z</time>
      </trkpt>
      <trkpt lon="34.854589998722076" lat="31.720566982403398">
        <ele>183.60000610351562</ele>
        <time>2016-05-14T06:57:52.000Z</time>
      </trkpt>
      <trkpt lon="34.85466493293643" lat="31.720676952973008">
        <ele>184.0</ele>
        <time>2016-05-14T06:57:58.000Z</time>
      </trkpt>
      <trkpt lon="34.85466694459319" lat="31.72070092521608">
        <ele>184.0</ele>
        <time>2016-05-14T06:57:59.000Z</time>
      </trkpt>
      <trkpt lon="34.854759983718395" lat="31.72077191993594">
        <ele>184.0</ele>
        <time>2016-05-14T06:58:04.000Z</time>
      </trkpt>
      <trkpt lon="34.854782950133085" lat="31.720778960734606">
        <ele>184.0</ele>
        <time>2016-05-14T06:58:05.000Z</time>
      </trkpt>
      <trkpt lon="34.85494991764426" lat="31.720823971554637">
        <ele>184.8000030517578</ele>
        <time>2016-05-14T06:58:11.000Z</time>
      </trkpt>
      <trkpt lon="34.85507598146796" lat="31.720889937132597">
        <ele>185.8000030517578</ele>
        <time>2016-05-14T06:58:16.000Z</time>
      </trkpt>
      <trkpt lon="34.855170948430896" lat="31.720987921580672">
        <ele>186.60000610351562</ele>
        <time>2016-05-14T06:58:21.000Z</time>
      </trkpt>
      <trkpt lon="34.85524294897914" lat="31.72112798318267">
        <ele>186.8000030517578</ele>
        <time>2016-05-14T06:58:27.000Z</time>
      </trkpt>
      <trkpt lon="34.85526298172772" lat="31.72127994708717">
        <ele>186.60000610351562</ele>
        <time>2016-05-14T06:58:32.000Z</time>
      </trkpt>
      <trkpt lon="34.855250995606184" lat="31.721355970948935">
        <ele>186.0</ele>
        <time>2016-05-14T06:58:34.000Z</time>
      </trkpt>
      <trkpt lon="34.85534998588264" lat="31.721528973430395">
        <ele>184.8000030517578</ele>
        <time>2016-05-14T06:58:39.000Z</time>
      </trkpt>
      <trkpt lon="34.85538896173239" lat="31.72155898064375">
        <ele>184.8000030517578</ele>
        <time>2016-05-14T06:58:41.000Z</time>
      </trkpt>
      <trkpt lon="34.85548292286694" lat="31.721701975911856">
        <ele>184.39999389648438</ele>
        <time>2016-05-14T06:58:47.000Z</time>
      </trkpt>
      <trkpt lon="34.85563698224723" lat="31.72182292677462">
        <ele>184.8000030517578</ele>
        <time>2016-05-14T06:58:53.000Z</time>
      </trkpt>
      <trkpt lon="34.85582197085023" lat="31.721954941749573">
        <ele>185.0</ele>
        <time>2016-05-14T06:58:59.000Z</time>
      </trkpt>
      <trkpt lon="34.855901934206486" lat="31.722079999744892">
        <ele>185.0</ele>
        <time>2016-05-14T06:59:04.000Z</time>
      </trkpt>
      <trkpt lon="34.855944933369756" lat="31.722222995013">
        <ele>184.60000610351562</ele>
        <time>2016-05-14T06:59:09.000Z</time>
      </trkpt>
      <trkpt lon="34.85603696666658" lat="31.722304970026016">
        <ele>184.8000030517578</ele>
        <time>2016-05-14T06:59:14.000Z</time>
      </trkpt>
      <trkpt lon="34.85605398193002" lat="31.722321985289454">
        <ele>184.8000030517578</ele>
        <time>2016-05-14T06:59:15.000Z</time>
      </trkpt>
      <trkpt lon="34.856091951951385" lat="31.72243899665773">
        <ele>185.0</ele>
        <time>2016-05-14T06:59:20.000Z</time>
      </trkpt>
      <trkpt lon="34.8561099730432" lat="31.722452994436026">
        <ele>185.0</ele>
        <time>2016-05-14T06:59:21.000Z</time>
      </trkpt>
      <trkpt lon="34.856153978034854" lat="31.72248492948711">
        <ele>185.1999969482422</ele>
        <time>2016-05-14T06:59:24.000Z</time>
      </trkpt>
      <trkpt lon="34.85613897442818" lat="31.722541926428676">
        <ele>185.0</ele>
        <time>2016-05-14T06:59:27.000Z</time>
      </trkpt>
      <trkpt lon="34.85614391975105" lat="31.722671929746866">
        <ele>184.1999969482422</ele>
        <time>2016-05-14T06:59:32.000Z</time>
      </trkpt>
      <trkpt lon="34.85622698441148" lat="31.722777960821986">
        <ele>184.1999969482422</ele>
        <time>2016-05-14T06:59:37.000Z</time>
      </trkpt>
      <trkpt lon="34.8562619369477" lat="31.722882986068726">
        <ele>184.1999969482422</ele>
        <time>2016-05-14T06:59:41.000Z</time>
      </trkpt>
      <trkpt lon="34.856275934726" lat="31.722905952483416">
        <ele>184.1999969482422</ele>
        <time>2016-05-14T06:59:42.000Z</time>
      </trkpt>
      <trkpt lon="34.856391940265894" lat="31.723052971065044">
        <ele>184.0</ele>
        <time>2016-05-14T06:59:48.000Z</time>
      </trkpt>
      <trkpt lon="34.85644793137908" lat="31.72319496050477">
        <ele>183.39999389648438</ele>
        <time>2016-05-14T06:59:53.000Z</time>
      </trkpt>
      <trkpt lon="34.85651196911931" lat="31.723232930526137">
        <ele>183.0</ele>
        <time>2016-05-14T06:59:55.000Z</time>
      </trkpt>
      <trkpt lon="34.85659394413233" lat="31.723337955772877">
        <ele>182.1999969482422</ele>
        <time>2016-05-14T07:00:00.000Z</time>
      </trkpt>
      <trkpt lon="34.85674599185586" lat="31.723418924957514">
        <ele>181.0</ele>
        <time>2016-05-14T07:00:05.000Z</time>
      </trkpt>
      <trkpt lon="34.85696693882346" lat="31.723503917455673">
        <ele>180.0</ele>
        <time>2016-05-14T07:00:10.000Z</time>
      </trkpt>
      <trkpt lon="34.857120998203754" lat="31.723503917455673">
        <ele>179.39999389648438</ele>
        <time>2016-05-14T07:00:13.000Z</time>
      </trkpt>
      <trkpt lon="34.85735393129289" lat="31.72355697490275">
        <ele>178.0</ele>
        <time>2016-05-14T07:00:19.000Z</time>
      </trkpt>
      <trkpt lon="34.85756297595799" lat="31.723608942702413">
        <ele>177.0</ele>
        <time>2016-05-14T07:00:25.000Z</time>
      </trkpt>
      <trkpt lon="34.857642939314246" lat="31.723572984337807">
        <ele>177.60000610351562</ele>
        <time>2016-05-14T07:00:30.000Z</time>
      </trkpt>
      <trkpt lon="34.857636988162994" lat="31.723504923284054">
        <ele>177.39999389648438</ele>
        <time>2016-05-14T07:00:35.000Z</time>
      </trkpt>
      <trkpt lon="34.857615949586034" lat="31.72349696047604">
        <ele>177.39999389648438</ele>
        <time>2016-05-14T07:00:59.000Z</time>
      </trkpt>
      <trkpt lon="34.85762491822243" lat="31.723531996831298">
        <ele>180.39999389648438</ele>
        <time>2016-05-14T07:20:47.000Z</time>
      </trkpt>
      <trkpt lon="34.8575849365443" lat="31.723571978509426">
        <ele>181.0</ele>
        <time>2016-05-14T07:21:43.000Z</time>
      </trkpt>
      <trkpt lon="34.85758292488754" lat="31.723572984337807">
        <ele>181.0</ele>
        <time>2016-05-14T07:21:46.000Z</time>
      </trkpt>
      <trkpt lon="34.8575159534812" lat="31.723589999601245">
        <ele>180.8000030517578</ele>
        <time>2016-05-14T07:21:54.000Z</time>
      </trkpt>
      <trkpt lon="34.85750597901642" lat="31.723595950752497">
        <ele>180.8000030517578</ele>
        <time>2016-05-14T07:21:55.000Z</time>
      </trkpt>
      <trkpt lon="34.85749499872327" lat="31.723632998764515">
        <ele>180.8000030517578</ele>
        <time>2016-05-14T07:21:58.000Z</time>
      </trkpt>
      <trkpt lon="34.857533974573016" lat="31.723681949079037">
        <ele>180.60000610351562</ele>
        <time>2016-05-14T07:22:02.000Z</time>
      </trkpt>
      <trkpt lon="34.85753799788654" lat="31.72375394962728">
        <ele>180.8000030517578</ele>
        <time>2016-05-14T07:22:06.000Z</time>
      </trkpt>
      <trkpt lon="34.85754093155265" lat="31.723844977095723">
        <ele>180.8000030517578</ele>
        <time>2016-05-14T07:22:10.000Z</time>
      </trkpt>
      <trkpt lon="34.857468931004405" lat="31.724037928506732">
        <ele>180.8000030517578</ele>
        <time>2016-05-14T07:22:19.000Z</time>
      </trkpt>
      <trkpt lon="34.857425931841135" lat="31.724101966246963">
        <ele>180.60000610351562</ele>
        <time>2016-05-14T07:22:22.000Z</time>
      </trkpt>
      <trkpt lon="34.85739894211292" lat="31.7242519184947">
        <ele>180.39999389648438</ele>
        <time>2016-05-14T07:22:28.000Z</time>
      </trkpt>
      <trkpt lon="34.857420986518264" lat="31.72437496483326">
        <ele>180.8000030517578</ele>
        <time>2016-05-14T07:22:33.000Z</time>
      </trkpt>
      <trkpt lon="34.857426937669516" lat="31.72439399175346">
        <ele>180.8000030517578</ele>
        <time>2016-05-14T07:22:34.000Z</time>
      </trkpt>
      <trkpt lon="34.857467925176024" lat="31.72448191791773">
        <ele>182.0</ele>
        <time>2016-05-14T07:22:39.000Z</time>
      </trkpt>
      <trkpt lon="34.85752198845148" lat="31.72456992790103">
        <ele>182.39999389648438</ele>
        <time>2016-05-14T07:22:44.000Z</time>
      </trkpt>
      <trkpt lon="34.85754495486617" lat="31.724646957591176">
        <ele>183.0</ele>
        <time>2016-05-14T07:22:49.000Z</time>
      </trkpt>
      <trkpt lon="34.85760698094964" lat="31.72469599172473">
        <ele>184.1999969482422</ele>
        <time>2016-05-14T07:22:53.000Z</time>
      </trkpt>
      <trkpt lon="34.85763095319271" lat="31.72472096979618">
        <ele>184.60000610351562</ele>
        <time>2016-05-14T07:22:55.000Z</time>
      </trkpt>
      <trkpt lon="34.857678981497884" lat="31.724820965901017">
        <ele>185.39999389648438</ele>
        <time>2016-05-14T07:23:02.000Z</time>
      </trkpt>
      <trkpt lon="34.85766992904246" lat="31.724926996976137">
        <ele>185.8000030517578</ele>
        <time>2016-05-14T07:23:09.000Z</time>
      </trkpt>
      <trkpt lon="34.857618967071176" lat="31.72499698586762">
        <ele>185.39999389648438</ele>
        <time>2016-05-14T07:23:13.000Z</time>
      </trkpt>
      <trkpt lon="34.8576729465276" lat="31.725047947838902">
        <ele>185.1999969482422</ele>
        <time>2016-05-14T07:23:17.000Z</time>
      </trkpt>
      <trkpt lon="34.857681998983026" lat="31.725113997235894">
        <ele>185.60000610351562</ele>
        <time>2016-05-14T07:23:20.000Z</time>
      </trkpt>
      <trkpt lon="34.85771091654897" lat="31.725207958370447">
        <ele>185.8000030517578</ele>
        <time>2016-05-14T07:23:25.000Z</time>
      </trkpt>
      <trkpt lon="34.85773094929755" lat="31.725292950868607">
        <ele>185.8000030517578</ele>
        <time>2016-05-14T07:23:29.000Z</time>
      </trkpt>
      <trkpt lon="34.857767997309566" lat="31.725329998880625">
        <ele>185.8000030517578</ele>
        <time>2016-05-14T07:23:32.000Z</time>
      </trkpt>
      <trkpt lon="34.857789957895875" lat="31.72540199942887">
        <ele>185.8000030517578</ele>
        <time>2016-05-14T07:23:35.000Z</time>
      </trkpt>
      <trkpt lon="34.857854917645454" lat="31.725476933643222">
        <ele>185.8000030517578</ele>
        <time>2016-05-14T07:23:40.000Z</time>
      </trkpt>
      <trkpt lon="34.85790998674929" lat="31.725551951676607">
        <ele>186.39999389648438</ele>
        <time>2016-05-14T07:23:45.000Z</time>
      </trkpt>
      <trkpt lon="34.85794695094228" lat="31.725629987195134">
        <ele>186.39999389648438</ele>
        <time>2016-05-14T07:23:49.000Z</time>
      </trkpt>
      <trkpt lon="34.85799992457032" lat="31.72568296082318">
        <ele>186.1999969482422</ele>
        <time>2016-05-14T07:23:52.000Z</time>
      </trkpt>
      <trkpt lon="34.858049964532256" lat="31.725720930844545">
        <ele>186.60000610351562</ele>
        <time>2016-05-14T07:23:55.000Z</time>
      </trkpt>
      <trkpt lon="34.85808097757399" lat="31.72579695470631">
        <ele>187.0</ele>
        <time>2016-05-14T07:23:58.000Z</time>
      </trkpt>
      <trkpt lon="34.85810394398868" lat="31.72588194720447">
        <ele>186.39999389648438</ele>
        <time>2016-05-14T07:24:01.000Z</time>
      </trkpt>
      <trkpt lon="34.85817393288016" lat="31.725926958024502">
        <ele>186.1999969482422</ele>
        <time>2016-05-14T07:24:05.000Z</time>
      </trkpt>
      <trkpt lon="34.85823294147849" lat="31.72600893303752">
        <ele>186.39999389648438</ele>
        <time>2016-05-14T07:24:09.000Z</time>
      </trkpt>
      <trkpt lon="34.8582599312067" lat="31.72604899853468">
        <ele>186.60000610351562</ele>
        <time>2016-05-14T07:24:11.000Z</time>
      </trkpt>
      <trkpt lon="34.8583119828254" lat="31.726216971874237">
        <ele>186.39999389648438</ele>
        <time>2016-05-14T07:24:17.000Z</time>
      </trkpt>
      <trkpt lon="34.858273928985" lat="31.726276986300945">
        <ele>185.60000610351562</ele>
        <time>2016-05-14T07:24:21.000Z</time>
      </trkpt>
      <trkpt lon="34.85821693204343" lat="31.72637295909226">
        <ele>184.39999389648438</ele>
        <time>2016-05-14T07:24:25.000Z</time>
      </trkpt>
      <trkpt lon="34.85824593342841" lat="31.726465998217463">
        <ele>183.60000610351562</ele>
        <time>2016-05-14T07:24:29.000Z</time>
      </trkpt>
      <trkpt lon="34.85834299586713" lat="31.726516960188746">
        <ele>184.39999389648438</ele>
        <time>2016-05-14T07:24:34.000Z</time>
      </trkpt>
      <trkpt lon="34.85835498198867" lat="31.726533975452185">
        <ele>184.39999389648438</ele>
        <time>2016-05-14T07:24:35.000Z</time>
      </trkpt>
      <trkpt lon="34.858453972265124" lat="31.72669499181211">
        <ele>184.39999389648438</ele>
        <time>2016-05-14T07:24:41.000Z</time>
      </trkpt>
      <trkpt lon="34.85861096531153" lat="31.726838992908597">
        <ele>184.8000030517578</ele>
        <time>2016-05-14T07:24:47.000Z</time>
      </trkpt>
      <trkpt lon="34.858625968918204" lat="31.726982994005084">
        <ele>185.0</ele>
        <time>2016-05-14T07:24:53.000Z</time>
      </trkpt>
      <trkpt lon="34.85862999223173" lat="31.72713093459606">
        <ele>185.0</ele>
        <time>2016-05-14T07:24:58.000Z</time>
      </trkpt>
      <trkpt lon="34.85859797336161" lat="31.72725599259138">
        <ele>184.60000610351562</ele>
        <time>2016-05-14T07:25:02.000Z</time>
      </trkpt>
      <trkpt lon="34.858563942834735" lat="31.727455984801054">
        <ele>184.0</ele>
        <time>2016-05-14T07:25:07.000Z</time>
      </trkpt>
      <trkpt lon="34.85851096920669" lat="31.72758095897734">
        <ele>183.60000610351562</ele>
        <time>2016-05-14T07:25:10.000Z</time>
      </trkpt>
      <trkpt lon="34.85833796672523" lat="31.72772898338735">
        <ele>183.0</ele>
        <time>2016-05-14T07:25:15.000Z</time>
      </trkpt>
      <trkpt lon="34.85806094482541" lat="31.7278369423002">
        <ele>183.39999389648438</ele>
        <time>2016-05-14T07:25:22.000Z</time>
      </trkpt>
      <trkpt lon="34.85784091986716" lat="31.727915983647108">
        <ele>184.8000030517578</ele>
        <time>2016-05-14T07:25:28.000Z</time>
      </trkpt>
      <trkpt lon="34.85766498371959" lat="31.72792294062674">
        <ele>186.0</ele>
        <time>2016-05-14T07:25:33.000Z</time>
      </trkpt>
      <trkpt lon="34.85752592794597" lat="31.727824956178665">
        <ele>186.39999389648438</ele>
        <time>2016-05-14T07:25:38.000Z</time>
      </trkpt>
      <trkpt lon="34.857377987354994" lat="31.727679949253798">
        <ele>186.60000610351562</ele>
        <time>2016-05-14T07:25:44.000Z</time>
      </trkpt>
      <trkpt lon="34.85728897154331" lat="31.72755992040038">
        <ele>186.39999389648438</ele>
        <time>2016-05-14T07:25:48.000Z</time>
      </trkpt>
      <trkpt lon="34.85721395350993" lat="31.727461935952306">
        <ele>186.1999969482422</ele>
        <time>2016-05-14T07:25:51.000Z</time>
      </trkpt>
      <trkpt lon="34.857076993212104" lat="31.727332938462496">
        <ele>185.8000030517578</ele>
        <time>2016-05-14T07:25:55.000Z</time>
      </trkpt>
      <trkpt lon="34.856997951865196" lat="31.72729496844113">
        <ele>185.8000030517578</ele>
        <time>2016-05-14T07:25:57.000Z</time>
      </trkpt>
      <trkpt lon="34.856821931898594" lat="31.727160941809416">
        <ele>185.39999389648438</ele>
        <time>2016-05-14T07:26:03.000Z</time>
      </trkpt>
      <trkpt lon="34.85676694661379" lat="31.727113919332623">
        <ele>185.0</ele>
        <time>2016-05-14T07:26:05.000Z</time>
      </trkpt>
      <trkpt lon="34.8566369432956" lat="31.727050971239805">
        <ele>184.39999389648438</ele>
        <time>2016-05-14T07:26:09.000Z</time>
      </trkpt>
      <trkpt lon="34.85658095218241" lat="31.726969918236136">
        <ele>183.8000030517578</ele>
        <time>2016-05-14T07:26:12.000Z</time>
      </trkpt>
      <trkpt lon="34.85644399188459" lat="31.72687293961644">
        <ele>182.60000610351562</ele>
        <time>2016-05-14T07:26:17.000Z</time>
      </trkpt>
      <trkpt lon="34.85630099661648" lat="31.72678492963314">
        <ele>182.0</ele>
        <time>2016-05-14T07:26:21.000Z</time>
      </trkpt>
      <trkpt lon="34.85627694055438" lat="31.72674394212663">
        <ele>181.60000610351562</ele>
        <time>2016-05-14T07:26:22.000Z</time>
      </trkpt>
      <trkpt lon="34.856115924194455" lat="31.726599941030145">
        <ele>180.39999389648438</ele>
        <time>2016-05-14T07:26:27.000Z</time>
      </trkpt>
      <trkpt lon="34.856072925031185" lat="31.726583931595087">
        <ele>180.1999969482422</ele>
        <time>2016-05-14T07:26:28.000Z</time>
      </trkpt>
      <trkpt lon="34.85579799860716" lat="31.72658896073699">
        <ele>179.39999389648438</ele>
        <time>2016-05-14T07:26:34.000Z</time>
      </trkpt>
      <trkpt lon="34.85569993034005" lat="31.72659197822213">
        <ele>179.39999389648438</ele>
        <time>2016-05-14T07:26:37.000Z</time>
      </trkpt>
      <trkpt lon="34.855662966147065" lat="31.726578986272216">
        <ele>179.39999389648438</ele>
        <time>2016-05-14T07:26:38.000Z</time>
      </trkpt>
      <trkpt lon="34.85549993813038" lat="31.72639399766922">
        <ele>177.8000030517578</ele>
        <time>2016-05-14T07:26:45.000Z</time>
      </trkpt>
      <trkpt lon="34.8553329706192" lat="31.726317973807454">
        <ele>176.39999389648438</ele>
        <time>2016-05-14T07:26:49.000Z</time>
      </trkpt>
      <trkpt lon="34.85528192482889" lat="31.72630598768592">
        <ele>176.0</ele>
        <time>2016-05-14T07:26:50.000Z</time>
      </trkpt>
      <trkpt lon="34.85500297509134" lat="31.726253936067224">
        <ele>174.8000030517578</ele>
        <time>2016-05-14T07:26:55.000Z</time>
      </trkpt>
      <trkpt lon="34.85493499785662" lat="31.726335994899273">
        <ele>174.39999389648438</ele>
        <time>2016-05-14T07:26:58.000Z</time>
      </trkpt>
      <trkpt lon="34.854980930686" lat="31.726406989619136">
        <ele>174.60000610351562</ele>
        <time>2016-05-14T07:27:01.000Z</time>
      </trkpt>
      <trkpt lon="34.8550689406693" lat="31.72643498517573">
        <ele>175.1999969482422</ele>
        <time>2016-05-14T07:27:05.000Z</time>
      </trkpt>
      <trkpt lon="34.85521696507931" lat="31.726450994610786">
        <ele>176.39999389648438</ele>
        <time>2016-05-14T07:27:11.000Z</time>
      </trkpt>
      <trkpt lon="34.855341939255595" lat="31.726445965468884">
        <ele>176.8000030517578</ele>
        <time>2016-05-14T07:27:15.000Z</time>
      </trkpt>
      <trkpt lon="34.85539097338915" lat="31.726465998217463">
        <ele>177.1999969482422</ele>
        <time>2016-05-14T07:27:17.000Z</time>
      </trkpt>
      <trkpt lon="34.855320984497666" lat="31.72652098350227">
        <ele>177.8000030517578</ele>
        <time>2016-05-14T07:27:22.000Z</time>
      </trkpt>
      <trkpt lon="34.85518595203757" lat="31.726619973778725">
        <ele>177.60000610351562</ele>
        <time>2016-05-14T07:27:27.000Z</time>
      </trkpt>
      <trkpt lon="34.85516692511737" lat="31.726647969335318">
        <ele>177.8000030517578</ele>
        <time>2016-05-14T07:27:28.000Z</time>
      </trkpt>
      <trkpt lon="34.85523699782789" lat="31.726707983762026">
        <ele>178.39999389648438</ele>
        <time>2016-05-14T07:27:32.000Z</time>
      </trkpt>
      <trkpt lon="34.85537094064057" lat="31.726702954620123">
        <ele>178.60000610351562</ele>
        <time>2016-05-14T07:27:36.000Z</time>
      </trkpt>
      <trkpt lon="34.855447970330715" lat="31.726768920198083">
        <ele>179.60000610351562</ele>
        <time>2016-05-14T07:27:40.000Z</time>
      </trkpt>
      <trkpt lon="34.85537295229733" lat="31.726810997352004">
        <ele>180.0</ele>
        <time>2016-05-14T07:27:43.000Z</time>
      </trkpt>
      <trkpt lon="34.8552449606359" lat="31.72686598263681">
        <ele>180.0</ele>
        <time>2016-05-14T07:27:47.000Z</time>
      </trkpt>
      <trkpt lon="34.85520497895777" lat="31.72691199928522">
        <ele>179.8000030517578</ele>
        <time>2016-05-14T07:27:49.000Z</time>
      </trkpt>
      <trkpt lon="34.85511998645961" lat="31.72697897069156">
        <ele>179.8000030517578</ele>
        <time>2016-05-14T07:27:53.000Z</time>
      </trkpt>
      <trkpt lon="34.85515393316746" lat="31.727024987339973">
        <ele>180.0</ele>
        <time>2016-05-14T07:27:57.000Z</time>
      </trkpt>
      <trkpt lon="34.855213947594166" lat="31.727052982896566">
        <ele>180.39999389648438</ele>
        <time>2016-05-14T07:28:01.000Z</time>
      </trkpt>
      <trkpt lon="34.855237919837236" lat="31.727055916562676">
        <ele>180.60000610351562</ele>
        <time>2016-05-14T07:28:02.000Z</time>
      </trkpt>
      <trkpt lon="34.85529097728431" lat="31.727055916562676">
        <ele>180.8000030517578</ele>
        <time>2016-05-14T07:28:04.000Z</time>
      </trkpt>
      <trkpt lon="34.85538996756077" lat="31.72703999094665">
        <ele>181.60000610351562</ele>
        <time>2016-05-14T07:28:09.000Z</time>
      </trkpt>
      <trkpt lon="34.855470936745405" lat="31.72706396318972">
        <ele>182.1999969482422</ele>
        <time>2016-05-14T07:28:13.000Z</time>
      </trkpt>
      <trkpt lon="34.85548099502921" lat="31.727077960968018">
        <ele>182.60000610351562</ele>
        <time>2016-05-14T07:28:15.000Z</time>
      </trkpt>
      <trkpt lon="34.855366917327046" lat="31.727158930152655">
        <ele>182.60000610351562</ele>
        <time>2016-05-14T07:28:20.000Z</time>
      </trkpt>
      <trkpt lon="34.85535099171102" lat="31.727183992043138">
        <ele>182.60000610351562</ele>
        <time>2016-05-14T07:28:21.000Z</time>
      </trkpt>
      <trkpt lon="34.85531193204224" lat="31.727292956784368">
        <ele>182.60000610351562</ele>
        <time>2016-05-14T07:28:26.000Z</time>
      </trkpt>
      <trkpt lon="34.85536498948932" lat="31.727355988696218">
        <ele>183.1999969482422</ele>
        <time>2016-05-14T07:28:30.000Z</time>
      </trkpt>
      <trkpt lon="34.85543296672404" lat="31.72733897343278">
        <ele>184.0</ele>
        <time>2016-05-14T07:28:33.000Z</time>
      </trkpt>
      <trkpt lon="34.85552793368697" lat="31.727371998131275">
        <ele>184.60000610351562</ele>
        <time>2016-05-14T07:28:37.000Z</time>
      </trkpt>
      <trkpt lon="34.855578979477286" lat="31.727349953725934">
        <ele>185.0</ele>
        <time>2016-05-14T07:28:39.000Z</time>
      </trkpt>
      <trkpt lon="34.85571292228997" lat="31.727271918207407">
        <ele>185.8000030517578</ele>
        <time>2016-05-14T07:28:45.000Z</time>
      </trkpt>
      <trkpt lon="34.85575692728162" lat="31.727246940135956">
        <ele>185.8000030517578</ele>
        <time>2016-05-14T07:28:47.000Z</time>
      </trkpt>
      <trkpt lon="34.85584996640682" lat="31.72721098177135">
        <ele>185.8000030517578</ele>
        <time>2016-05-14T07:28:51.000Z</time>
      </trkpt>
      <trkpt lon="34.85595197416842" lat="31.727207964286208">
        <ele>185.8000030517578</ele>
        <time>2016-05-14T07:28:56.000Z</time>
      </trkpt>
      <trkpt lon="34.85595499165356" lat="31.72725892625749">
        <ele>186.1999969482422</ele>
        <time>2016-05-14T07:29:00.000Z</time>
      </trkpt>
      <trkpt lon="34.855941999703646" lat="31.72727996483445">
        <ele>186.39999389648438</ele>
        <time>2016-05-14T07:29:01.000Z</time>
      </trkpt>
      <trkpt lon="34.855857929214835" lat="31.727375937625766">
        <ele>187.1999969482422</ele>
        <time>2016-05-14T07:29:07.000Z</time>
      </trkpt>
      <trkpt lon="34.85584099777043" lat="31.727465959265828">
        <ele>187.60000610351562</ele>
        <time>2016-05-14T07:29:12.000Z</time>
      </trkpt>
      <trkpt lon="34.855836974456906" lat="31.72753594815731">
        <ele>188.39999389648438</ele>
        <time>2016-05-14T07:29:15.000Z</time>
      </trkpt>
      <trkpt lon="34.85575499944389" lat="31.727607948705554">
        <ele>188.8000030517578</ele>
        <time>2016-05-14T07:29:20.000Z</time>
      </trkpt>
      <trkpt lon="34.85575793311" lat="31.727739963680506">
        <ele>189.39999389648438</ele>
        <time>2016-05-14T07:29:27.000Z</time>
      </trkpt>
      <trkpt lon="34.85575499944389" lat="31.727780951187015">
        <ele>189.8000030517578</ele>
        <time>2016-05-14T07:29:29.000Z</time>
      </trkpt>
      <trkpt lon="34.85577897168696" lat="31.727908942848444">
        <ele>190.1999969482422</ele>
        <time>2016-05-14T07:29:35.000Z</time>
      </trkpt>
      <trkpt lon="34.85581794753671" lat="31.727957976981997">
        <ele>190.8000030517578</ele>
        <time>2016-05-14T07:29:38.000Z</time>
      </trkpt>
      <trkpt lon="34.85584493726492" lat="31.728074988350272">
        <ele>191.1999969482422</ele>
        <time>2016-05-14T07:29:43.000Z</time>
      </trkpt>
      <trkpt lon="34.85588491894305" lat="31.72822292894125">
        <ele>192.0</ele>
        <time>2016-05-14T07:29:49.000Z</time>
      </trkpt>
      <trkpt lon="34.85589095391333" lat="31.72824396751821">
        <ele>192.0</ele>
        <time>2016-05-14T07:29:50.000Z</time>
      </trkpt>
      <trkpt lon="34.85600092448294" lat="31.728294929489493">
        <ele>193.39999389648438</ele>
        <time>2016-05-14T07:29:55.000Z</time>
      </trkpt>
      <trkpt lon="34.85601492226124" lat="31.728298952803016">
        <ele>193.60000610351562</ele>
        <time>2016-05-14T07:29:56.000Z</time>
      </trkpt>
      <trkpt lon="34.856074936687946" lat="31.728403978049755">
        <ele>195.1999969482422</ele>
        <time>2016-05-14T07:30:02.000Z</time>
      </trkpt>
      <trkpt lon="34.85609597526491" lat="31.72851998358965">
        <ele>195.60000610351562</ele>
        <time>2016-05-14T07:30:07.000Z</time>
      </trkpt>
      <trkpt lon="34.85610192641616" lat="31.72856591641903">
        <ele>196.0</ele>
        <time>2016-05-14T07:30:09.000Z</time>
      </trkpt>
      <trkpt lon="34.85607896000147" lat="31.72869399189949">
        <ele>196.60000610351562</ele>
        <time>2016-05-14T07:30:14.000Z</time>
      </trkpt>
      <trkpt lon="34.85596798360348" lat="31.728832963854074">
        <ele>197.1999969482422</ele>
        <time>2016-05-14T07:30:20.000Z</time>
      </trkpt>
      <trkpt lon="34.85589095391333" lat="31.728900941088796">
        <ele>197.60000610351562</ele>
        <time>2016-05-14T07:30:25.000Z</time>
      </trkpt>
      <trkpt lon="34.85584191977978" lat="31.728981994092464">
        <ele>197.60000610351562</ele>
        <time>2016-05-14T07:30:29.000Z</time>
      </trkpt>
      <trkpt lon="34.8557439353317" lat="31.729112919420004">
        <ele>198.39999389648438</ele>
        <time>2016-05-14T07:30:35.000Z</time>
      </trkpt>
      <trkpt lon="34.85566891729832" lat="31.72925398685038">
        <ele>198.8000030517578</ele>
        <time>2016-05-14T07:30:41.000Z</time>
      </trkpt>
      <trkpt lon="34.855644945055246" lat="31.729334956035018">
        <ele>199.0</ele>
        <time>2016-05-14T07:30:45.000Z</time>
      </trkpt>
      <trkpt lon="34.85558794811368" lat="31.729479962959886">
        <ele>199.0</ele>
        <time>2016-05-14T07:30:50.000Z</time>
      </trkpt>
      <trkpt lon="34.85554997809231" lat="31.729529919102788">
        <ele>199.0</ele>
        <time>2016-05-14T07:30:52.000Z</time>
      </trkpt>
      <trkpt lon="34.85558895394206" lat="31.729651959612966">
        <ele>199.0</ele>
        <time>2016-05-14T07:30:57.000Z</time>
      </trkpt>
      <trkpt lon="34.8556109983474" lat="31.729690935462713">
        <ele>199.0</ele>
        <time>2016-05-14T07:30:59.000Z</time>
      </trkpt>
      <trkpt lon="34.85558794811368" lat="31.72979093156755">
        <ele>198.8000030517578</ele>
        <time>2016-05-14T07:31:03.000Z</time>
      </trkpt>
      <trkpt lon="34.855468925088644" lat="31.72991699539125">
        <ele>197.60000610351562</ele>
        <time>2016-05-14T07:31:08.000Z</time>
      </trkpt>
      <trkpt lon="34.85537898726761" lat="31.729951947927475">
        <ele>196.60000610351562</ele>
        <time>2016-05-14T07:31:12.000Z</time>
      </trkpt>
      <trkpt lon="34.85516399145126" lat="31.729862932115793">
        <ele>195.8000030517578</ele>
        <time>2016-05-14T07:31:18.000Z</time>
      </trkpt>
      <trkpt lon="34.85502099618316" lat="31.729817921295762">
        <ele>194.60000610351562</ele>
        <time>2016-05-14T07:31:22.000Z</time>
      </trkpt>
      <trkpt lon="34.854998951777816" lat="31.72980995848775">
        <ele>194.0</ele>
        <time>2016-05-14T07:31:23.000Z</time>
      </trkpt>
      <trkpt lon="34.854995934292674" lat="31.729861926287413">
        <ele>192.8000030517578</ele>
        <time>2016-05-14T07:31:28.000Z</time>
      </trkpt>
      <trkpt lon="34.85504396259785" lat="31.729924958199263">
        <ele>192.39999389648438</ele>
        <time>2016-05-14T07:31:31.000Z</time>
      </trkpt>
      <trkpt lon="34.85513599589467" lat="31.730041969567537">
        <ele>193.0</ele>
        <time>2016-05-14T07:31:38.000Z</time>
      </trkpt>
      <trkpt lon="34.855188969522715" lat="31.730125956237316">
        <ele>192.39999389648438</ele>
        <time>2016-05-14T07:31:42.000Z</time>
      </trkpt>
      <trkpt lon="34.855277985334396" lat="31.730248918756843">
        <ele>192.0</ele>
        <time>2016-05-14T07:31:47.000Z</time>
      </trkpt>
      <trkpt lon="34.855319978669286" lat="31.730295941233635">
        <ele>191.8000030517578</ele>
        <time>2016-05-14T07:31:49.000Z</time>
      </trkpt>
      <trkpt lon="34.855340933427215" lat="31.730461986735463">
        <ele>190.60000610351562</ele>
        <time>2016-05-14T07:31:55.000Z</time>
      </trkpt>
      <trkpt lon="34.855383932590485" lat="31.730667930096388">
        <ele>189.39999389648438</ele>
        <time>2016-05-14T07:32:00.000Z</time>
      </trkpt>
      <trkpt lon="34.85541494563222" lat="31.730706989765167">
        <ele>189.1999969482422</ele>
        <time>2016-05-14T07:32:01.000Z</time>
      </trkpt>
      <trkpt lon="34.855556935071945" lat="31.73084093257785">
        <ele>189.0</ele>
        <time>2016-05-14T07:32:06.000Z</time>
      </trkpt>
      <trkpt lon="34.855577973648906" lat="31.73092693090439">
        <ele>189.1999969482422</ele>
        <time>2016-05-14T07:32:10.000Z</time>
      </trkpt>
      <trkpt lon="34.85556196421385" lat="31.731002954766154">
        <ele>188.60000610351562</ele>
        <time>2016-05-14T07:32:13.000Z</time>
      </trkpt>
      <trkpt lon="34.85545098781586" lat="31.731090964749455">
        <ele>187.0</ele>
        <time>2016-05-14T07:32:18.000Z</time>
      </trkpt>
      <trkpt lon="34.85537596978247" lat="31.731127928942442">
        <ele>185.0</ele>
        <time>2016-05-14T07:32:22.000Z</time>
      </trkpt>
      <trkpt lon="34.85533892177045" lat="31.731349965557456">
        <ele>183.1999969482422</ele>
        <time>2016-05-14T07:32:29.000Z</time>
      </trkpt>
      <trkpt lon="34.85528997145593" lat="31.731513999402523">
        <ele>181.1999969482422</ele>
        <time>2016-05-14T07:32:33.000Z</time>
      </trkpt>
      <trkpt lon="34.85529198311269" lat="31.731581976637244">
        <ele>180.39999389648438</ele>
        <time>2016-05-14T07:32:35.000Z</time>
      </trkpt>
      <trkpt lon="34.855318972840905" lat="31.731646936386824">
        <ele>179.1999969482422</ele>
        <time>2016-05-14T07:32:39.000Z</time>
      </trkpt>
      <trkpt lon="34.855446964502335" lat="31.731738969683647">
        <ele>178.60000610351562</ele>
        <time>2016-05-14T07:32:45.000Z</time>
      </trkpt>
      <trkpt lon="34.85551695339382" lat="31.731759924441576">
        <ele>178.8000030517578</ele>
        <time>2016-05-14T07:32:48.000Z</time>
      </trkpt>
      <trkpt lon="34.855643939226866" lat="31.731814993545413">
        <ele>178.8000030517578</ele>
        <time>2016-05-14T07:32:53.000Z</time>
      </trkpt>
      <trkpt lon="34.85576195642352" lat="31.731825973838568">
        <ele>179.0</ele>
        <time>2016-05-14T07:32:58.000Z</time>
      </trkpt>
      <trkpt lon="34.855856923386455" lat="31.731825973838568">
        <ele>179.60000610351562</ele>
        <time>2016-05-14T07:33:02.000Z</time>
      </trkpt>
      <trkpt lon="34.85596094280481" lat="31.73183091916144">
        <ele>180.39999389648438</ele>
        <time>2016-05-14T07:33:07.000Z</time>
      </trkpt>
      <trkpt lon="34.85608197748661" lat="31.73189294524491">
        <ele>180.1999969482422</ele>
        <time>2016-05-14T07:33:13.000Z</time>
      </trkpt>
      <trkpt lon="34.8561239708215" lat="31.731924964115024">
        <ele>179.8000030517578</ele>
        <time>2016-05-14T07:33:15.000Z</time>
      </trkpt>
      <trkpt lon="34.85626998357475" lat="31.731904931366444">
        <ele>180.0</ele>
        <time>2016-05-14T07:33:20.000Z</time>
      </trkpt>
      <trkpt lon="34.85640694387257" lat="31.731861932203174">
        <ele>181.39999389648438</ele>
        <time>2016-05-14T07:33:25.000Z</time>
      </trkpt>
      <trkpt lon="34.85647299326956" lat="31.73191691748798">
        <ele>181.8000030517578</ele>
        <time>2016-05-14T07:33:29.000Z</time>
      </trkpt>
      <trkpt lon="34.85648891888559" lat="31.732059996575117">
        <ele>180.1999969482422</ele>
        <time>2016-05-14T07:33:34.000Z</time>
      </trkpt>
      <trkpt lon="34.85644793137908" lat="31.7321109585464">
        <ele>179.39999389648438</ele>
        <time>2016-05-14T07:33:36.000Z</time>
      </trkpt>
      <trkpt lon="34.85640996135771" lat="31.73221698962152">
        <ele>177.1999969482422</ele>
        <time>2016-05-14T07:33:42.000Z</time>
      </trkpt>
      <trkpt lon="34.856286998838186" lat="31.732334922999144">
        <ele>175.39999389648438</ele>
        <time>2016-05-14T07:33:48.000Z</time>
      </trkpt>
      <trkpt lon="34.85627694055438" lat="31.732357973232865">
        <ele>174.8000030517578</ele>
        <time>2016-05-14T07:33:49.000Z</time>
      </trkpt>
      <trkpt lon="34.856327986344695" lat="31.732444977387786">
        <ele>173.1999969482422</ele>
        <time>2016-05-14T07:33:53.000Z</time>
      </trkpt>
      <trkpt lon="34.8564519546926" lat="31.73243399709463">
        <ele>172.1999969482422</ele>
        <time>2016-05-14T07:33:57.000Z</time>
      </trkpt>
      <trkpt lon="34.856540970504284" lat="31.73239292576909">
        <ele>172.60000610351562</ele>
        <time>2016-05-14T07:34:01.000Z</time>
      </trkpt>
      <trkpt lon="34.85665496438742" lat="31.73225898295641">
        <ele>172.8000030517578</ele>
        <time>2016-05-14T07:34:07.000Z</time>
      </trkpt>
      <trkpt lon="34.8569009732455" lat="31.732099978253245">
        <ele>172.39999389648438</ele>
        <time>2016-05-14T07:34:14.000Z</time>
      </trkpt>
      <trkpt lon="34.857169948518276" lat="31.732034934684634">
        <ele>172.60000610351562</ele>
        <time>2016-05-14T07:34:21.000Z</time>
      </trkpt>
      <trkpt lon="34.85737597569823" lat="31.732034934684634">
        <ele>173.39999389648438</ele>
        <time>2016-05-14T07:34:27.000Z</time>
      </trkpt>
      <trkpt lon="34.857556940987706" lat="31.732082962989807">
        <ele>175.0</ele>
        <time>2016-05-14T07:34:33.000Z</time>
      </trkpt>
      <trkpt lon="34.857659954577684" lat="31.73217792995274">
        <ele>177.0</ele>
        <time>2016-05-14T07:34:40.000Z</time>
      </trkpt>
      <trkpt lon="34.857682920992374" lat="31.732309944927692">
        <ele>177.60000610351562</ele>
        <time>2016-05-14T07:34:46.000Z</time>
      </trkpt>
      <trkpt lon="34.85767596401274" lat="31.73249694518745">
        <ele>177.60000610351562</ele>
        <time>2016-05-14T07:34:54.000Z</time>
      </trkpt>
      <trkpt lon="34.85765098594129" lat="31.732760975137353">
        <ele>177.60000610351562</ele>
        <time>2016-05-14T07:35:01.000Z</time>
      </trkpt>
      <trkpt lon="34.857617961242795" lat="31.73301192931831">
        <ele>177.60000610351562</ele>
        <time>2016-05-14T07:35:08.000Z</time>
      </trkpt>
      <trkpt lon="34.85763195902109" lat="31.733176968991756">
        <ele>178.1999969482422</ele>
        <time>2016-05-14T07:35:13.000Z</time>
      </trkpt>
      <trkpt lon="34.85767093487084" lat="31.733308983966708">
        <ele>179.0</ele>
        <time>2016-05-14T07:35:18.000Z</time>
      </trkpt>
      <trkpt lon="34.85770898871124" lat="31.733406968414783">
        <ele>179.8000030517578</ele>
        <time>2016-05-14T07:35:22.000Z</time>
      </trkpt>
      <trkpt lon="34.857723992317915" lat="31.733448961749673">
        <ele>180.39999389648438</ele>
        <time>2016-05-14T07:35:27.000Z</time>
      </trkpt>
      <trkpt lon="34.85772097483277" lat="31.733476957306266">
        <ele>180.39999389648438</ele>
        <time>2016-05-14T07:37:24.000Z</time>
      </trkpt>
      <trkpt lon="34.85773698426783" lat="31.73354996368289">
        <ele>180.1999969482422</ele>
        <time>2016-05-14T07:37:28.000Z</time>
      </trkpt>
      <trkpt lon="34.85788492485881" lat="31.73361299559474">
        <ele>180.0</ele>
        <time>2016-05-14T07:37:33.000Z</time>
      </trkpt>
      <trkpt lon="34.857941921800375" lat="31.733644930645823">
        <ele>180.60000610351562</ele>
        <time>2016-05-14T07:37:35.000Z</time>
      </trkpt>
      <trkpt lon="34.858152978122234" lat="31.733824973925948">
        <ele>180.8000030517578</ele>
        <time>2016-05-14T07:37:42.000Z</time>
      </trkpt>
      <trkpt lon="34.85829396173358" lat="31.73395891673863">
        <ele>181.0</ele>
        <time>2016-05-14T07:37:47.000Z</time>
      </trkpt>
      <trkpt lon="34.85843997448683" lat="31.734183970838785">
        <ele>181.0</ele>
        <time>2016-05-14T07:37:54.000Z</time>
      </trkpt>
      <trkpt lon="34.858477944508195" lat="31.734269969165325">
        <ele>181.1999969482422</ele>
        <time>2016-05-14T07:37:57.000Z</time>
      </trkpt>
      <trkpt lon="34.85844098031521" lat="31.734445989131927">
        <ele>182.60000610351562</ele>
        <time>2016-05-14T07:38:03.000Z</time>
      </trkpt>
      <trkpt lon="34.85844198614359" lat="31.734510948881507">
        <ele>182.60000610351562</ele>
        <time>2016-05-14T07:38:05.000Z</time>
      </trkpt>
      <trkpt lon="34.85855598002672" lat="31.734632989391685">
        <ele>183.60000610351562</ele>
        <time>2016-05-14T07:38:12.000Z</time>
      </trkpt>
      <trkpt lon="34.8587279766798" lat="31.734698954969645">
        <ele>183.39999389648438</ele>
        <time>2016-05-14T07:38:18.000Z</time>
      </trkpt>
      <trkpt lon="34.85892394557595" lat="31.734745977446437">
        <ele>182.39999389648438</ele>
        <time>2016-05-14T07:38:24.000Z</time>
      </trkpt>
      <trkpt lon="34.859015978872776" lat="31.734874974936247">
        <ele>181.1999969482422</ele>
        <time>2016-05-14T07:38:29.000Z</time>
      </trkpt>
      <trkpt lon="34.85902193002403" lat="31.734889978542924">
        <ele>180.8000030517578</ele>
        <time>2016-05-14T07:38:30.000Z</time>
      </trkpt>
      <trkpt lon="34.85902897082269" lat="31.734977988526225">
        <ele>179.0</ele>
        <time>2016-05-14T07:38:34.000Z</time>
      </trkpt>
      <trkpt lon="34.85900592058897" lat="31.73501092940569">
        <ele>178.39999389648438</ele>
        <time>2016-05-14T07:38:35.000Z</time>
      </trkpt>
      <trkpt lon="34.858800983056426" lat="31.73520295880735">
        <ele>177.0</ele>
        <time>2016-05-14T07:38:41.000Z</time>
      </trkpt>
      <trkpt lon="34.85874298028648" lat="31.735380990430713">
        <ele>175.8000030517578</ele>
        <time>2016-05-14T07:38:45.000Z</time>
      </trkpt>
      <trkpt lon="34.858672991395" lat="31.735475957393646">
        <ele>174.60000610351562</ele>
        <time>2016-05-14T07:38:48.000Z</time>
      </trkpt>
      <trkpt lon="34.858588920906186" lat="31.73550495877862">
        <ele>174.39999389648438</ele>
        <time>2016-05-14T07:38:51.000Z</time>
      </trkpt>
      <trkpt lon="34.85853695310652" lat="31.73565692268312">
        <ele>173.8000030517578</ele>
        <time>2016-05-14T07:38:57.000Z</time>
      </trkpt>
      <trkpt lon="34.85840694978833" lat="31.735812993720174">
        <ele>172.8000030517578</ele>
        <time>2016-05-14T07:39:02.000Z</time>
      </trkpt>
      <trkpt lon="34.85833193175495" lat="31.735940985381603">
        <ele>172.1999969482422</ele>
        <time>2016-05-14T07:39:06.000Z</time>
      </trkpt>
      <trkpt lon="34.858304942026734" lat="31.73595699481666">
        <ele>171.8000030517578</ele>
        <time>2016-05-14T07:39:07.000Z</time>
      </trkpt>
      <trkpt lon="34.858262948691845" lat="31.73597996123135">
        <ele>171.39999389648438</ele>
        <time>2016-05-14T07:39:09.000Z</time>
      </trkpt>
      <trkpt lon="34.85814493149519" lat="31.736206943169236">
        <ele>170.1999969482422</ele>
        <time>2016-05-14T07:39:17.000Z</time>
      </trkpt>
      <trkpt lon="34.858131939545274" lat="31.736248936504126">
        <ele>170.0</ele>
        <time>2016-05-14T07:39:18.000Z</time>
      </trkpt>
      <trkpt lon="34.858046947047114" lat="31.736420933157206">
        <ele>169.0</ele>
        <time>2016-05-14T07:39:22.000Z</time>
      </trkpt>
      <trkpt lon="34.85793395899236" lat="31.736548924818635">
        <ele>168.39999389648438</ele>
        <time>2016-05-14T07:39:25.000Z</time>
      </trkpt>
      <trkpt lon="34.85780093818903" lat="31.736852936446667">
        <ele>166.0</ele>
        <time>2016-05-14T07:39:30.000Z</time>
      </trkpt>
      <trkpt lon="34.857721980661154" lat="31.737061981111765">
        <ele>164.8000030517578</ele>
        <time>2016-05-14T07:39:34.000Z</time>
      </trkpt>
      <trkpt lon="34.857553923502564" lat="31.737149991095066">
        <ele>162.60000610351562</ele>
        <time>2016-05-14T07:39:37.000Z</time>
      </trkpt>
      <trkpt lon="34.85745593905449" lat="31.737153930589557">
        <ele>161.39999389648438</ele>
        <time>2016-05-14T07:39:39.000Z</time>
      </trkpt>
      <trkpt lon="34.857291989028454" lat="31.73709492199123">
        <ele>161.0</ele>
        <time>2016-05-14T07:39:45.000Z</time>
      </trkpt>
      <trkpt lon="34.857168942689896" lat="31.73707094974816">
        <ele>161.39999389648438</ele>
        <time>2016-05-14T07:39:49.000Z</time>
      </trkpt>
      <trkpt lon="34.857063917443156" lat="31.737170945852995">
        <ele>161.8000030517578</ele>
        <time>2016-05-14T07:39:54.000Z</time>
      </trkpt>
      <trkpt lon="34.85707498155534" lat="31.73724294640124">
        <ele>161.8000030517578</ele>
        <time>2016-05-14T07:39:56.000Z</time>
      </trkpt>
      <trkpt lon="34.857060983777046" lat="31.737508988007903">
        <ele>161.39999389648438</ele>
        <time>2016-05-14T07:40:03.000Z</time>
      </trkpt>
      <trkpt lon="34.856909941881895" lat="31.737584928050637">
        <ele>161.39999389648438</ele>
        <time>2016-05-14T07:40:07.000Z</time>
      </trkpt>
      <trkpt lon="34.85656192526221" lat="31.73760898411274">
        <ele>161.0</ele>
        <time>2016-05-14T07:40:15.000Z</time>
      </trkpt>
      <trkpt lon="34.856285993009806" lat="31.73760697245598">
        <ele>160.1999969482422</ele>
        <time>2016-05-14T07:40:21.000Z</time>
      </trkpt>
      <trkpt lon="34.856241988018155" lat="31.737601943314075">
        <ele>160.0</ele>
        <time>2016-05-14T07:40:22.000Z</time>
      </trkpt>
      <trkpt lon="34.85617199912667" lat="31.737646954134107">
        <ele>159.60000610351562</ele>
        <time>2016-05-14T07:40:25.000Z</time>
      </trkpt>
      <trkpt lon="34.85617593862116" lat="31.737701939418912">
        <ele>159.0</ele>
        <time>2016-05-14T07:40:29.000Z</time>
      </trkpt>
      <trkpt lon="34.856178956106305" lat="31.73769992776215">
        <ele>159.0</ele>
        <time>2016-05-14T07:40:33.000Z</time>
      </trkpt>
    </trkseg>
  </trk>
</gpx>
